[[{"header":{"parameterUnit":"m.s-1","parameterCategory":1,"la1":30.6,"la2":29.2853,"lo1":-89.7004,"lo2":-87.6739,"dy":0.0162,"dx":0.0183,"nx":112,"ny":82,"refTime":"2024-06-04T06:00:00:Z","depth":0,"parameterNumber":2,"parameterNumberName":"U-component_of_WINDS"},"data":[0.0,0.0,0.0,0.0,0.0,0.0,0.0,0.0,0.0,0.0,0.0,0.0,0.0,0.0,0.0,0.0,0.0,0.0,0.0,0.0,0.0,0.0,0.0,0.0,0.0,0.0,0.0,0.0,0.0,0.0,0.0,0.0,0.0,0.0,0.0,0.0,0.0,0.0,0.0,0.0,0.0,0.0,0.0,0.0,0.0,0.0,0.0,0.0,0.0,0.0,0.0,0.0,0.0,0.0,0.0,0.0,0.0,0.0,0.0,0.0,0.0,0.0,0.0,0.0,0.0,0.0,0.0,0.0,0.0,0.0,0.0,0.0,0.0,0.0,0.0,0.0,0.0,0.0,0.0,0.0,0.0,0.0,0.0,0.0,0.0,0.0,0.0,0.0,0.0,0.0,-3.4622,-3.8546,-4.294,-4.5371,-4.4744,-4.3762,-4.0721,-3.4961,0.0,0.0,0.0,0.0,0.0,0.0,0.0,0.0,0.0,0.0,0.0,0.0,0.0,0.0,0.0,0.0,0.0,0.0,0.0,0.0,0.0,0.0,0.0,0.0,0.0,0.0,0.0,0.0,0.0,0.0,0.0,0.0,0.0,0.0,0.0,0.0,0.0,0.0,0.0,0.0,0.0,0.0,0.0,0.0,0.0,0.0,0.0,0.0,0.0,0.0,0.0,0.0,0.0,0.0,0.0,0.0,0.0,0.0,0.0,0.0,0.0,0.0,0.0,0.0,0.0,0.0,0.0,0.0,0.0,0.0,0.0,0.0,0.0,0.0,0.0,0.0,0.0,0.0,0.0,0.0,0.0,0.0,0.0,0.0,0.0,0.0,0.0,0.0,0.0,0.0,0.0,0.0,0.0,0.0,0.0,0.0,0.0,0.0,0.0,0.0,0.0,0.0,0.0,0.0,-3.6399,-4.2662,-4.471,-4.5602,-4.5609,-4.3568,-4.0351,-3.5771,0.0,0.0,0.0,0.0,0.0,0.0,0.0,0.0,0.0,0.0,0.0,0.0,0.0,0.0,0.0,0.0,0.0,0.0,0.0,0.0,0.0,0.0,0.0,0.0,0.0,0.0,0.0,0.0,0.0,0.0,0.0,0.0,0.0,0.0,0.0,0.0,0.0,0.0,0.0,0.0,0.0,0.0,0.0,0.0,0.0,0.0,0.0,0.0,0.0,0.0,0.0,0.0,0.0,0.0,0.0,0.0,0.0,0.0,0.0,0.0,0.0,0.0,0.0,0.0,0.0,0.0,0.0,0.0,0.0,0.0,0.0,0.0,0.0,0.0,0.0,0.0,0.0,0.0,0.0,0.0,0.0,0.0,0.0,0.0,0.0,0.0,0.0,0.0,0.0,0.0,0.0,0.0,0.0,0.0,0.0,0.0,0.0,0.0,0.0,0.0,0.0,0.0,0.0,-3.4584,-3.8507,-4.4402,-4.5364,-4.5637,-4.5696,-4.3912,-4.0754,-3.5955,-3.2926,0.0,0.0,0.0,0.0,0.0,0.0,0.0,0.0,0.0,0.0,0.0,0.0,0.0,0.0,0.0,0.0,0.0,0.0,0.0,0.0,0.0,0.0,0.0,0.0,0.0,0.0,0.0,0.0,0.0,0.0,0.0,0.0,0.0,0.0,0.0,0.0,0.0,0.0,0.0,0.0,0.0,0.0,0.0,0.0,0.0,0.0,0.0,0.0,0.0,0.0,0.0,0.0,0.0,0.0,0.0,0.0,0.0,0.0,0.0,0.0,0.0,0.0,0.0,0.0,0.0,0.0,0.0,0.0,0.0,0.0,0.0,0.0,0.0,0.0,0.0,0.0,0.0,0.0,0.0,0.0,0.0,0.0,0.0,0.0,0.0,0.0,0.0,0.0,0.0,0.0,0.0,0.0,0.0,0.0,0.0,0.0,0.0,0.0,0.0,0.0,0.0,0.0,-3.8277,-4.0623,-4.5133,-4.5594,-4.5594,-4.5594,-4.3671,-4.0528,-3.5914,-3.1953,0.0,0.0,0.0,0.0,0.0,0.0,0.0,0.0,0.0,0.0,0.0,0.0,0.0,0.0,0.0,0.0,0.0,0.0,0.0,0.0,0.0,0.0,0.0,0.0,0.0,0.0,0.0,0.0,0.0,0.0,0.0,0.0,0.0,0.0,0.0,0.0,0.0,0.0,0.0,0.0,0.0,0.0,0.0,0.0,0.0,0.0,0.0,0.0,0.0,0.0,0.0,0.0,0.0,0.0,0.0,0.0,0.0,0.0,0.0,0.0,0.0,0.0,0.0,0.0,0.0,0.0,0.0,0.0,0.0,0.0,0.0,0.0,0.0,0.0,0.0,0.0,0.0,0.0,0.0,0.0,0.0,0.0,0.0,0.0,0.0,0.0,0.0,0.0,0.0,0.0,0.0,0.0,0.0,0.0,0.0,0.0,0.0,0.0,0.0,0.0,0.0,0.0,-3.9115,-4.2585,-4.5325,-4.5594,-4.5594,-4.5594,-4.202,-3.8624,-3.5879,-3.0311,0.0,0.0,0.0,0.0,0.0,0.0,0.0,0.0,0.0,0.0,0.0,0.0,0.0,0.0,0.0,0.0,0.0,0.0,0.0,0.0,0.0,0.0,0.0,0.0,0.0,0.0,0.0,0.0,0.0,0.0,0.0,0.0,0.0,0.0,0.0,0.0,0.0,0.0,0.0,0.0,0.0,0.0,0.0,0.0,0.0,0.0,0.0,0.0,0.0,0.0,0.0,0.0,0.0,0.0,0.0,0.0,0.0,0.0,0.0,0.0,0.0,0.0,0.0,0.0,0.0,0.0,0.0,0.0,0.0,0.0,0.0,0.0,0.0,0.0,0.0,0.0,0.0,0.0,0.0,0.0,0.0,0.0,0.0,0.0,0.0,0.0,0.0,0.0,0.0,0.0,0.0,0.0,0.0,0.0,0.0,0.0,0.0,0.0,0.0,0.0,0.0,0.0,-3.8277,-4.1623,0.0,-4.5594,-4.5594,-4.5594,-4.2801,-3.9524,-3.5944,0.0,0.0,0.0,0.0,0.0,0.0,0.0,0.0,0.0,0.0,0.0,0.0,0.0,0.0,0.0,0.0,0.0,0.0,0.0,0.0,0.0,0.0,0.0,0.0,0.0,0.0,0.0,0.0,0.0,0.0,0.0,0.0,0.0,0.0,0.0,0.0,0.0,0.0,0.0,0.0,0.0,0.0,0.0,0.0,0.0,0.0,0.0,0.0,0.0,0.0,0.0,0.0,0.0,0.0,0.0,0.0,0.0,0.0,0.0,0.0,0.0,0.0,0.0,0.0,0.0,0.0,0.0,0.0,0.0,0.0,0.0,0.0,0.0,0.0,0.0,0.0,0.0,0.0,0.0,0.0,0.0,0.0,0.0,0.0,0.0,0.0,0.0,0.0,0.0,0.0,0.0,0.0,0.0,0.0,0.0,0.0,0.0,0.0,0.0,0.0,0.0,0.0,-3.4866,-3.843,-4.1824,0.0,-4.5594,-4.5594,-4.5594,-4.263,-3.9315,-3.5905,0.0,0.0,0.0,0.0,0.0,0.0,0.0,0.0,0.0,0.0,0.0,0.0,0.0,0.0,0.0,0.0,0.0,0.0,0.0,0.0,0.0,0.0,0.0,0.0,0.0,0.0,0.0,0.0,0.0,0.0,0.0,0.0,0.0,0.0,0.0,0.0,0.0,0.0,0.0,0.0,0.0,0.0,0.0,0.0,0.0,0.0,0.0,0.0,0.0,0.0,0.0,0.0,0.0,0.0,0.0,0.0,0.0,0.0,0.0,0.0,0.0,0.0,0.0,0.0,0.0,0.0,0.0,0.0,0.0,0.0,0.0,0.0,0.0,0.0,0.0,0.0,0.0,0.0,0.0,0.0,0.0,0.0,0.0,0.0,0.0,0.0,0.0,0.0,0.0,0.0,0.0,0.0,0.0,0.0,0.0,0.0,0.0,0.0,0.0,0.0,0.0,0.0,-3.5065,-3.9969,-4.3739,-4.5441,-4.5594,-4.5594,-4.5594,-4.1005,-3.7423,0.0,0.0,0.0,0.0,0.0,0.0,0.0,0.0,0.0,0.0,0.0,0.0,0.0,0.0,0.0,0.0,0.0,0.0,0.0,0.0,0.0,0.0,0.0,0.0,0.0,0.0,0.0,0.0,0.0,0.0,0.0,0.0,0.0,0.0,0.0,0.0,0.0,0.0,0.0,0.0,0.0,0.0,0.0,0.0,0.0,0.0,0.0,0.0,0.0,0.0,0.0,0.0,0.0,0.0,0.0,0.0,0.0,0.0,0.0,0.0,0.0,0.0,0.0,0.0,0.0,0.0,0.0,0.0,0.0,0.0,0.0,0.0,0.0,0.0,0.0,0.0,0.0,0.0,0.0,0.0,0.0,0.0,0.0,0.0,0.0,0.0,0.0,0.0,0.0,0.0,0.0,0.0,0.0,0.0,0.0,0.0,0.0,0.0,0.0,0.0,0.0,0.0,0.0,-3.5151,-3.9991,-4.3739,-4.5441,-4.5594,-4.5364,-4.4739,-4.1663,-3.8344,-3.5008,0.0,0.0,0.0,0.0,0.0,0.0,0.0,0.0,0.0,0.0,0.0,0.0,0.0,0.0,0.0,0.0,0.0,0.0,0.0,0.0,0.0,0.0,0.0,0.0,0.0,0.0,0.0,0.0,0.0,0.0,0.0,0.0,0.0,0.0,0.0,0.0,0.0,0.0,0.0,0.0,0.0,0.0,0.0,0.0,0.0,0.0,0.0,0.0,0.0,0.0,0.0,0.0,0.0,0.0,0.0,0.0,0.0,0.0,0.0,0.0,0.0,0.0,0.0,0.0,0.0,0.0,0.0,0.0,0.0,0.0,0.0,0.0,0.0,0.0,0.0,0.0,0.0,0.0,0.0,0.0,0.0,0.0,0.0,0.0,0.0,0.0,0.0,0.0,0.0,0.0,0.0,0.0,0.0,0.0,0.0,0.0,0.0,0.0,0.0,0.0,0.0,0.0,-3.5133,-3.9976,-4.3739,-4.5441,-4.5594,-4.5402,-4.4855,-4.247,-3.9248,-3.5151,0.0,0.0,0.0,0.0,0.0,0.0,0.0,0.0,0.0,0.0,0.0,0.0,0.0,0.0,0.0,0.0,0.0,0.0,0.0,0.0,0.0,0.0,0.0,0.0,0.0,0.0,0.0,0.0,0.0,0.0,0.0,0.0,0.0,0.0,0.0,0.0,0.0,0.0,0.0,0.0,0.0,0.0,0.0,0.0,0.0,0.0,0.0,0.0,0.0,0.0,0.0,0.0,0.0,0.0,0.0,0.0,0.0,0.0,0.0,0.0,0.0,0.0,0.0,0.0,0.0,0.0,0.0,0.0,0.0,0.0,0.0,0.0,0.0,0.0,0.0,0.0,0.0,0.0,0.0,0.0,0.0,0.0,0.0,0.0,0.0,0.0,0.0,0.0,0.0,0.0,0.0,0.0,0.0,0.0,0.0,0.0,0.0,0.0,0.0,0.0,0.0,0.0,-3.5194,-4.0054,-4.3816,-4.5441,-4.5594,-4.5556,-4.5479,-4.3239,-4.006,-3.5952,0.0,0.0,0.0,0.0,0.0,0.0,0.0,0.0,0.0,0.0,0.0,0.0,0.0,0.0,0.0,0.0,0.0,0.0,0.0,0.0,0.0,0.0,0.0,0.0,0.0,0.0,0.0,0.0,0.0,0.0,0.0,0.0,0.0,0.0,0.0,0.0,0.0,0.0,0.0,0.0,0.0,0.0,0.0,0.0,0.0,0.0,0.0,0.0,0.0,0.0,0.0,0.0,0.0,0.0,0.0,0.0,0.0,0.0,0.0,0.0,-3.4203,-3.2344,0.0,0.0,0.0,0.0,0.0,0.0,0.0,0.0,0.0,0.0,0.0,0.0,0.0,0.0,0.0,0.0,0.0,0.0,0.0,0.0,0.0,0.0,0.0,0.0,0.0,0.0,0.0,0.0,0.0,0.0,0.0,0.0,0.0,0.0,0.0,0.0,0.0,0.0,0.0,0.0,-3.6182,-4.0915,-4.4432,-4.5479,-4.5594,-4.5325,-4.4624,-4.2854,-4.0292,-3.6752,-3.2599,0.0,0.0,0.0,0.0,0.0,0.0,0.0,0.0,0.0,0.0,0.0,0.0,0.0,0.0,0.0,0.0,0.0,0.0,0.0,0.0,0.0,0.0,0.0,0.0,0.0,0.0,0.0,0.0,0.0,0.0,0.0,0.0,0.0,0.0,0.0,0.0,0.0,0.0,0.0,0.0,0.0,0.0,0.0,0.0,0.0,0.0,0.0,0.0,0.0,0.0,0.0,0.0,0.0,0.0,0.0,0.0,0.0,0.0,0.0,-3.8877,-3.6816,0.0,0.0,0.0,0.0,0.0,0.0,0.0,0.0,0.0,0.0,0.0,0.0,0.0,0.0,0.0,0.0,0.0,0.0,0.0,0.0,0.0,0.0,0.0,0.0,0.0,0.0,0.0,0.0,0.0,0.0,0.0,0.0,0.0,0.0,0.0,0.0,0.0,0.0,0.0,0.0,-3.6447,-4.1162,-4.4624,-4.5518,-4.5594,-4.5441,-4.4979,-4.3393,-4.1147,-3.8176,-3.4438,0.0,0.0,0.0,0.0,0.0,0.0,0.0,0.0,0.0,0.0,0.0,0.0,0.0,0.0,0.0,0.0,0.0,0.0,0.0,0.0,0.0,0.0,0.0,0.0,0.0,0.0,0.0,0.0,0.0,0.0,0.0,0.0,0.0,0.0,0.0,0.0,0.0,0.0,0.0,0.0,0.0,0.0,0.0,0.0,0.0,0.0,0.0,0.0,0.0,0.0,0.0,0.0,0.0,-4.5881,-4.6715,-4.7256,-4.7494,-4.8367,-4.9394,-4.4465,-4.2599,-4.2679,-3.8853,0.0,0.0,0.0,0.0,0.0,0.0,0.0,0.0,0.0,0.0,0.0,0.0,0.0,0.0,0.0,0.0,0.0,0.0,0.0,0.0,0.0,0.0,-3.8046,-3.848,-3.9498,-3.9251,-3.5331,0.0,0.0,0.0,0.0,0.0,0.0,0.0,0.0,0.0,0.0,0.0,-3.7053,-4.1546,-4.4778,-4.5518,-4.5594,-4.5594,-4.5594,-4.4047,-4.2124,-3.9892,-3.6434,-3.2855,0.0,0.0,0.0,0.0,0.0,0.0,0.0,0.0,0.0,0.0,0.0,0.0,0.0,0.0,0.0,0.0,0.0,0.0,0.0,0.0,0.0,0.0,0.0,0.0,0.0,0.0,0.0,0.0,0.0,0.0,0.0,0.0,-3.029,-3.1971,0.0,0.0,0.0,0.0,0.0,0.0,0.0,0.0,0.0,0.0,0.0,0.0,0.0,-4.5393,-4.6778,-5.0048,-5.1395,-5.0769,-5.3107,-5.3897,-5.3358,-5.4072,-5.4554,-5.4708,-5.3918,0.0,-4.6372,-4.4268,0.0,0.0,0.0,0.0,0.0,0.0,0.0,0.0,0.0,0.0,0.0,0.0,0.0,0.0,0.0,0.0,0.0,0.0,0.0,0.0,0.0,0.0,-4.2886,-4.2959,-4.2333,-4.1554,-4.0936,-3.7467,-3.3823,-3.1579,-3.0199,-2.8798,0.0,0.0,0.0,0.0,0.0,0.0,-3.9654,-4.317,-4.5479,-4.5594,-4.5594,-4.5594,-4.5594,-4.4047,-4.2624,-4.1546,-3.7591,-3.4757,-3.341,-2.9738,0.0,0.0,0.0,0.0,0.0,0.0,0.0,0.0,0.0,0.0,0.0,0.0,0.0,0.0,0.0,0.0,0.0,0.0,0.0,0.0,0.0,0.0,0.0,0.0,0.0,0.0,0.0,0.0,0.0,-3.0064,-3.2893,-3.3599,-3.4218,-3.4084,0.0,0.0,0.0,0.0,0.0,0.0,0.0,0.0,0.0,-4.6547,-4.874,-5.0471,-5.1664,-5.4126,-5.5126,-5.478,-5.6395,-5.6973,-5.6665,-5.7011,-5.7165,-5.7165,-5.7165,-5.546,-5.2451,-4.9328,-4.5996,-4.2749,0.0,0.0,0.0,0.0,-3.9507,-3.9315,-4.1262,-4.1687,-4.1184,-4.016,0.0,0.0,0.0,0.0,0.0,0.0,0.0,-3.8977,-4.066,-4.241,-4.3992,-4.5025,-4.4505,-4.3735,-4.3571,-4.1067,-3.8025,-3.5143,-3.4513,-3.3277,-2.9627,-2.977,0.0,0.0,0.0,-3.8307,-4.0662,-4.3494,-4.54,-4.5577,-4.5594,-4.5594,-4.5594,-4.4047,-4.2931,-4.2547,-3.9469,-3.7007,-3.5661,-3.2934,-3.0003,0.0,0.0,0.0,0.0,0.0,0.0,0.0,0.0,0.0,0.0,0.0,0.0,0.0,0.0,0.0,0.0,0.0,0.0,0.0,0.0,0.0,0.0,0.0,0.0,0.0,0.0,0.0,0.0,-3.346,-3.5726,-3.6098,-3.7668,-3.7984,0.0,0.0,0.0,0.0,0.0,0.0,-4.5318,-4.7601,-4.9625,-5.1279,-5.3395,-5.4934,-5.578,-5.7253,-5.7984,-5.7984,-5.8627,-5.8934,-5.8934,-5.8934,-5.8934,-5.8934,-5.8934,-5.8434,-5.7368,-5.3559,-5.025,-4.7412,-4.5973,-4.4492,-4.3256,-4.4631,-4.4677,-4.4432,-4.7009,-4.7386,-4.6519,-4.4852,-4.3758,-4.251,-3.9515,0.0,0.0,0.0,0.0,-4.0705,-4.3122,-4.4087,-4.4713,-4.6088,-4.5897,-4.5288,-4.5073,-4.3813,-4.1779,-3.8742,-3.8449,-3.7412,-3.3315,-3.3426,0.0,-3.3922,-3.67,-3.9559,-4.1543,-4.3661,-4.5055,-4.5303,-4.5419,-4.5457,-4.5457,-4.4013,-4.3085,-4.3085,-4.07,-3.8623,-3.7084,-3.543,-3.2771,-2.9012,0.0,0.0,0.0,0.0,0.0,0.0,0.0,0.0,0.0,0.0,0.0,0.0,0.0,0.0,0.0,0.0,0.0,0.0,0.0,0.0,0.0,0.0,0.0,0.0,0.0,0.0,0.0,0.0,0.0,-4.1239,-4.2901,0.0,0.0,0.0,0.0,-4.388,-4.7027,-4.9634,-5.1356,-5.3164,-5.4895,-5.656,-5.755,-5.8434,-5.9242,-6.0165,-6.0589,-6.0589,-6.0666,-6.0666,-6.0666,-6.0666,-6.0666,-6.0666,-6.0666,-6.0165,-5.9165,-5.6511,-5.4395,-5.2741,-5.1818,-5.0933,-5.0212,-5.0298,-5.0289,-5.0289,-5.0442,-5.004,-4.9482,-5.0073,-4.8103,-4.5512,-4.5566,-4.4314,0.0,0.0,-4.5541,-4.6096,-4.7026,-4.6773,-4.6307,-4.6387,-4.6146,-4.5883,-4.5847,-4.4763,-4.3483,-4.2255,-4.0834,-3.9496,-3.8447,0.0,-3.7602,-3.8606,-3.9642,-4.1009,-4.2938,-4.402,-4.4637,-4.4663,-4.4931,-4.5137,-4.5137,-4.3876,-4.3085,-4.3085,-4.07,-3.8892,-3.7969,-3.6308,-3.4239,-3.1753,-2.8437,0.0,0.0,0.0,0.0,0.0,0.0,0.0,0.0,0.0,0.0,0.0,0.0,0.0,0.0,0.0,0.0,0.0,0.0,0.0,0.0,0.0,0.0,0.0,0.0,0.0,0.0,0.0,0.0,-4.4885,-4.6547,0.0,-4.5547,-4.6971,-4.8317,-4.9125,-5.1356,-5.3395,-5.5088,-5.6319,-5.7473,-5.855,-5.9435,-6.005,-6.0319,-6.0627,-6.0781,-6.0781,-6.0781,-6.0781,-6.0781,-6.0781,-6.0781,-6.0781,-6.0781,-6.0627,-6.0281,-5.9358,-5.7665,-5.5588,-5.528,-5.4664,-5.3857,-5.3318,-5.3164,-5.3049,-5.251,-5.2136,-5.1797,-5.1009,-4.9642,-4.8177,-4.7662,-4.7042,-4.6537,-4.6781,-4.6942,-4.716,-4.7532,-4.7414,-4.7309,-4.7571,-4.7132,-4.6672,-4.6672,-4.5901,-4.5058,-4.4673,-4.3032,-4.1231,-3.9742,-4.0084,-4.0352,-3.9696,-4.0745,-4.2119,-4.3586,-4.4017,-4.4304,-4.4585,-4.4896,-4.5115,-4.5115,-4.3866,-4.2854,-4.2316,-4.0392,-3.8661,-3.7238,-3.6077,-3.4326,-3.1878,-3.0143,-2.7454,0.0,0.0,0.0,0.0,0.0,0.0,0.0,0.0,0.0,0.0,0.0,0.0,0.0,0.0,0.0,0.0,0.0,0.0,0.0,0.0,0.0,0.0,0.0,0.0,0.0,-4.3134,-4.624,-4.7971,-4.9933,-5.0779,-4.9894,-5.1625,-5.3049,-5.3587,-5.5203,-5.6665,-5.778,-5.8665,-5.9396,-5.9935,-6.0512,-6.0781,-6.0781,-6.0781,-6.0781,-6.0781,-6.0781,-6.0781,-6.0781,-6.0781,-6.0781,-6.0781,-6.0781,-6.0781,-6.0781,-6.0781,-5.9819,-5.8253,-5.7973,-5.7319,-5.6511,-5.5972,-5.5588,-5.5164,-5.4049,-5.3626,-5.3435,-5.2119,-5.133,-5.0685,-4.9684,-4.9363,-4.9134,-4.8398,-4.8073,-4.7985,-4.8061,-4.7981,-4.7975,-4.8216,-4.7902,-4.748,-4.748,-4.6856,-4.6324,-4.6324,-4.471,-4.2978,-4.1722,-4.2176,-4.2323,-4.1258,-4.2029,-4.2991,-4.3712,-4.3818,-4.3927,-4.4213,-4.4521,-4.4775,-4.4919,-4.3425,-4.2424,-4.2231,-4.0123,-3.82,-3.6769,-3.5923,-3.4346,-3.1869,-3.0447,-2.8207,-2.5081,0.0,0.0,0.0,0.0,0.0,0.0,0.0,0.0,0.0,0.0,0.0,0.0,0.0,0.0,0.0,0.0,0.0,0.0,0.0,0.0,0.0,0.0,0.0,-4.3256,-4.6163,-4.8933,-5.0635,-5.3087,-5.428,-5.3433,-5.5588,-5.7099,-5.7099,-5.8588,-5.955,-5.955,-6.0319,-6.0781,-6.0781,-6.0781,-6.0781,-6.0781,-6.0781,-6.0781,-6.0781,-6.0781,-6.0781,-6.0781,-6.0781,-6.0781,-6.0769,-6.0769,-6.0769,-6.0757,-6.0757,-6.0757,-6.0681,-5.9846,-5.905,-5.8357,-5.8346,-5.7758,-5.6758,-5.5105,-5.4528,-5.4416,-5.3649,-5.3299,-5.2979,-5.1864,-5.1414,-5.1066,-4.9892,-4.9277,-4.8952,-4.8898,-4.8586,-4.8306,-4.8306,-4.8306,-4.8306,-4.8306,-4.77,-4.7149,-4.7149,-4.5865,-4.4764,-4.4709,-4.4011,-4.3515,-4.3515,-4.3515,0.0,-4.3515,-4.3515,-4.3515,-4.3515,-4.3786,-4.4161,-4.4585,-4.2595,-4.182,-4.2953,-3.9854,-3.7623,-3.6731,-3.5885,-3.4307,-3.1869,-2.9433,-2.7728,-2.6788,0.0,0.0,0.0,0.0,0.0,0.0,0.0,0.0,0.0,0.0,0.0,0.0,0.0,0.0,0.0,0.0,0.0,0.0,0.0,0.0,0.0,-4.3883,-4.6737,-4.674,-5.0202,-5.3126,-5.4203,-5.6049,-5.7165,-5.6934,-5.805,-5.8819,-5.8819,-5.9819,-6.0435,-6.0435,-6.0666,-6.0781,-6.0781,-6.0781,-6.0781,-6.0781,-6.0781,-6.0781,-6.0781,-6.0781,-6.0781,-6.0781,-6.0781,-6.0622,-6.0297,-6.0297,-6.0103,-5.9792,-5.9792,-5.9792,-5.9817,-6.0252,-6.0319,-5.9988,-5.9013,-5.7925,-5.6785,-5.5738,-5.5359,-5.516,-5.3726,-5.3242,-5.3006,-5.2082,-5.1746,-5.1624,-5.0991,-5.0325,-4.9723,-4.9455,-4.8862,-4.8306,-4.8306,-4.8306,-4.8306,-4.8306,-4.8122,-4.7957,-4.7957,-4.7149,-4.6049,-4.4911,-4.4011,-4.3515,-4.3515,-4.3515,-4.3515,-4.3515,-4.3515,-4.3515,-4.3515,-4.3786,-4.4161,-4.4585,-4.31,-4.1896,-4.1269,-3.92,-3.7623,-3.6731,-3.5315,-3.3697,-3.183,-3.1181,-3.0062,0.0,0.0,0.0,0.0,0.0,0.0,0.0,0.0,0.0,0.0,0.0,0.0,0.0,0.0,0.0,0.0,0.0,0.0,0.0,0.0,0.0,0.0,-4.7824,-5.0894,-5.1241,-5.3433,-5.5549,-5.7126,-5.8204,-5.8934,-5.9319,-5.9781,-6.005,-6.005,-6.0512,-6.0781,-6.0781,-6.1127,-6.1331,-6.1331,-6.1666,-6.1858,-6.1858,-6.1858,-6.1858,-6.1858,-6.1512,-6.1331,-6.132,-6.0763,-6.0351,-6.0103,-5.9885,-5.9642,-5.9389,-5.9389,-5.9389,-5.9441,0.0,0.0,0.0,0.0,-5.8024,-5.7301,-5.6472,-5.5961,-5.5524,-5.4565,-5.4,-5.3569,-5.251,-5.2198,-5.2023,-5.1306,-5.075,-5.0287,-4.9762,-4.9243,-4.8746,-4.8379,-4.8306,-4.8306,-4.8306,-4.8306,-4.8306,-4.8306,-4.7626,0.0,-4.5865,-4.4782,-4.3901,-4.3551,-4.3515,-4.3515,-4.3515,-4.3515,-4.3515,-4.3515,-4.3786,-4.4161,-4.4585,-4.3289,0.0,0.0,0.0,-3.7853,-3.6269,-3.4891,0.0,0.0,0.0,0.0,0.0,-3.2348,0.0,0.0,-3.0006,-3.016,0.0,0.0,0.0,0.0,0.0,0.0,0.0,0.0,0.0,0.0,0.0,0.0,0.0,0.0,0.0,0.0,-5.151,-5.4972,-5.5972,-5.6126,-5.6973,-5.9242,-5.9588,-5.9935,-6.0704,-6.0781,-6.0781,-6.0781,-6.0781,-6.0819,-6.0935,-6.1678,0.0,0.0,0.0,-6.3308,-6.3308,-6.3308,-6.3308,-6.3269,-6.2589,-6.2154,-6.2002,-6.0808,-6.0135,-5.9916,-5.9492,-5.9284,-5.923,-5.923,-5.923,-5.9248,-5.9354,-5.9354,-5.9244,-5.8455,-5.8119,-5.7991,-5.7183,0.0,0.0,-5.5563,-5.4999,-5.4159,-5.3011,-5.2679,-5.2438,-5.1383,-5.1022,-5.0765,-5.0051,-4.9794,-4.9537,-4.8636,-4.8453,-4.8416,-4.8343,-4.8306,-4.8306,-4.8306,-4.77,-4.7223,-4.7113,-4.5755,-4.4452,-4.3718,-4.3551,-4.3515,-4.3515,-4.3515,-4.3515,-4.3515,-4.3786,0.0,-4.4585,-4.3403,-4.2775,-4.3069,-4.0777,-3.8354,-3.5885,-3.5122,-3.4667,-3.4475,-3.459,-3.5315,-3.6692,-3.6808,-3.6885,-3.6885,-3.3038,-3.2846,0.0,0.0,0.0,0.0,0.0,0.0,0.0,0.0,0.0,0.0,0.0,0.0,0.0,0.0,0.0,-5.0394,-5.3472,-5.6242,-5.8434,-5.8781,-5.8934,-5.9435,-6.0127,-6.0589,-6.0781,-6.0781,-6.0781,-6.0781,-6.0781,-6.1089,-6.1831,-6.2024,-6.2397,-6.3051,-6.3243,-6.3308,-6.3308,-6.3308,-6.3308,-6.3308,-6.3128,0.0,-6.153,-6.1268,-6.0373,-5.8971,-5.8874,-5.8632,-5.8282,-5.8282,-5.8282,-5.8332,-5.9084,-5.9158,-5.8798,-5.8629,-5.8368,-5.7891,-5.7094,-5.6304,-5.5491,-5.4864,-5.4125,-5.3404,-5.3154,-5.3077,0.0,-5.2805,-5.227,-5.172,-5.1593,-5.1059,-5.0362,-4.9537,-4.9353,-4.917,-4.8453,-4.8306,-4.8306,-4.8306,-4.8196,-4.7846,-4.7223,-4.5755,-4.4654,-4.4488,-4.3901,-4.3515,-4.3515,-4.3515,-4.3515,-4.3515,-4.3786,-4.4161,-4.4585,-4.3946,-4.3425,-4.3107,-4.1324,-3.9438,-3.7584,-3.8046,-3.7661,-3.6238,-3.6892,-3.7084,-3.6692,-3.743,-3.8123,-3.8738,-3.7238,-3.6507,0.0,0.0,0.0,0.0,0.0,0.0,0.0,0.0,0.0,0.0,0.0,-4.1987,0.0,0.0,-5.0894,-5.3395,-5.5934,-5.805,-5.9319,-5.9896,-6.0165,-6.0165,-6.0512,-6.0781,-6.0781,-6.0781,-6.0781,-6.0781,-6.1204,-6.1639,-6.2101,-6.2897,-6.3551,-6.3935,-6.4359,-6.4589,-6.4589,-6.4589,-6.4589,-6.4589,-6.3909,-6.3231,-6.2582,-6.1258,-6.0173,-5.9289,-5.8646,-5.8194,-5.7997,-5.7997,-5.7997,-5.8065,-5.8545,-5.8549,-5.8332,-5.8332,-5.8194,-5.7923,-5.7556,-5.6859,-5.6051,-5.5244,-5.4473,-5.3739,-5.3314,-5.3203,-5.3203,-5.3203,-5.2931,-5.2527,-5.2087,-5.1683,-5.1206,-5.0398,-5.0006,-4.9751,-4.9289,-4.89,-4.8676,-4.8864,-4.8568,-4.8235,-4.805,-4.6855,-4.5608,-4.4801,-4.4378,-4.3975,-4.3551,-4.3515,-4.3515,-4.3515,-4.3974,-4.4373,-4.4599,-4.4271,-4.3952,-4.3731,-4.2508,-4.1239,-3.9969,-4.0315,-4.0123,-3.9269,-3.9238,-3.9238,-3.9231,-3.97,-4.0123,-4.0546,-4.0546,-4.0085,0.0,0.0,0.0,0.0,0.0,0.0,0.0,0.0,-4.0223,-4.1436,-4.3943,-4.6538,-4.8691,-5.1625,-5.4241,-5.5934,-5.805,-5.955,-5.9742,-6.0358,-6.0781,-6.0781,-6.0781,-6.0781,-6.0781,-6.0781,-6.0781,-6.0781,-6.1601,-6.2178,-6.232,-6.3782,-6.4666,-6.4859,-6.5513,-6.5897,-6.5897,-6.5897,-6.5897,-6.5897,-6.4647,-6.3908,-6.3568,-6.1242,-6.0008,-5.9696,-5.8496,-5.7997,-5.7997,-5.7997,-5.7997,-5.7997,-5.7997,-5.7997,-5.7997,-5.7997,-5.7997,-5.7997,-5.7997,-5.7483,-5.6712,-5.6051,-5.517,-5.4289,-5.3628,-5.3314,-5.3203,-5.3203,-5.3203,-5.3078,-5.2417,-5.2279,-5.214,-5.133,-5.0935,-5.0637,-5.0301,-4.972,-4.9279,-4.9378,-4.8864,-4.8477,-4.8744,-4.7978,-4.6782,-4.5186,-4.4819,-4.4415,-4.3625,-4.3515,-4.3515,-4.3515,-4.4169,-4.4663,-4.48,-4.4661,-4.447,-4.4316,-4.3701,-4.297,-4.2085,-4.2038,-4.2038,-4.2038,-4.1354,-4.1354,-4.2038,-4.2038,-4.2038,-4.2085,-4.2777,-4.2739,-3.4219,-3.4961,-3.6211,-3.7773,-3.8242,-3.9842,0.0,0.0,-4.6059,-4.8929,-5.0441,-5.1531,-5.2473,-5.4164,-5.5972,-5.7742,-5.8858,-5.9781,-6.055,-6.0742,-6.0781,-6.0781,-6.0781,-6.0781,-6.0781,-6.0781,-6.0781,-6.0781,-6.1601,-6.2397,-6.3128,-6.4089,-6.4936,-6.5743,-6.5859,-6.5897,-6.5897,-6.5897,-6.5897,-6.5897,-6.5259,-6.4334,-6.314,-6.1704,-6.0373,-5.9228,-5.835,-5.7997,-5.7997,-5.7997,-5.7997,-5.7997,-5.7997,-5.7997,-5.7997,-5.7997,-5.7997,-5.7997,-5.7997,-5.7483,-5.6785,-5.6712,-5.5647,-5.4363,-5.4289,-5.3775,-5.3203,-5.3203,-5.3203,-5.3167,-5.3115,-5.3316,-5.3405,-5.2586,-5.264,-5.246,-5.1043,-5.0666,-5.0274,-4.9176,-4.8878,-4.8727,-4.8421,-4.8271,-4.7609,-4.5993,-4.5149,-4.4415,-4.3625,-4.3515,-4.3515,-4.3515,-4.4169,-4.4849,-4.5438,-4.5482,-4.5133,-4.4355,-4.4201,-4.3816,-4.3008,-4.297,-4.297,-4.297,-4.2854,-4.2854,-4.297,-4.297,-4.297,-4.297,-4.3047,-4.3047,-4.0156,-4.0586,-4.1016,0.0,-4.4525,-4.5908,-4.8733,-4.9495,-4.9969,-5.1276,-5.258,-5.3591,-5.3916,-5.5742,-5.7434,0.0,-5.9396,-6.0396,-6.0742,-6.0781,-6.0589,-6.0089,-6.0473,-6.0781,-6.0781,-6.0781,-6.0781,-6.0781,-6.205,-6.2935,-6.3269,-6.4628,-6.5513,-6.5897,-6.5897,-6.5897,-6.5897,-6.5583,-6.5432,-6.5432,-6.4626,-6.3931,-6.3334,-6.2012,-6.0642,-5.9148,-5.8364,-5.7997,-5.7997,-5.7997,-5.7997,-5.8042,-5.8304,-5.8397,-5.8354,-5.8097,-5.7997,-5.7997,-5.7997,-5.7776,-5.7409,-5.6969,-5.6345,-5.5611,-5.4693,-5.4179,-5.3812,-5.3335,-5.338,-5.3546,-5.3546,-5.3888,-5.4129,-5.3808,-5.3641,-5.3352,-5.2683,-5.1771,-5.1,-5.071,-4.9877,-4.9265,-4.9341,-4.8945,-4.825,-4.712,-4.6063,-4.5112,-4.4305,-4.3791,-4.3681,-4.4095,-4.4574,-4.5066,-4.5568,-4.5594,-4.5441,-4.5094,-4.5056,-4.4902,-4.4547,-4.4547,-4.4547,-4.4547,-4.4047,-4.3816,-4.3816,-4.3816,-4.3816,-4.3816,-4.4316,-4.4547,-4.3398,-4.4375,0.0,-4.7148,-4.9124,-5.0675,-5.0885,-5.1886,-5.2856,-5.3069,-5.4015,-5.4895,-5.5164,-5.6703,-5.8088,-5.855,-5.9665,-6.0512,-6.0781,-6.0589,-6.0281,-5.9896,-6.0204,-6.055,-6.0781,-6.0781,-6.0781,-6.0781,-6.2358,-6.3308,-6.3308,-6.4936,-6.5897,-6.5897,-6.5897,-6.5897,-6.5897,-6.5388,-6.5099,-6.5099,-6.4079,-6.3609,-6.3571,-6.1956,-6.0529,-5.9148,-5.8364,-5.7997,-5.7997,-5.7997,-5.7997,-5.8065,-5.8545,-5.8713,-5.8693,-5.8482,-5.8304,-5.815,-5.8029,-5.7997,-5.7886,-5.7336,-5.6969,-5.6602,-5.5427,-5.4837,-5.4449,-5.3859,-5.383,-5.3995,-5.3995,-5.4338,-5.4655,-5.4655,-5.449,-5.4243,-5.4052,-5.3032,-5.2097,-5.1798,-5.0811,-4.9952,-4.9779,-4.9295,-4.8658,-4.7964,-4.6909,-4.5883,-4.4838,-4.4078,-4.3902,-4.4546,-4.4896,-4.5232,-4.5568,-4.5594,-4.5594,-4.5594,-4.5594,-4.5594,-4.5594,-4.5594,-4.5594,-4.5594,-4.4979,-4.4662,-4.4662,-4.4662,-4.4662,-4.4662,-4.5325,-4.5594,-4.1719,0.0,-4.75,-4.7578,-5.0023,-5.2614,-5.3327,-5.4064,-5.4796,-5.5458,-5.5637,-5.5934,-5.6791,-5.6983,-5.755,-5.9204,-5.9511,-5.9819,-6.0666,-6.0089,-5.9858,-6.0666,-6.005,-5.9858,-6.0704,-6.0781,-6.0781,-6.0781,-6.2358,-6.3308,-6.3308,-6.4936,-6.5897,-6.5897,-6.5897,-6.5897,-6.5897,-6.5388,-6.5099,-6.5099,-6.4079,-6.3609,-6.3534,-6.1403,-5.9979,-5.9148,-5.8364,-5.7997,-5.7997,-5.7997,-5.7997,-5.8065,-5.8545,-5.8713,-5.8736,-5.9176,-5.9047,-5.8611,-5.8164,-5.7997,-5.7997,-5.796,-5.7446,-5.6785,-5.6748,-5.5902,-5.4987,-5.495,-5.4718,-5.4468,-5.4468,-5.4775,-5.5094,-5.5094,-5.5361,-5.5423,-5.4654,-5.4423,-5.3772,-5.1723,-5.1268,-5.0745,-4.9188,-4.8895,-4.8761,-4.8328,-4.7609,-4.6489,-4.4911,-4.4272,-4.4132,-4.4572,-4.4896,-4.5232,-4.5568,-4.5594,-4.5594,-4.5594,-4.5594,-4.5594,-4.5594,-4.5594,-4.5594,-4.5594,-4.5556,-4.5556,-4.5556,-4.5556,-4.5556,-4.5556,-4.5594,-4.5594,-4.582,0.0,-4.9726,-5.1406,-5.2967,-5.4329,-5.5146,-5.5335,-5.5267,-5.4955,-5.4434,-5.3933,-5.3664,-5.4549,-5.5703,-5.678,-5.8396,-5.9819,-6.0666,-6.055,-6.0242,-5.9973,-6.0204,0.0,0.0,-6.0473,-6.0781,-6.0781,-6.2358,-6.3308,-6.3308,-6.4936,-6.5897,-6.5897,-6.5897,-6.5897,-6.5897,-6.5388,-6.4916,-6.4608,-6.3571,-6.3086,-6.3049,-6.1765,-6.075,-5.9942,-5.9171,-5.851,-5.7997,-5.7997,-5.8172,-5.8487,-5.899,-5.9354,-5.9625,-5.9823,-5.9776,-5.9543,-5.9065,-5.8932,-5.8932,-5.8932,-5.8745,-5.8427,-5.7903,-5.7453,-5.6882,-5.5792,-5.5615,-5.5627,-5.5042,-5.5199,-5.552,-5.552,-5.5599,-5.5626,-5.5357,-5.4895,-5.4297,-5.3547,-5.2265,-5.1129,-5.0589,-4.9618,-4.8761,-4.8382,-4.7168,-4.592,-4.4838,-4.4526,-4.4441,-4.4599,-4.5088,-4.5466,-4.5586,-4.5594,-4.5594,-4.5594,-4.5594,-4.5594,-4.5594,-4.5594,-4.5594,-4.5594,-4.5594,-4.5594,-4.5594,-4.5594,-4.5594,-4.5594,-4.5594,-4.5594,-4.8594,-5.0195,-5.1641,-5.3906,-5.4906,-5.5525,-5.6075,-5.5722,-5.5049,-5.4203,-5.3356,-5.2472,-5.1625,-5.2395,-5.3703,-5.5434,-5.7049,-5.8742,-6.055,-6.0512,-6.0242,-5.9973,-6.0165,-6.0242,0.0,0.0,0.0,-6.0781,-6.2358,-6.3308,-6.3308,-6.4936,-6.5897,-6.5897,-6.5897,-6.5897,-6.5897,-6.5388,-6.485,-6.437,-6.3702,-6.3248,-6.3073,-6.2224,-6.1332,-6.0382,-5.9551,-5.8767,-5.802,-5.8186,-5.8439,-5.8756,-5.9389,-5.9839,-6.0132,-6.0297,-6.0351,-6.0269,-5.9609,-5.9389,-5.9389,-5.9389,-5.9389,-5.9314,-5.8803,-5.8543,-5.8126,-5.6762,-5.6473,-5.641,-5.5529,-5.552,-5.5703,-5.5703,-5.5703,-5.5703,-5.5703,-5.5165,-5.4626,-5.4308,-5.2806,-5.1416,-5.0936,-4.9648,-4.8604,-4.8344,-4.7168,-4.603,-4.5223,-4.4935,-4.4766,-4.4636,-4.5077,-4.5457,-4.5586,-4.5594,-4.5594,-4.5594,-4.5594,-4.5594,-4.5594,-4.5594,-4.5594,-4.5594,-4.5594,-4.5594,-4.5594,-4.5594,-4.5594,-4.5594,-4.5594,-4.5594,-4.9922,-5.1601,-5.3242,-5.4922,-5.5803,-5.6197,-5.6163,-5.5273,-5.4185,-5.3233,-5.2309,-5.1385,0.0,0.0,-5.1645,-5.4906,-5.5626,-5.6934,-6.0319,-6.0089,-5.9858,0.0,0.0,0.0,0.0,0.0,0.0,-6.0935,-6.2397,-6.332,-6.3346,-6.4974,-6.5897,-6.5897,-6.5897,-6.5897,-6.5897,-6.5388,-6.4866,-6.4426,-6.4389,-6.4099,-6.3571,-6.2811,-6.1723,-6.0382,-5.9588,-5.8804,-5.8042,-5.8524,-5.8696,-5.8815,-5.976,-6.0118,-6.0175,-6.0634,-6.0781,-6.0659,-5.9792,-5.9458,-5.9458,-5.9458,-5.9458,-5.9458,-5.9458,-5.9207,-5.8744,-5.7929,-5.7391,-5.6868,-5.5972,-5.5742,-5.5703,-5.5703,-5.5703,-5.5703,-5.5692,-5.5375,-5.484,-5.4,-5.2836,-5.1575,-5.0308,-4.9104,-4.8306,-4.8344,-4.7645,-4.6856,-4.6067,-4.551,-4.5081,-4.4723,-4.4934,-4.5232,-4.5568,-4.5594,-4.5594,-4.5594,-4.5594,-4.5594,-4.5594,-4.5594,-4.5594,-4.5594,-4.5594,-4.5594,-4.5594,-4.5594,-4.5594,-4.5594,-4.5594,-4.5594,-5.2383,-5.3828,-5.4883,-5.6015,-5.6235,-5.6062,-5.5521,-5.4517,-5.3094,-5.103,-4.9427,-4.7727,0.0,0.0,0.0,-5.1655,-5.4636,0.0,-6.0396,-6.0589,0.0,-6.0781,0.0,-6.0819,-6.1678,-6.1793,0.0,-6.2627,-6.3051,-6.3589,-6.4243,-6.532,-6.5897,-6.5897,-6.5897,-6.5897,-6.5897,-6.5388,-6.5051,-6.49,-6.4554,-6.4099,-6.3571,-6.3407,-6.2242,-6.0382,-6.0199,-5.9318,-5.8042,-5.8524,-5.8913,-5.9266,-5.987,-6.0324,-6.0634,-6.0757,-6.0781,-6.0757,-6.0521,-6.0456,-6.0456,-6.0456,-6.0456,-6.0456,-6.0456,-6.0367,-6.0123,-5.9278,-5.8519,-5.778,-5.6907,-5.6214,-5.5703,-5.5703,-5.5703,-5.561,-5.5338,-5.5173,-5.495,-5.4436,-5.2817,-5.1232,-5.0256,-4.9104,-4.8383,-4.8692,-4.8329,-4.7719,-4.6892,-4.5864,-4.529,-4.5488,-4.5264,-4.5232,-4.5568,-4.5594,-4.5594,-4.5594,-4.5594,-4.5594,-4.5594,-4.5594,-4.5594,-4.5594,-4.5594,-4.5594,-4.5594,-4.5594,-4.5594,-4.5594,-4.5594,-4.5594,-5.4531,-5.5508,-5.6094,-5.6953,-5.6452,-5.5428,-5.4228,-5.2821,-5.0946,-4.8077,-4.6426,0.0,-4.253,-4.4576,0.0,0.0,0.0,0.0,-5.9819,-6.055,-6.0781,0.0,-6.1127,0.0,-6.2062,-6.2397,-6.2974,-6.382,-6.3858,-6.4089,-6.4589,-6.5436,-6.5897,-6.5897,-6.5897,-6.5897,-6.5897,-6.5583,-6.5446,-6.5446,-6.5184,-6.4681,-6.3954,-6.3954,-6.2671,-6.0419,-6.0419,-5.9605,-5.8332,-5.8815,-5.9284,-5.976,-6.0203,-6.0585,-6.0781,-6.0781,-6.0781,-6.0781,-6.0781,-6.0781,-6.0781,-6.0781,-6.0781,-6.0781,-6.0781,-6.0781,-6.0627,-5.9742,-5.9165,-5.855,-5.733,-5.6637,-5.6165,-5.578,-5.5566,-5.5387,-5.5147,-5.4819,-5.4349,-5.3766,-5.2741,-5.1611,-5.06,-4.9703,-4.9065,-4.8919,-4.855,-4.8159,-4.7663,-4.6688,-4.605,-4.6083,-4.567,-4.5521,-4.5888,-4.5715,-4.5594,-4.5594,-4.5594,-4.5594,-4.5594,-4.5594,-4.5594,-4.5594,-4.5594,-4.5594,-4.5594,-4.5594,-4.5594,-4.5594,-4.5594,-4.5594,-5.6328,-5.6875,-5.7109,-5.7734,-5.651,-5.4633,-5.2765,-5.0633,-4.8127,-4.4824,0.0,-4.2201,-4.041,-4.2407,-4.5392,-4.8573,0.0,-5.5553,-5.9011,-6.0161,-6.0712,-6.0947,-6.1639,-6.2178,-6.2409,-6.3051,-6.382,-6.4705,-6.4782,-6.4782,-6.4782,-6.5474,-6.5897,-6.5897,-6.5897,-6.5897,-6.5897,-6.5897,-6.5897,-6.5897,-6.5897,-6.5388,-6.4481,-6.4481,-6.3018,-6.0501,-6.0558,-5.9871,-5.8716,-5.9266,-5.9706,-6.0146,-6.0622,-6.0781,-6.0781,-6.0781,-6.0781,-6.0781,-6.0781,-6.0781,-6.0781,-6.0781,-6.0781,-6.0781,-6.0781,-6.0781,-6.0627,-5.9896,-5.9588,-5.9165,-5.7715,-5.7176,-5.683,-5.6049,-5.5511,-5.5173,-5.5121,-5.4462,-5.3701,-5.2972,-5.2766,-5.2343,-5.1231,-5.0585,-4.9935,-4.911,-4.8586,-4.8306,-4.8306,-4.759,-4.6984,-4.6664,-4.6223,-4.6051,-4.6347,-4.5995,-4.571,-4.5594,-4.5594,-4.5594,-4.5594,-4.5594,-4.5594,-4.5594,-4.5594,-4.5594,-4.5594,-4.5594,-4.5594,-4.5594,-4.5594,-4.5594,-5.7383,-5.8203,-5.8594,-5.8047,-5.651,-5.4489,-5.2143,-4.8525,0.0,0.0,-4.054,-3.8892,-3.7089,-4.047,-4.4433,-4.7016,0.0,0.0,0.0,0.0,-6.0374,0.0,0.0,-6.2627,-6.4012,-6.4282,0.0,-6.559,-6.5667,-6.5667,-6.5667,-6.582,-6.5897,-6.5897,-6.5897,-6.5897,-6.5897,-6.5897,-6.5897,-6.5897,-6.5897,-6.5569,-6.4987,-6.4987,-6.3556,-6.1066,-6.1482,-6.0525,-5.8756,-5.9609,-6.0044,-6.0146,-6.0622,-6.0781,-6.0781,-6.0781,-6.0781,-6.0781,-6.0781,-6.0781,-6.0781,-6.0781,-6.0781,-6.0781,-6.0781,-6.0781,-6.0781,-6.0627,-6.005,-5.9435,-5.9127,-5.805,-5.6945,-5.683,-5.617,-5.5481,-5.5173,-5.4716,-5.4333,-5.4183,-5.3596,-5.293,-5.2382,-5.1133,-5.0036,-4.9491,-4.8761,-4.8306,-4.8306,-4.759,-4.7311,-4.783,-4.7222,-4.6809,-4.6781,-4.6713,-4.6355,-4.5633,-4.5594,-4.5594,-4.5594,-4.5594,-4.5594,-4.5594,-4.5594,-4.5594,-4.5594,-4.5594,-4.5594,-4.5594,-4.5594,-4.5594,-5.8203,-5.8867,-5.9101,-5.8672,-5.6559,-5.3623,-5.0195,0.0,0.0,0.0,-3.7461,-3.6288,-3.5402,0.0,0.0,0.0,0.0,0.0,0.0,0.0,0.0,0.0,0.0,0.0,0.0,-6.5013,-6.5436,-6.5859,-6.5897,-6.5897,-6.5897,-6.5897,-6.5897,-6.5897,-6.5897,-6.5897,-6.5897,-6.5897,-6.5897,-6.5897,-6.5897,-6.5597,-6.5099,-6.5099,-6.3803,-6.158,-6.1807,-6.0954,-5.9458,-5.9916,-6.0231,-6.0495,-6.0722,-6.0781,-6.0781,-6.0781,-6.0781,-6.0781,-6.0781,-6.0781,-6.0781,-6.0781,-6.0781,-6.0781,-6.0781,-6.0781,-6.0781,-6.0781,-6.0512,-6.0089,-5.9627,-5.8588,-5.755,-5.7099,-5.6168,-5.5262,-5.4862,-5.4625,-5.4547,-5.476,-5.4463,-5.4058,-5.3666,-5.2219,-5.0905,-5.0281,-4.9128,-4.8306,-4.8306,-4.8163,-4.815,-4.854,-4.8187,-4.7933,-4.7875,-4.7271,-4.674,-4.6317,-4.5864,-4.5594,-4.5594,-4.5594,-4.5594,-4.5594,-4.5594,-4.5594,-4.5594,-4.5594,-4.5594,-4.5594,-4.5594,-4.5594,-5.8711,-5.9219,-5.914,-5.8984,-5.6289,-5.2617,-4.8281,-4.4336,0.0,0.0,-3.4883,-3.4218,-3.4319,0.0,-4.0079,0.0,-4.6506,0.0,0.0,0.0,0.0,0.0,0.0,0.0,-6.4782,-6.5513,0.0,-6.5897,-6.5897,-6.5897,-6.5897,-6.5897,-6.5897,-6.5897,-6.5897,-6.5897,-6.5897,-6.5897,-6.5897,-6.5897,-6.5897,-6.5676,-6.5276,-6.5276,-6.4105,-6.2077,-6.2163,-6.1413,-6.0118,-6.0203,-6.0469,-6.0781,-6.0781,-6.0781,-6.0781,-6.0781,-6.0781,-6.0781,-6.0781,-6.0781,-6.0781,-6.0781,-6.0781,-6.0781,-6.0781,-6.0781,-6.0781,-6.0781,-6.0781,-6.0627,-5.9973,-5.9165,-5.828,-5.7253,-5.611,-5.5147,-5.4819,-5.4745,-5.4833,-5.5173,-5.5224,-5.507,-5.4583,-5.3353,-5.2029,-5.0944,-4.9603,-4.866,-4.8458,-4.8779,-4.9059,-4.9155,-4.9094,-4.9055,-4.8934,-4.8,-4.7278,-4.6923,-4.6278,-4.5787,-4.5594,-4.5594,-4.5594,-4.5594,-4.5594,-4.5594,-4.5594,-4.5594,-4.5594,-4.5594,-4.5594,-4.5594,-5.8711,-5.9219,-5.9023,-5.8203,-5.539,-5.1719,-4.7383,0.0,0.0,-3.5391,-3.3555,-3.2656,-3.3398,-3.5606,-3.869,0.0,0.0,-4.8701,0.0,0.0,0.0,0.0,0.0,0.0,0.0,-6.5859,-6.5897,-6.5897,-6.5897,-6.5897,-6.5897,-6.5897,-6.5897,-6.5897,-6.5897,-6.5897,-6.5897,-6.5897,-6.5897,-6.5897,-6.5897,-6.5885,-6.5821,-6.5821,-6.4635,-6.2567,-6.2974,-6.1989,-6.0132,-6.0546,-6.0757,-6.0781,-6.0781,-6.0781,-6.0781,-6.0781,-6.0781,-6.0781,-6.0781,-6.0781,-6.0781,-6.0781,-6.0781,-6.0781,-6.0781,-6.0781,-6.0781,-6.0781,-6.0781,-6.0781,-6.0704,-6.005,-5.8973,-5.7368,-5.6308,-5.5621,-5.5599,-5.5588,-5.5599,-5.5621,-5.5632,-5.5401,-5.4626,-5.4061,-5.3044,-5.1101,-5.0354,-4.9738,-4.8939,-4.9187,-4.9575,-4.9949,-4.9998,-4.9809,-4.9375,-4.9231,-4.8509,-4.7,-4.6808,-4.6432,-4.5633,-4.5594,-4.5594,-4.5594,-4.5594,-4.5594,-4.5594,-4.5594,-4.5594,-4.5594,-4.5594,-4.5594,-5.7148,-5.8398,-5.8867,-5.7461,-5.4883,-5.1445,-4.6601,0.0,-3.7695,-3.457,-3.2578,-3.1836,-3.3164,-3.4645,-3.6904,-4.0691,-4.2374,-4.5182,-5.0941,0.0,0.0,0.0,0.0,0.0,0.0,0.0,-6.5897,-6.5897,-6.5897,-6.5897,-6.5897,-6.5897,-6.5897,-6.5897,-6.5897,-6.5897,-6.5897,-6.5897,-6.5897,-6.5897,-6.5897,-6.5897,-6.5897,-6.5897,-6.4872,-6.3052,-6.322,-6.2246,-6.0521,-6.0734,-6.0781,-6.0781,-6.0781,-6.0781,-6.0781,-6.0781,-6.0781,-6.0781,-6.0781,-6.0781,-6.0781,-6.0781,-6.0781,-6.0781,-6.0781,-6.0781,-6.0781,-6.0781,-6.0781,-6.0781,-6.0781,-6.0165,-5.9088,-5.7407,-5.6714,-5.6329,-5.5818,-5.5703,-5.5703,-5.5703,-5.5703,-5.5588,-5.528,-5.4468,-5.3607,-5.2775,-5.145,-5.046,-5.0084,-4.9958,-4.9924,-5.0061,-5.0325,-5.0399,-5.0202,-4.9702,-4.9125,-4.8432,-4.7894,-4.724,-4.6432,-4.6394,-4.6124,-4.5594,-4.5594,-4.5594,-4.5594,-4.5594,-4.5594,-4.5594,-4.5594,-4.5594,-5.5234,-5.6719,-5.7383,-5.6133,-5.3867,-5.0664,0.0,-4.1484,-3.7695,-3.4453,-3.2461,-3.1797,-3.3476,-3.4297,-3.5859,-3.9336,-4.0625,-4.3086,-4.8516,0.0,0.0,0.0,0.0,-6.1457,-6.4529,-6.5485,-6.5897,-6.5897,-6.5897,-6.5897,-6.5897,-6.5897,-6.5897,-6.5897,-6.5897,-6.5897,-6.5897,-6.5897,-6.5897,-6.5897,-6.5897,-6.5897,-6.5897,-6.5628,-6.4705,-6.3269,-6.3051,-6.2127,-6.0781,-6.0781,-6.0781,-6.0781,-6.0781,-6.0781,-6.0781,-6.0781,-6.0781,-6.0781,-6.0781,-6.0781,-6.0781,-6.0781,-6.0781,-6.0781,-6.0781,-6.0781,-6.0781,-6.0781,-6.0781,-6.0781,-6.0781,-6.0165,-5.9127,-5.7703,-5.7176,-5.6753,-5.5895,-5.5703,-5.5703,-5.5703,-5.5703,-5.5703,-5.5703,-5.501,-5.4294,-5.3938,-5.2648,-5.1519,-5.1026,-5.0659,-5.0415,-5.0279,-5.0514,-5.0712,-5.0712,-5.0125,-4.9663,-4.9433,-4.8817,-4.8125,-4.7278,-4.7231,-4.6971,-4.6355,-4.6124,-4.597,-4.597,-4.5748,-4.5594,-4.5594,-4.5594,-4.5594,-5.3086,-5.4023,-5.4062,-5.4023,-5.2109,-4.9062,0.0,-4.1055,-3.7851,-3.5234,-3.3359,-3.2695,-3.4375,-3.4687,-3.5859,-3.9336,-4.0625,-4.3281,-4.9336,-5.0757,0.0,0.0,0.0,-5.952,-6.2095,-6.4502,-6.5897,-6.5897,-6.5897,-6.5897,-6.5897,-6.5897,-6.5897,-6.5897,-6.5897,-6.5897,-6.5897,-6.5897,-6.5897,-6.5897,-6.5897,-6.5897,-6.5859,-6.5013,-6.4128,-6.3281,-6.2474,-6.1589,-6.0781,-6.0781,-6.0781,-6.0781,-6.0781,-6.0781,-6.0781,-6.0781,-6.0781,-6.0781,-6.0781,-6.0781,-6.0781,-6.0781,-6.0781,-6.0781,-6.0781,-6.0781,-6.0781,-6.0781,-6.0781,-6.0781,-6.0781,-6.0165,-5.9281,-5.8473,-5.7627,-5.6753,-5.5895,-5.5703,-5.5703,-5.5703,-5.5703,-5.5703,-5.5703,-5.5703,-5.527,-5.4078,-5.3875,-5.3226,-5.1535,-5.1306,-5.112,-5.0749,-5.0712,-5.0712,-5.0712,-5.0712,-5.0327,-4.9433,-4.9394,-4.9009,-4.8125,-4.8086,-4.8086,-4.8086,-4.7278,-4.6885,-4.6885,-4.6009,-4.5594,-4.5594,-4.5594,-4.5594,-4.8437,-4.9609,-5.0078,-4.8281,-4.7226,-4.5664,-4.1953,-3.9805,-3.7851,-3.5234,-3.3789,-3.3359,-3.4492,-3.4687,-3.6211,-4.0859,-4.1836,0.0,0.0,0.0,0.0,0.0,-6.1207,-6.3999,0.0,-6.55,-6.5897,-6.5897,-6.5897,-6.5897,-6.5897,-6.5897,-6.5897,-6.5897,-6.5897,-6.5897,-6.5897,-6.5897,-6.5897,-6.5897,-6.5897,-6.5897,-6.5859,-6.5013,-6.4128,-6.3281,-6.2435,-6.1601,-6.0781,-6.0781,-6.0781,-6.0781,-6.0781,-6.0781,-6.0781,-6.0781,-6.0781,-6.0781,-6.0781,-6.0781,-6.0781,-6.0781,-6.0781,-6.0781,-6.0781,-6.0781,-6.0781,-6.0781,-6.0781,-6.0781,-6.0781,-6.0589,-6.0165,-5.9319,-5.8473,-5.7665,-5.6791,-5.6126,-5.5703,-5.5703,-5.5703,-5.5703,-5.5703,-5.5703,-5.5566,-5.5209,-5.4649,-5.4111,-5.3574,-5.2461,-5.1638,-5.1538,-5.101,-5.0712,-5.0712,-5.0712,-5.0596,-5.0327,-5.0289,-4.9894,-4.9009,-4.8971,-4.8702,-4.8125,-4.7855,-4.774,-4.774,-4.6894,-4.6163,-4.5594,-4.5594,-4.5594,0.0,-4.5811,-4.6519,-4.4879,-4.4257,-4.3281,-4.0547,-3.8711,-3.7148,-3.5547,-3.4258,-3.3789,-3.4961,-3.5195,-3.6445,-4.0351,-4.1523,0.0,0.0,0.0,0.0,0.0,0.0,0.0,-6.5164,-6.5761,-6.6046,-6.5974,-6.6035,-6.6041,-6.591,-6.5943,-6.5955,-6.591,-6.5897,-6.5897,-6.5897,-6.5897,-6.5897,-6.5897,-6.5897,-6.5743,-6.5397,-6.4512,-6.3666,-6.282,-6.1973,-6.1281,0.0,-6.0781,-6.0781,-6.0781,-6.0781,-6.0781,-6.0781,-6.0781,-6.0781,-6.0781,-6.0781,-6.0781,-6.0781,-6.0781,-6.0781,-6.0781,-6.0781,-6.0781,-6.0781,-6.0781,-6.0781,-6.0781,-6.0781,-6.0781,-6.0589,-5.9704,-5.9127,-5.8434,-5.7253,-5.656,-5.6088,-5.5742,-5.5703,-5.5703,-5.5703,-5.5703,-5.5703,-5.5703,-5.528,-5.4857,-5.4549,-5.328,-5.2269,-5.1923,-5.1164,-5.0712,-5.0712,-5.0712,-5.0712,-5.0712,-5.0712,-5.0481,-4.9894,-4.9894,-4.9625,-4.9086,-4.8779,-4.8586,-4.8586,-4.7778,-4.7086,-4.6547,-4.6547,-4.6547,0.0,-4.2273,0.0,-4.2975,-4.2452,-4.1523,-3.9883,-3.7695,0.0,-3.5859,-3.457,-3.4023,-3.5781,-3.6094,-3.6758,-3.8828,-4.0508,0.0,0.0,0.0,0.0,0.0,-6.0762,0.0,-6.3859,-6.5465,-6.632,-6.6156,-6.629,-6.6267,-6.5933,-6.6018,-6.6028,-6.591,-6.5897,-6.5897,-6.5897,-6.5897,-6.5897,-6.5897,-6.582,-6.5397,-6.4589,-6.3628,-6.282,-6.2062,-6.1166,-6.0781,-6.0781,-6.0781,-6.0781,-6.0781,-6.0781,-6.0781,-6.0781,-6.0781,-6.0781,-6.0781,-6.0781,-6.0781,-6.0781,-6.0781,-6.0781,-6.0781,-6.0781,-6.0781,-6.0781,-6.0781,-6.0781,-6.0781,-6.0781,-6.0781,-6.0589,-5.9781,-5.955,-5.905,-5.7445,-5.706,-5.6753,-5.5857,-5.5703,-5.5703,-5.5703,-5.5703,-5.5703,-5.5703,-5.5703,-5.5434,-5.4664,-5.3818,-5.2972,-5.2077,-5.1279,-5.075,-5.0712,-5.0712,-5.0712,-5.0712,-5.0712,-5.0712,-5.0712,-5.0712,-5.0712,-5.0712,-4.9894,-4.9471,-4.9394,-4.8586,-4.8163,-4.8086,-4.8086,-4.8086,-3.4745,0.0,-3.7459,-3.6824,-3.7028,-3.7133,0.0,-3.5933,-3.5625,-3.4297,0.0,-3.4922,-3.668,-3.6992,-3.8633,-4.3672,0.0,0.0,0.0,0.0,0.0,-6.2576,-6.3837,-6.4811,-6.5847,-6.6223,-6.6374,-6.6327,-6.6368,-6.629,-6.6069,-6.608,-6.6028,-6.591,-6.5897,-6.5897,-6.5897,-6.5897,-6.5897,-6.5897,-6.5205,-6.4782,-6.4551,-6.3051,-6.2293,-6.2062,-6.1166,-6.0781,-6.0781,-6.0781,-6.0781,-6.0781,-6.0781,-6.0781,-6.0781,-6.0781,-6.0781,-6.0781,-6.0781,-6.0781,-6.0781,-6.0781,-6.0781,-6.0781,-6.0781,-6.0781,-6.0781,-6.0781,-6.0781,-6.0781,-6.0781,-6.0781,-6.0742,-6.055,-5.9973,-5.9204,-5.8204,-5.7473,-5.6753,-5.5857,-5.5703,-5.5703,-5.5703,-5.5703,-5.5703,-5.5703,-5.5703,-5.5626,-5.5434,-5.4703,-5.3857,-5.301,-5.2125,-5.1356,-5.075,-5.0712,-5.0712,-5.0712,-5.0712,-5.0712,-5.0712,-5.0712,-5.0712,-5.0712,-5.0519,-5.0048,-4.9394,-4.9202,-4.874,-4.8086,-4.8086,-4.8086,-3.1754,-3.4025,-3.6192,-3.5768,-3.6336,-3.6923,-3.6549,0.0,0.0,0.0,0.0,0.0,0.0,0.0,0.0,0.0,-4.5508,0.0,0.0,0.0,-6.0742,-6.3398,-6.4368,-6.5176,-6.6075,-6.6436,-6.6588,-6.6493,-6.658,-6.6468,-6.6137,-6.6179,-6.6119,-6.5923,-6.5513,-6.5513,-6.5897,-6.5513,-6.5282,-6.5282,-6.4436,-6.382,-6.3397,-6.2524,-6.187,-6.1485,-6.1012,-6.0781,-6.0781,-6.0781,-6.0781,-6.0781,-6.0781,-6.0781,-6.0781,-6.0781,-6.0781,-6.0781,-6.0781,-6.0781,-6.0781,-6.0781,-6.0781,-6.0781,-6.0781,-6.0781,-6.0781,-6.0781,-6.0781,-6.0781,-6.0781,-6.0781,-6.0781,-6.0781,-6.0435,-5.9858,-5.905,-5.8204,-5.7319,-5.6483,-5.5972,-5.5703,-5.5703,-5.5703,-5.5703,-5.5703,-5.574,-5.5769,-5.5724,-5.5046,-5.4381,-5.3828,-5.301,-5.2164,-5.1318,-5.1241,-5.1087,-5.0712,-5.0712,-5.0712,-5.0712,-5.0712,-5.0712,-5.0712,-5.0712,-5.0481,-5.001,-5.001,-4.974,-4.9279,-4.9279,-4.9279,-3.105,-3.405,-3.7036,-3.6662,-3.7487,-3.8403,-3.8353,0.0,0.0,0.0,0.0,0.0,0.0,-3.8594,0.0,0.0,0.0,0.0,-5.6133,-5.8945,-6.1055,-6.2773,-6.3633,-6.4453,-6.5312,-6.6055,-6.6442,-6.6249,-6.6399,-6.6285,-6.5773,-6.5917,-6.5855,-6.5499,-6.4782,-6.4743,-6.5513,-6.4782,-6.4397,-6.4397,-6.3551,-6.2743,-6.2101,-6.1947,-6.1512,-6.0781,-6.0781,-6.0781,-6.0781,-6.0781,-6.0781,-6.0781,-6.0781,-6.0781,-6.0781,-6.0781,-6.0781,-6.0781,-6.0781,-6.0781,-6.0781,-6.0781,-6.0781,-6.0781,-6.0781,-6.0781,-6.0781,-6.0781,-6.0781,-6.0781,-6.0781,-6.0781,-6.0781,-6.0781,-6.0781,-6.055,-5.9704,-5.8858,-5.805,-5.7176,-5.6291,-5.5703,-5.5703,-5.5703,-5.5724,-5.5728,-5.5834,-5.5849,-5.5758,-5.5234,-5.4766,-5.4542,-5.3857,-5.3049,-5.2154,-5.2115,-5.1741,-5.0933,-5.0789,-5.0712,-5.0712,-5.0712,-5.0712,-5.0712,-5.0712,-5.0712,-5.0712,-5.0712,-5.0712,-5.0712,-5.0712,-5.0712,-3.3358,-3.6,-3.7536,-3.5206,-3.6557,-3.8284,-3.7445,0.0,0.0,0.0,0.0,0.0,0.0,-4.1289,-4.3164,0.0,0.0,-5.5078,0.0,0.0,-6.1055,-6.2773,-6.3125,-6.3555,-6.4414,-6.4609,-6.4687,-6.4647,-6.4687,-6.4546,-6.4189,-6.4189,-6.4031,-6.3717,-6.3589,-6.3551,-6.3705,-6.3589,-6.3512,-6.3512,-6.2666,-6.2216,-6.2062,-6.1331,-6.0935,-6.0781,-6.0781,-6.0781,-6.0781,-6.0781,-6.0781,-6.0781,-6.0781,-6.0781,-6.0781,-6.0781,-6.0781,-6.0781,-6.0781,-6.0781,-6.0781,-6.0781,-6.0781,-6.0781,-6.0781,-6.0781,-6.0781,-6.0781,-6.0781,-6.0781,-6.0781,-6.0781,-6.0781,-6.0781,-6.0781,-6.055,-5.9704,-5.8858,-5.805,-5.7176,-5.6291,-5.5703,-5.5703,-5.5703,-5.5748,-5.584,-5.5899,-5.5907,-5.5874,-5.5783,-5.5415,-5.458,-5.4395,-5.3933,-5.3087,-5.301,-5.2626,-5.1769,-5.1087,-5.0712,-5.0712,-5.0712,-5.0712,-5.0712,-5.0712,-5.0712,-5.0712,-5.0712,-5.0712,-5.0712,-5.0712,-5.0712,-3.2206,-3.5089,-3.7446,-3.6073,-3.8467,-4.1053,-4.0705,-3.9939,0.0,0.0,0.0,0.0,0.0,0.0,-4.6211,-5.1484,0.0,-5.7969,-5.9609,-6.0586,-6.1406,-6.2187,-6.2695,-6.3164,-6.3555,-6.4023,-6.4297,-6.4297,-6.4297,-6.4159,-6.3837,-6.3819,-6.3643,-6.3294,-6.2897,-6.271,-6.2776,-6.2285,-6.2285,-6.2738,-6.1899,-6.1523,-6.1484,-6.1098,-6.086,-6.0781,-6.0781,-6.0781,-6.0781,-6.0781,-6.0781,-6.0781,-6.0781,-6.0781,-6.0781,-6.0781,-6.0781,-6.0781,-6.0781,-6.0781,-6.0781,-6.0781,-6.0781,-6.0781,-6.0781,-6.0781,-6.0781,-6.0781,-6.0781,-6.0781,-6.0781,-6.0781,-6.0781,-6.0781,-6.0781,-6.0704,-6.0281,-5.955,-5.8704,-5.7857,-5.7011,-5.6252,-5.578,-5.575,-5.5834,-5.5907,-5.6058,-5.6108,-5.5909,-5.5976,-5.5816,-5.5217,-5.5164,-5.4818,-5.3972,-5.3895,-5.3318,-5.1962,-5.1125,-5.0712,-5.0712,-5.0712,-5.0712,-5.0712,-5.0712,-5.0712,-5.0712,-5.0712,-5.0712,-5.0712,-5.0712,-5.0712,-3.1826,-3.441,-3.7107,-3.7566,0.0,-4.3359,-4.4094,-4.3075,-4.213,0.0,0.0,0.0,0.0,-4.6211,0.0,-5.4805,-5.7773,-5.9765,-6.0586,-6.1289,-6.1719,-6.1719,-6.2305,-6.2695,-6.2695,-6.3281,-6.3672,-6.3672,-6.367,-6.3521,-6.3247,-6.3196,-6.3061,-6.2716,-6.2188,-6.1939,-6.1995,-6.1397,-6.1422,-6.2073,-6.1383,-6.1081,-6.1081,-6.1081,-6.0991,-6.0856,-6.0856,-6.0811,-6.0781,-6.0781,-6.0781,-6.0781,-6.0781,-6.0781,-6.0781,-6.0781,-6.0827,-6.0856,-6.0856,-6.0899,-6.0913,-6.0913,-6.091,-6.0856,-6.0856,-6.08,-6.0781,-6.0781,-6.0781,-6.0781,-6.0781,-6.0781,-6.0781,-6.0781,-6.0781,-6.0781,-6.0781,-6.0127,-5.9281,-5.8473,-5.7588,-5.6714,-5.5857,-5.5807,-5.5939,-5.5947,-5.6237,-5.6293,-5.5998,-5.6116,-5.6071,-5.5728,-5.5703,-5.5434,-5.4818,-5.4626,-5.3857,-5.2308,-5.1433,-5.0894,-5.0712,-5.0712,-5.0712,-5.0712,-5.0712,-5.0712,-5.0712,-5.0712,-5.0712,-5.0712,-5.0712,-5.0712,-3.4961,-3.5859,-3.668,-3.9101,-4.1093,-4.3083,-4.5407,-4.5304,0.0,-4.7851,0.0,0.0,0.0,-5.1172,-5.4101,-5.6172,-5.8633,-6.0625,-6.1484,-6.164,-6.1719,-6.1719,-6.1758,-6.1797,-6.1797,-6.1836,-6.1875,-6.1875,-6.1777,-6.1627,-6.149,-6.1478,-6.1314,-6.0997,-6.122,-6.1257,-6.1122,-6.1225,-6.131,-6.1382,-6.131,-6.1271,-6.1271,-6.1271,-6.1172,-6.0979,-6.0979,-6.0915,-6.0781,-6.0781,-6.0781,-6.0781,-6.0781,-6.0781,-6.0781,-6.0781,-6.0882,-6.0979,-6.0979,-6.1105,-6.1253,-6.1253,-6.1135,-6.0979,-6.0979,-6.0884,-6.0781,-6.0781,-6.0781,-6.0781,-6.0781,-6.0781,-6.0781,-6.0781,-6.0781,-6.0781,-6.0781,-6.0127,-5.9281,-5.8473,-5.7588,-5.6714,-5.5857,-5.5807,-5.5947,-5.6152,-5.6289,-5.6358,-5.6197,-5.6186,-5.6071,-5.5728,-5.5703,-5.5665,-5.5626,-5.4934,-5.4087,-5.3164,-5.2269,-5.1471,-5.075,-5.0712,-5.0712,-5.0712,-5.0712,-5.0712,-5.0712,-5.0712,-5.0712,-5.0712,-5.0712,-5.0712,-3.3267,-3.5504,-3.7851,-3.8828,-4.1562,0.0,0.0,-4.7216,-4.87,-5.082,-5.1016,0.0,0.0,0.0,-5.6015,-5.7226,-5.9531,-6.1328,-6.164,-6.1719,-6.1719,-6.1719,-6.1719,-6.1719,-6.1719,-6.1719,-6.1719,-6.1719,-6.1638,-6.1575,-6.1417,-6.1413,-6.1334,-6.1128,-6.122,-6.1306,-6.1305,-6.1392,-6.1481,-6.1566,-6.1442,-6.1413,-6.1413,-6.1413,-6.1344,-6.1193,-6.1193,-6.1081,-6.0935,-6.0935,-6.0871,-6.0781,-6.0781,-6.0781,-6.0804,-6.0874,-6.0963,-6.1023,-6.115,-6.1234,-6.1283,-6.1283,-6.1172,-6.0997,-6.0997,-6.0973,-6.0935,-6.0935,-6.0935,-6.0895,-6.0839,-6.0781,-6.0781,-6.0781,-6.0781,-6.0781,-6.0781,-6.055,-5.9896,-5.855,-5.805,-5.7357,-5.5934,-5.5891,-5.6122,-5.6186,-5.6297,-5.6361,-5.6212,-5.6104,-5.5932,-5.5707,-5.5703,-5.5703,-5.5703,-5.5434,-5.4895,-5.4049,-5.2692,-5.1548,-5.075,-5.0712,-5.0712,-5.0712,-5.0712,-5.0712,-5.0712,-5.0712,-5.0712,-5.0712,-5.0712,-5.0712,-3.3324,-3.5851,-3.8711,-3.9297,0.0,0.0,-4.7461,-4.9214,-5.1199,-5.3789,-5.3906,-5.3516,-5.3516,0.0,0.0,-5.7773,-6.0039,-6.1719,-6.1719,-6.1719,-6.1719,-6.1719,-6.1719,-6.1719,-6.1719,-6.1719,-6.1719,-6.1719,-6.1677,-6.1585,-6.1507,-6.1504,-6.1421,-6.1289,-6.1373,-6.1432,-6.1504,-6.1525,-6.1629,-6.1719,-6.1627,-6.1573,-6.1573,-6.1573,-6.1498,-6.1354,-6.1354,-6.1208,-6.0997,-6.0997,-6.0944,-6.085,-6.085,-6.0902,-6.0954,-6.1048,-6.1104,-6.1175,-6.1323,-6.1383,-6.1413,-6.1413,-6.1289,-6.1161,-6.1161,-6.1119,-6.1105,-6.1105,-6.1105,-6.1056,-6.0884,-6.0823,-6.0781,-6.0781,-6.0781,-6.0781,-6.0781,-6.0781,-6.0281,-5.8627,-5.8319,-5.7764,-5.6048,-5.6001,-5.6207,-5.6246,-5.6354,-5.6361,-5.6212,-5.6005,-5.5831,-5.5696,-5.5703,-5.5703,-5.5703,-5.5703,-5.5357,-5.4549,-5.3437,-5.2289,-5.1171,-5.1132,-5.1052,-5.0811,-5.0819,-5.0819,-5.0819,-5.0819,-5.0819,-5.0811,-5.0782,-5.0747,-3.6145,-3.722,-3.9023,0.0,0.0,0.0,-5.0469,-5.1445,-5.2695,-5.7031,-5.6562,-5.5351,-5.5312,-5.6055,-5.6914,-5.7773,-6.0039,-6.1719,-6.1719,-6.1719,-6.1719,-6.1719,-6.1719,-6.1719,-6.1719,-6.1719,-6.1719,-6.1719,-6.1579,-6.1504,-6.1504,-6.1504,-6.1424,-6.1295,-6.1573,-6.1634,-6.1504,-6.1634,-6.1719,-6.1719,-6.1719,-6.1719,-6.1719,-6.1719,-6.1632,-6.1504,-6.1504,-6.1305,-6.1006,-6.1006,-6.1006,-6.1006,-6.1006,-6.1135,-6.1283,-6.1289,-6.1378,-6.1504,-6.1504,-6.1584,-6.1719,-6.1719,-6.1629,-6.1504,-6.1504,-6.1396,-6.1289,-6.1289,-6.1289,-6.1253,-6.1065,-6.0895,-6.0793,-6.0781,-6.0781,-6.0781,-6.0781,-6.0781,-6.0281,-5.8627,-5.8319,-5.779,-5.6192,-5.6084,-5.6237,-5.6377,-5.6389,-5.6361,-5.6212,-5.605,-5.584,-5.5707,-5.5714,-5.5714,-5.5703,-5.5703,-5.5357,-5.4549,-5.4645,-5.3917,-5.2159,-5.2089,-5.1787,-5.1128,-5.1089,-5.1089,-5.1089,-5.1089,-5.1089,-5.1089,-5.0979,-5.0889,-3.5284,-3.7535,0.0,-4.2499,0.0,0.0,0.0,-5.4609,0.0,0.0,-5.9258,-5.8515,-5.7344,-5.8281,-5.918,-5.8867,-6.043,-6.1719,-6.1719,-6.1719,-6.1719,-6.1719,-6.1719,-6.1719,-6.1719,-6.1719,-6.1719,-6.1719,-6.1678,-6.1635,-6.1635,-6.1635,-6.1631,-6.158,-6.1677,-6.1679,-6.1635,-6.1679,-6.1719,-6.1719,-6.1719,-6.1719,-6.1719,-6.1719,-6.1679,-6.1634,-6.1525,-6.1392,-6.12,-6.1065,-6.1089,-6.1214,-6.1214,-6.1246,-6.1301,-6.1396,-6.1481,-6.1509,-6.1629,-6.1678,-6.1719,-6.1719,-6.1629,-6.1504,-6.1504,-6.1485,-6.1424,-6.1424,-6.1424,-6.14,-6.1259,-6.1065,-6.0925,-6.0839,-6.0781,-6.0781,-6.0781,-6.0781,-6.0281,-5.8627,-5.8392,-5.7889,-5.6178,-5.6136,-5.6361,-5.6386,-5.6389,-5.6361,-5.6212,-5.6152,-5.6057,-5.5849,-5.5861,-5.5788,-5.5724,-5.5703,-5.5588,-5.5357,-5.5486,-5.4529,-5.2198,-5.2175,-5.1869,-5.1089,-5.1089,-5.1089,-5.1089,-5.1089,-5.1089,-5.1089,-5.1047,-5.1031,-3.7487,-4.0045,0.0,-4.5664,-4.875,-5.2266,-5.6406,0.0,0.0,0.0,-6.039,-5.9726,-5.9023,-5.9453,-5.9883,-5.9687,-6.082,-6.1719,-6.1719,-6.1719,-6.1719,-6.1719,-6.1719,-6.1719,-6.1719,-6.1719,-6.1719,-6.1719,-6.1719,-6.1719,-6.1719,-6.1719,-6.1719,-6.1719,-6.1719,-6.1719,-6.1719,-6.1719,-6.1719,-6.1719,-6.1719,-6.1719,-6.1719,-6.1719,-6.1719,-6.1679,-6.1504,-6.1369,-6.1271,-6.1089,-6.1133,-6.1369,-6.1369,-6.14,-6.1481,-6.1568,-6.158,-6.1584,-6.1678,-6.1719,-6.1719,-6.1719,-6.1636,-6.158,-6.158,-6.158,-6.158,-6.158,-6.158,-6.1522,-6.1339,-6.1214,-6.1056,-6.0845,-6.0781,-6.0781,-6.0781,-6.0845,-6.038,-5.8711,-5.8493,-5.8037,-5.6401,-5.6277,-5.6438,-5.6462,-5.6445,-5.6361,-5.6212,-5.6191,-5.6135,-5.5901,-5.5915,-5.587,-5.5696,-5.5703,-5.5703,-5.5703,-5.5883,-5.519,-5.3281,-5.3006,-5.2547,-5.1765,-5.1414,-5.1219,-5.1219,-5.1219,-5.1219,-5.1216,-5.1144,-5.1125,-4.0984,0.0,0.0,-4.9336,-5.1758,0.0,-5.9219,-6.039,-6.0742,-6.1523,0.0,-5.9648,-6.039,-5.9922,-5.9687,-6.039,-6.1172,-6.1719,-6.1719,-6.1719,-6.1719,-6.1719,-6.1719,-6.1719,-6.1719,-6.1719,-6.1719,-6.1719,-6.1719,-6.1719,-6.1719,-6.1719,-6.1719,-6.1719,-6.1719,-6.1719,-6.1719,-6.1719,-6.1719,-6.1719,-6.1719,-6.1719,-6.1719,-6.1719,-6.1679,-6.1637,-6.1404,-6.1301,-6.1277,-6.1128,-6.1238,-6.1512,-6.1512,-6.1584,-6.1719,-6.1719,-6.1719,-6.1719,-6.1719,-6.1719,-6.1719,-6.1719,-6.1719,-6.1719,-6.1719,-6.1719,-6.1719,-6.1719,-6.1719,-6.1635,-6.1378,-6.1295,-6.1207,-6.0913,-6.085,-6.0827,-6.0827,-6.0857,-6.0442,-5.8853,-5.8551,-5.8116,-5.665,-5.6394,-5.6458,-5.6562,-5.6508,-5.6374,-5.6246,-5.6232,-5.6175,-5.5962,-5.5916,-5.5857,-5.5728,-5.5724,-5.5714,-5.5707,-5.6015,-5.5847,-5.5073,-5.4323,-5.3531,-5.2734,-5.1914,-5.1484,-5.1406,-5.1406,-5.1406,-5.1406,-5.127,-5.121,-3.8042,-4.1543,0.0,0.0,-5.4023,-5.8086,-5.9219,-6.0469,-6.1484,-6.164,-6.1406,-6.1211,-6.1406,-6.1289,-6.1211,-6.1406,-6.1562,-6.1719,-6.1719,-6.1719,-6.1719,-6.1719,-6.1719,-6.1719,-6.1719,-6.1719,-6.1719,-6.1719,-6.1719,-6.1719,-6.1719,-6.1719,-6.1719,-6.1719,-6.1719,-6.1719,-6.1719,-6.1719,-6.1719,-6.1719,-6.1719,-6.1719,-6.1719,-6.1719,-6.1582,-6.1378,-6.146,-6.1387,-6.1295,-6.1373,-6.1509,-6.1677,-6.1677,-6.1679,-6.1719,-6.1719,-6.1719,-6.1719,-6.1719,-6.1719,-6.1719,-6.1719,-6.1719,-6.1719,-6.1719,-6.1719,-6.1719,-6.1719,-6.1719,-6.1677,-6.1504,-6.1369,-6.1271,-6.1193,-6.1056,-6.0963,-6.0963,-6.0593,-5.9905,-5.8862,-5.8199,-5.7535,-5.6581,-5.6506,-5.6561,-5.6601,-5.6562,-5.6558,-5.6515,-5.6514,-5.6458,-5.6305,-5.6212,-5.6071,-5.5866,-5.575,-5.5758,-5.584,-5.6084,-5.6159,-5.6088,-5.5372,-5.4257,-5.2734,-5.2539,-5.207,-5.1406,-5.1406,-5.1406,-5.1406,-5.1366,-5.1365,0.0,0.0,0.0,0.0,0.0,-5.8789,-5.9609,-6.0469,-6.1211,-6.1601,-6.1719,-6.1719,-6.1719,-6.1719,-6.1719,-6.1719,-6.1719,-6.1719,-6.1719,-6.1719,-6.1719,-6.1719,-6.1719,-6.1719,-6.1719,-6.1719,-6.1719,-6.1719,-6.1719,-6.1719,-6.1719,-6.1719,-6.1719,-6.1719,-6.1719,-6.1719,-6.1719,-6.1719,-6.1719,-6.1719,-6.1719,-6.1719,-6.1719,-6.1719,-6.1584,-6.1392,-6.1485,-6.1478,-6.1392,-6.1485,-6.158,-6.1719,-6.1719,-6.1719,-6.1719,-6.1719,-6.1719,-6.1719,-6.1719,-6.1719,-6.1719,-6.1719,-6.1719,-6.1719,-6.1719,-6.1719,-6.1719,-6.1719,-6.1719,-6.1678,-6.1522,-6.1467,-6.1369,-6.1306,-6.115,-6.1031,-6.1128,-6.0583,-5.9824,-5.8966,-5.8226,-5.7483,-5.6626,-5.656,-5.6601,-5.6601,-5.6601,-5.6601,-5.6601,-5.6601,-5.6559,-5.6397,-5.6351,-5.6232,-5.6078,-5.5971,-5.5955,-5.6057,-5.6212,-5.6344,-5.6389,-5.6086,-5.5312,-5.3984,-5.3125,-5.2461,-5.2031,-5.1601,-5.1406,-5.1406,-5.1406,-5.1406,0.0,0.0,0.0,0.0,0.0,0.0,-5.9609,-6.0078,-6.039,-6.1133,-6.1484,-6.1719,-6.1719,-6.1719,-6.1719,-6.1719,-6.1719,-6.1719,-6.1719,-6.1719,-6.1719,-6.1719,-6.1719,-6.1719,-6.1719,-6.1719,-6.1719,-6.1719,-6.1719,-6.1719,-6.1719,-6.1719,-6.1719,-6.1719,-6.1719,-6.1719,-6.1719,-6.1719,-6.1719,-6.1719,-6.1719,-6.1719,-6.1719,-6.1719,-6.1632,-6.1504,-6.1517,-6.1515,-6.1504,-6.1517,-6.1587,-6.1719,-6.1719,-6.1719,-6.1719,-6.1719,-6.1719,-6.1719,-6.1719,-6.1719,-6.1719,-6.1719,-6.1719,-6.1719,-6.1719,-6.1719,-6.1719,-6.1719,-6.1719,-6.1679,-6.1575,-6.1512,-6.1488,-6.1383,-6.1208,-6.108,-6.1106,-6.0524,-5.9763,-5.8902,-5.8155,-5.7461,-5.6719,-5.6601,-5.6601,-5.6601,-5.6601,-5.6601,-5.6601,-5.6601,-5.656,-5.6452,-5.6397,-5.6365,-5.6237,-5.6207,-5.6202,-5.6227,-5.6351,-5.6397,-5.6445,-5.6558,-5.625,-5.5547,-5.3828,-5.2851,-5.2695,-5.1836,-5.1406,-5.1406,-5.1406,-5.1406,0.0,0.0,0.0,0.0,0.0,0.0,0.0,0.0,-5.9375,0.0,-6.0703,-6.1719,-6.1719,-6.1719,-6.1719,-6.1719,-6.1719,-6.1719,-6.1719,-6.1719,-6.1719,-6.1719,-6.1719,-6.1719,-6.1719,-6.1719,-6.1719,-6.1719,-6.1719,-6.1719,-6.1719,-6.1719,-6.1719,-6.1719,-6.1719,-6.1719,-6.1719,-6.1719,-6.1719,-6.1719,-6.1719,-6.1719,-6.1719,-6.1719,-6.1632,-6.1507,-6.1631,-6.1627,-6.1509,-6.1632,-6.1679,-6.1719,-6.1719,-6.1719,-6.1719,-6.1719,-6.1719,-6.1719,-6.1719,-6.1719,-6.1719,-6.1719,-6.1719,-6.1719,-6.1719,-6.1719,-6.1719,-6.1719,-6.1719,-6.1719,-6.1679,-6.1582,-6.1517,-6.1632,-6.1527,-6.1237,-6.0506,-5.9821,-5.9061,-5.8202,-5.7343,-5.6758,-5.6601,-5.6601,-5.6601,-5.6601,-5.6601,-5.6601,-5.6601,-5.6601,-5.6601,-5.6562,-5.646,-5.6386,-5.6374,-5.6256,-5.6242,-5.6371,-5.6383,-5.6454,-5.6561,-5.6601,-5.6562,-5.6445,-5.4726,-5.3437,-5.2695,-5.1836,-5.1406,-5.1406,-5.1406,-5.1406,-3.5193,0.0,0.0,0.0,0.0,0.0,-5.6875,0.0,-5.8594,-5.9101,-5.9805,-6.043,-6.0898,-6.0976,-6.1133,-6.1601,-6.1719,-6.1719,-6.1719,-6.1719,-6.1719,-6.1719,-6.1719,-6.1719,-6.1719,-6.1719,-6.1719,-6.1719,-6.1719,-6.1719,-6.1719,-6.1719,-6.1719,-6.1719,-6.1719,-6.1719,-6.1719,-6.1719,-6.1719,-6.1719,-6.1719,-6.1719,-6.1719,-6.1719,-6.1678,-6.163,-6.1679,-6.1678,-6.163,-6.1679,-6.1719,-6.1719,-6.1719,-6.1719,-6.1719,-6.1719,-6.1719,-6.1719,-6.1719,-6.1719,-6.1719,-6.1719,-6.1719,-6.1719,-6.1719,-6.1719,-6.1719,-6.1719,-6.1719,-6.1719,-6.1719,-6.1677,-6.1632,-6.1679,-6.1638,-6.1238,-5.9949,-5.9411,-5.8789,-5.7422,-5.6875,-5.6601,-5.6601,-5.6601,-5.6601,-5.6601,-5.6601,-5.6601,-5.6601,-5.6601,-5.6601,-5.6601,-5.6558,-5.6512,-5.6512,-5.6458,-5.6454,-5.6511,-5.6512,-5.6558,-5.6601,-5.6601,-5.6601,-5.6601,-5.4883,-5.3828,-5.3437,-5.207,-5.1406,-5.1406,-5.1406,-5.1406,0.0,0.0,0.0,0.0,0.0,0.0,0.0,0.0,-5.7422,0.0,-5.8398,-5.8789,-5.9609,-5.9961,-6.0312,-6.0976,-6.125,-6.1367,-6.1367,-6.1562,-6.1719,-6.1719,-6.1719,-6.1719,-6.1719,-6.1719,-6.1719,-6.1719,-6.1719,-6.1719,-6.1719,-6.1719,-6.1719,-6.1719,-6.1719,-6.1719,-6.1719,-6.1719,-6.1719,-6.1719,-6.1719,-6.1719,-6.1719,-6.1719,-6.1719,-6.1719,-6.1719,-6.1719,-6.1719,-6.1719,-6.1719,-6.1719,-6.1719,-6.1719,-6.1719,-6.1719,-6.1719,-6.1719,-6.1719,-6.1719,-6.1719,-6.1719,-6.1719,-6.1719,-6.1719,-6.1719,-6.1719,-6.1719,-6.1719,-6.1719,-6.1719,-6.1719,-6.1719,-6.1719,-6.1719,-6.125,-5.957,-5.8867,-5.8164,-5.6836,-5.6601,-5.6601,-5.6601,-5.6601,-5.6601,-5.6601,-5.6601,-5.6601,-5.6601,-5.6601,-5.6601,-5.6601,-5.6601,-5.6601,-5.6601,-5.6601,-5.6601,-5.6601,-5.6601,-5.6601,-5.6601,-5.6601,-5.6601,-5.6601,-5.4883,-5.3984,-5.3984,-5.2266,-5.1406,-5.1406,-5.1406,-5.1406,0.0,0.0,0.0,0.0,0.0,0.0,0.0,0.0,-5.5469,-5.5508,-5.6172,-5.6992,-5.7851,-5.8711,-5.9297,-5.9336,-5.9961,-6.0469,-6.0469,-6.1172,-6.1719,-6.1719,-6.1719,-6.1719,-6.1719,-6.1719,-6.1719,-6.1719,-6.1719,-6.1719,-6.1719,-6.1719,-6.1719,-6.1719,-6.1719,-6.1719,-6.1719,-6.1719,-6.1719,-6.1719,-6.1719,-6.1719,-6.1719,-6.1719,-6.1719,-6.1719,-6.1719,-6.1719,-6.1719,-6.1719,-6.1719,-6.1719,-6.1719,-6.1719,-6.1719,-6.1719,-6.1719,-6.1719,-6.1719,-6.1719,-6.1719,-6.1719,-6.1719,-6.1719,-6.1719,-6.1719,-6.1719,-6.1719,-6.1719,-6.1719,-6.1719,-6.1719,-6.1719,-6.1719,-6.1719,-6.125,-5.957,-5.789,-5.6719,-5.6601,-5.6601,-5.6601,-5.6601,-5.6601,-5.6601,-5.6601,-5.6601,-5.6601,-5.6601,-5.6601,-5.6601,-5.6601,-5.6601,-5.6601,-5.6601,-5.6601,-5.6601,-5.6601,-5.6601,-5.6601,-5.6601,-5.6601,-5.6601,-5.6601,-5.4883,-5.3984,-5.3984,-5.2266,-5.1406,-5.1406,-5.1406,-5.1406,0.0,0.0,0.0,0.0,0.0,-4.7305,-4.9023,-5.1601,-5.3633,-5.3633,-5.4765,-5.5859,-5.6172,-5.7383,-5.8555,-5.9101,-5.9453,-5.9648,-5.9648,-5.9883,-6.0117,-6.0117,-6.0117,-6.0117,-6.0117,-6.0117,-6.0117,-6.0117,-6.0117,-6.0312,-6.0859,-6.0859,-6.1133,-6.168,-6.1719,-6.1719,-6.1719,-6.1719,-6.1719,-6.1719,-6.1719,-6.1719,-6.1719,-6.1719,-6.1719,-6.1719,-6.1719,-6.1719,-6.1719,-6.1719,-6.1719,-6.1719,-6.1719,-6.1719,-6.1719,-6.1719,-6.1719,-6.1719,-6.1719,-6.1719,-6.1719,-6.1719,-6.1719,-6.1719,-6.1719,-6.1719,-6.1719,-6.1719,-6.1719,-6.1719,-6.1719,-6.1719,-6.1719,-6.1719,-6.1289,-6.0547,-5.9453,-5.8281,-5.7265,-5.6719,-5.6601,-5.6601,-5.6601,-5.6601,-5.6601,-5.6601,-5.6601,-5.6601,-5.6601,-5.6601,-5.6601,-5.6601,-5.6601,-5.6601,-5.6601,-5.6601,-5.6601,-5.6601,-5.6601,-5.6601,-5.6601,-5.6601,-5.6601,-5.6601,-5.4883,-5.3984,-5.3984,-5.2266,-5.1406,-5.1406,-5.1406,-5.1406,-2.9141,0.0,0.0,0.0,0.0,-4.3232,-4.6662,0.0,-5.0857,-5.1988,-5.3355,-5.4448,-5.4722,-5.5963,-5.7213,-5.8164,-5.8555,-5.875,-5.875,-5.9023,-5.9219,-5.9219,-5.9219,-5.9219,-5.9219,-5.9219,-5.9219,-5.9219,-5.9219,-5.9414,-5.9961,-6.0,-6.0273,-6.0859,-6.0859,-6.0859,-6.0859,-6.0859,-6.0859,-6.0859,-6.1133,-6.125,-6.1289,-6.1562,-6.1719,-6.1719,-6.1719,-6.1719,-6.1719,-6.1719,-6.1719,-6.1719,-6.1719,-6.1719,-6.1719,-6.1719,-6.1719,-6.1719,-6.1719,-6.1719,-6.1719,-6.1719,-6.1719,-6.1719,-6.1719,-6.1719,-6.1719,-6.1719,-6.1719,-6.1719,-6.1719,-6.1719,-6.1719,-6.1719,-6.125,-6.0547,-5.9453,-5.8515,-5.7656,-5.6758,-5.6601,-5.6601,-5.6601,-5.6601,-5.6601,-5.6601,-5.6601,-5.6601,-5.6601,-5.6601,-5.6601,-5.6601,-5.6601,-5.6601,-5.6601,-5.6601,-5.6601,-5.6601,-5.6601,-5.6601,-5.6601,-5.6601,-5.6601,-5.6601,-5.5195,-5.4297,-5.3984,-5.2266,-5.1406,-5.1406,-5.1406,-5.1406,0.0,0.0,0.0,0.0,0.0,0.0,-4.5394,0.0,-4.697,-5.0395,-5.1755,-5.2611,-5.3548,-5.4336,-5.519,-5.6325,-5.7265,-5.7851,-5.7851,-5.8594,-5.9101,-5.9101,-5.9101,-5.9101,-5.9101,-5.9101,-5.9101,-5.9101,-5.9101,-5.914,-5.914,-5.918,-5.9219,-5.9219,-5.9219,-5.9219,-5.9219,-5.9219,-5.9219,-5.9219,-6.0,-6.0351,-6.039,-6.1289,-6.164,-6.164,-6.168,-6.1719,-6.1719,-6.1719,-6.1719,-6.1719,-6.1719,-6.1719,-6.1719,-6.1719,-6.1719,-6.1719,-6.1719,-6.1719,-6.1719,-6.1719,-6.1719,-6.1719,-6.1719,-6.1719,-6.1719,-6.1719,-6.1719,-6.1719,-6.1719,-6.1719,-6.1719,-6.1719,-6.1719,-6.125,-5.957,-5.8555,-5.7656,-5.6758,-5.6601,-5.6601,-5.6601,-5.6601,-5.6601,-5.6601,-5.6601,-5.6601,-5.6601,-5.6601,-5.6601,-5.6601,-5.6601,-5.6601,-5.6601,-5.6601,-5.6601,-5.6601,-5.6601,-5.6601,-5.6601,-5.6601,-5.6601,-5.6601,-5.5742,-5.4883,-5.4023,-5.2305,-5.1445,-5.1406,-5.1406,-5.1406,-2.7997,0.0,0.0,0.0,0.0,0.0,0.0,0.0,-4.2555,-4.5986,-4.7305,-4.8706,-5.1438,-5.2547,-5.3399,-5.427,-5.5767,-5.6858,-5.6953,-5.7187,-5.7305,-5.7305,-5.7305,-5.7305,-5.7305,-5.7305,-5.7305,-5.7305,-5.7305,-5.7578,-5.8242,-5.8867,-5.9219,-5.9219,-5.9219,-5.9219,-5.9219,-5.9219,-5.9219,-5.9219,-5.9414,-5.9531,-5.957,-6.039,-6.0742,-6.0781,-6.1445,-6.1719,-6.1719,-6.1719,-6.1719,-6.1719,-6.1719,-6.1719,-6.1719,-6.1719,-6.1719,-6.1719,-6.1719,-6.1719,-6.1719,-6.1719,-6.1719,-6.1719,-6.1719,-6.1719,-6.1719,-6.1719,-6.1719,-6.1719,-6.1719,-6.1719,-6.1719,-6.1719,-6.1719,-6.125,-5.957,-5.9023,-5.8398,-5.6875,-5.6601,-5.6601,-5.6601,-5.6601,-5.6601,-5.6601,-5.6601,-5.6601,-5.6601,-5.6601,-5.6601,-5.6601,-5.6601,-5.6601,-5.6601,-5.6601,-5.6601,-5.6601,-5.6601,-5.6601,-5.6601,-5.6601,-5.6601,-5.6601,-5.5742,-5.5195,-5.4922,-5.3203,-5.2031,-5.1406,-5.1406,-5.1406,-3.0114,-3.1178,0.0,0.0,0.0,0.0,-3.8197,-3.8898,-3.9893,-4.396,-4.5465,-4.6732,-4.904,-5.0415,-5.1457,-5.2335,-5.3701,-5.5009,-5.5847,-5.6014,-5.6172,-5.6562,-5.6601,-5.6601,-5.6601,-5.6601,-5.6601,-5.6601,-5.6601,-5.6836,-5.7344,-5.7851,-5.8125,-5.8125,-5.8125,-5.8125,-5.8125,-5.8125,-5.8125,-5.8125,-5.8476,-5.8672,-5.8672,-5.9531,-6.0078,-6.043,-6.0937,-6.1367,-6.1719,-6.1719,-6.1719,-6.1719,-6.1719,-6.1719,-6.1719,-6.1719,-6.1719,-6.1719,-6.1719,-6.1719,-6.1719,-6.1719,-6.1719,-6.1719,-6.1719,-6.1719,-6.1719,-6.1719,-6.1719,-6.1719,-6.1719,-6.1719,-6.1719,-6.1719,-6.1406,-6.0781,-5.9492,-5.8906,-5.8242,-5.6875,-5.6601,-5.6601,-5.6601,-5.6601,-5.6601,-5.6601,-5.6601,-5.6601,-5.6601,-5.6601,-5.6601,-5.6601,-5.6601,-5.6601,-5.6601,-5.6601,-5.6601,-5.6601,-5.6601,-5.6601,-5.6601,-5.6601,-5.6601,-5.6601,-5.6051,-5.5568,-5.5118,-5.3512,-5.2266,-5.1406,-5.1406,-5.1406,-3.309,-3.3564,0.0,0.0,-3.4615,0.0,-3.9752,-3.9038,-3.8469,-4.291,-4.4388,-4.523,-4.6325,-4.7711,-4.9015,-5.0,-5.1029,-5.2498,-5.4633,-5.5071,-5.543,-5.6211,-5.6328,-5.6328,-5.6328,-5.6328,-5.6367,-5.6445,-5.6562,-5.6601,-5.6601,-5.6601,-5.6601,-5.6601,-5.6601,-5.6601,-5.6601,-5.6601,-5.6601,-5.6601,-5.7383,-5.7773,-5.7773,-5.8672,-5.9453,-6.0117,-6.0234,-6.0742,-6.1562,-6.1562,-6.1601,-6.1719,-6.1719,-6.1719,-6.1719,-6.1719,-6.1719,-6.1719,-6.1719,-6.1719,-6.1719,-6.1719,-6.1719,-6.1719,-6.1719,-6.1719,-6.1719,-6.1719,-6.1719,-6.168,-6.1562,-6.1562,-6.1523,-6.1445,-6.082,-6.0039,-5.9219,-5.8437,-5.7656,-5.6758,-5.6601,-5.6601,-5.6601,-5.6601,-5.6601,-5.6601,-5.6601,-5.6601,-5.6601,-5.6601,-5.6601,-5.6601,-5.6601,-5.6601,-5.6601,-5.6601,-5.6601,-5.6601,-5.6601,-5.6601,-5.6601,-5.6601,-5.6601,-5.6562,-5.6452,-5.5907,-5.4902,-5.3485,-5.2382,-5.1523,-5.1523,-5.1484,-3.7294,-3.7559,-3.7981,-3.6251,-3.6971,0.0,-3.5387,-3.6009,-3.7325,-3.8309,-3.8529,-3.9481,-4.2464,-4.3735,-4.4603,-4.547,-4.7013,-4.9526,-5.3496,-5.4171,-5.4336,-5.4492,-5.4492,-5.4492,-5.4492,-5.4492,-5.4805,-5.5508,-5.6211,-5.6601,-5.6601,-5.6601,-5.6601,-5.6601,-5.6601,-5.6601,-5.6601,-5.6601,-5.6601,-5.6601,-5.6758,-5.6836,-5.6875,-5.7773,-5.8242,-5.8437,-5.914,-5.9883,-6.0664,-6.0664,-6.1055,-6.1719,-6.1719,-6.1719,-6.1719,-6.1719,-6.1719,-6.1719,-6.1719,-6.1719,-6.1719,-6.1719,-6.1719,-6.1719,-6.1719,-6.1719,-6.1719,-6.1719,-6.1719,-6.1523,-6.0859,-6.0664,-6.0508,-5.9844,-5.957,-5.9219,-5.8359,-5.8008,-5.7656,-5.6758,-5.6601,-5.6601,-5.6601,-5.6601,-5.6601,-5.6601,-5.6601,-5.6601,-5.6601,-5.6601,-5.6601,-5.6601,-5.6601,-5.6601,-5.6601,-5.6601,-5.6601,-5.6601,-5.6601,-5.6601,-5.6601,-5.6601,-5.6559,-5.645,-5.6289,-5.5789,-5.4897,-5.4021,-5.3125,-5.2305,-5.2418,-5.207,-4.0759,-4.0708,-4.1072,-3.9794,-3.9565,0.0,0.0,-3.7416,-3.762,-3.9307,-3.8525,-3.8452,-4.1463,-4.1889,-4.22,-4.347,-4.5247,-4.7227,-4.9473,-5.1082,-5.2182,-5.2656,-5.3086,-5.3359,-5.3359,-5.375,-5.418,-5.4609,-5.5469,-5.5937,-5.5937,-5.6367,-5.6601,-5.6601,-5.6601,-5.6601,-5.6601,-5.6601,-5.6601,-5.6601,-5.6601,-5.6601,-5.6601,-5.7031,-5.75,-5.793,-5.8359,-5.9023,-5.9844,-6.0234,-6.0664,-6.1094,-6.1523,-6.1719,-6.1719,-6.1719,-6.1719,-6.1719,-6.1719,-6.1719,-6.1719,-6.1719,-6.1719,-6.1719,-6.1719,-6.1719,-6.1719,-6.1719,-6.1406,-6.0937,-6.0508,-6.0117,-5.9687,-5.9297,-5.8867,-5.8437,-5.8008,-5.7578,-5.7109,-5.668,-5.6601,-5.6601,-5.6601,-5.6601,-5.6601,-5.6601,-5.6601,-5.6601,-5.6601,-5.6601,-5.6562,-5.6511,-5.656,-5.6562,-5.6511,-5.656,-5.6601,-5.6601,-5.6601,-5.6601,-5.6601,-5.6601,-5.6511,-5.6289,-5.6158,-5.579,-5.5296,-5.5097,-5.4355,-5.3147,-5.3276,-5.2891,-4.4195,-4.4008,-4.4451,-4.364,-4.2442,-4.1459,0.0,0.0,0.0,-4.0908,-3.9722,0.0,0.0,0.0,-4.053,-4.1917,-4.3617,-4.4725,-4.4601,-4.6831,-4.8974,-5.0422,-5.1404,-5.1912,-5.1912,-5.2421,-5.2969,-5.3476,-5.4023,-5.4531,-5.5039,-5.5898,-5.6367,-5.6367,-5.6523,-5.6601,-5.6601,-5.6601,-5.6601,-5.6601,-5.6601,-5.6601,-5.6601,-5.6601,-5.6992,-5.7656,-5.7656,-5.8125,-5.8984,-5.9648,-6.0039,-6.0273,-6.1289,-6.1719,-6.1719,-6.1719,-6.1719,-6.1719,-6.1719,-6.1601,-6.1445,-6.1445,-6.1328,-6.1211,-6.1211,-6.1211,-6.1211,-6.1211,-6.0703,-6.0117,-5.9961,-5.9453,-5.8906,-5.875,-5.8164,-5.7656,-5.7656,-5.7109,-5.6601,-5.6561,-5.6562,-5.6601,-5.6601,-5.6601,-5.6601,-5.6601,-5.6601,-5.6601,-5.6601,-5.6562,-5.6515,-5.6397,-5.6463,-5.6507,-5.6394,-5.651,-5.656,-5.656,-5.6601,-5.6601,-5.656,-5.6557,-5.6397,-5.6152,-5.5971,-5.5798,-5.5703,-5.5993,-5.54,-5.4024,-5.4171,-5.3672,-4.8343,-4.8496,-4.835,-4.4519,-4.5728,-4.6093,-3.9375,0.0,-4.0989,-3.8326,0.0,-3.8383,0.0,0.0,0.0,-3.8717,-4.0075,-4.0858,-4.0211,-4.1729,-4.4137,-4.7369,-4.8571,-4.9148,-4.9148,-4.8667,-4.9258,-5.1523,-5.1133,-5.1758,-5.4023,-5.4961,-5.5469,-5.5469,-5.6211,-5.6601,-5.6601,-5.6601,-5.6601,-5.6601,-5.6601,-5.6601,-5.6601,-5.6601,-5.664,-5.6758,-5.6758,-5.7226,-5.8047,-5.8164,-5.8633,-5.9492,-6.1094,-6.1719,-6.1719,-6.1719,-6.1719,-6.1719,-6.1719,-6.1172,-6.0547,-6.0547,-6.0078,-5.9492,-5.9492,-5.9492,-5.9492,-5.9492,-5.9414,-5.914,-5.8398,-5.8125,-5.7851,-5.707,-5.6836,-5.6758,-5.6758,-5.668,-5.6561,-5.6452,-5.6515,-5.6601,-5.6601,-5.6601,-5.6601,-5.6601,-5.6601,-5.6601,-5.6601,-5.6508,-5.6438,-5.6391,-5.6289,-5.6277,-5.6386,-5.6397,-5.6402,-5.6402,-5.6518,-5.6558,-5.6443,-5.6293,-5.6164,-5.5924,-5.5808,-5.5735,-5.5703,-5.5879,-5.5546,-5.4772,-5.502,-5.4258,-4.9196,-4.9397,-4.9445,-4.6632,-4.6678,-4.6289,-4.1992,-4.0975,-4.0776,-4.0307,0.0,0.0,0.0,0.0,0.0,0.0,-3.9103,-3.9353,-3.8016,-3.9335,-4.1228,-4.3327,-4.4426,-4.5599,-4.7179,-4.703,-4.7695,-4.9805,-4.918,-4.9805,-5.2344,-5.3789,-5.4765,-5.5273,-5.6133,-5.6601,-5.6601,-5.6601,-5.6601,-5.6601,-5.6601,-5.6601,-5.6601,-5.6601,-5.6601,-5.6601,-5.6601,-5.6797,-5.7187,-5.7695,-5.8125,-5.8555,-5.9765,-6.0234,-6.0234,-6.0234,-6.0234,-6.0234,-6.0234,-6.0,-5.9687,-5.9687,-5.9492,-5.9219,-5.9219,-5.9219,-5.9219,-5.9219,-5.8828,-5.8359,-5.8008,-5.7539,-5.7031,-5.668,-5.6601,-5.6601,-5.6601,-5.6558,-5.646,-5.6397,-5.638,-5.6389,-5.6462,-5.6559,-5.6601,-5.6601,-5.6601,-5.6601,-5.6601,-5.6465,-5.6374,-5.6277,-5.6227,-5.6181,-5.6113,-5.6232,-5.6273,-5.6273,-5.6351,-5.6358,-5.6273,-5.6102,-5.6008,-5.5885,-5.5769,-5.5703,-5.5703,-5.5947,-5.5934,-5.5647,-5.5842,-5.5305,-5.0391,-5.0586,-5.0586,-4.7891,-4.6953,-4.6016,-4.3555,-4.2109,-4.1523,-4.2266,-4.0974,0.0,0.0,0.0,-3.838,-3.8578,0.0,-3.8623,-3.6654,-3.7469,-3.8724,-3.9967,-4.1212,-4.2711,-4.4645,-4.4453,-4.5195,-4.7615,-4.6797,-4.7617,-5.0898,-5.2461,-5.3789,-5.4922,-5.5781,-5.6367,-5.6601,-5.6601,-5.6601,-5.6601,-5.6601,-5.6601,-5.6601,-5.6601,-5.6601,-5.6601,-5.6601,-5.6601,-5.664,-5.7265,-5.7539,-5.7617,-5.8242,-5.8476,-5.8555,-5.9023,-5.9219,-5.9219,-5.9219,-5.9023,-5.8789,-5.8555,-5.8476,-5.8476,-5.8476,-5.8476,-5.8476,-5.8476,-5.8047,-5.7539,-5.7539,-5.707,-5.6601,-5.6601,-5.6601,-5.6601,-5.656,-5.646,-5.6377,-5.6285,-5.6232,-5.6222,-5.6344,-5.6456,-5.656,-5.6601,-5.6601,-5.6601,-5.6601,-5.6454,-5.6289,-5.6202,-5.6116,-5.6022,-5.5924,-5.6019,-5.6146,-5.6191,-5.6152,-5.6128,-5.6128,-5.5962,-5.5891,-5.587,-5.5768,-5.5703,-5.5703,-5.5954,-5.611,-5.6197,-5.6377,-5.6043,-5.3047,-5.3203,-5.2656,-4.7617,-4.6953,-4.6445,-4.2226,-4.3125,-4.4375,-4.2734,-4.4336,-4.5508,-4.3906,-4.2687,-4.1412,-3.9792,-3.9414,0.0,0.0,-3.5577,-3.6267,-3.7976,-3.987,-4.109,-4.1142,-3.9761,-4.0583,-4.4703,-4.3512,-4.4805,-4.9961,-5.1016,-5.2266,-5.3984,-5.4883,-5.5742,-5.6601,-5.6601,-5.6601,-5.6601,-5.6601,-5.6601,-5.6601,-5.6601,-5.6601,-5.6601,-5.6601,-5.6601,-5.6601,-5.664,-5.664,-5.664,-5.668,-5.668,-5.6875,-5.8594,-5.9219,-5.9219,-5.9219,-5.8633,-5.7812,-5.6953,-5.668,-5.668,-5.668,-5.668,-5.668,-5.668,-5.664,-5.664,-5.664,-5.6601,-5.6601,-5.6601,-5.6601,-5.6561,-5.6445,-5.6391,-5.6301,-5.5976,-5.6091,-5.6197,-5.6197,-5.6336,-5.6454,-5.6562,-5.6601,-5.6601,-5.6601,-5.6374,-5.6197,-5.6191,-5.5913,-5.576,-5.5899,-5.5924,-5.5976,-5.6186,-5.6037,-5.5932,-5.5932,-5.5885,-5.5852,-5.5724,-5.5714,-5.5703,-5.5703,-5.5724,-5.5879,-5.6202,-5.6462,-5.6133,-5.5332,-5.5753,-5.5274,-5.0576,-4.9271,-4.8016,-4.3684,-4.39,-4.4492,-4.2773,-4.4492,-4.5781,-4.4023,-4.2807,-4.1727,-4.0645,-3.9336,-3.7546,0.0,-3.372,-3.3499,0.0,0.0,0.0,-3.8352,-3.8373,-3.9722,-4.2944,-4.2131,-4.3509,-4.8242,-4.9844,-5.1133,-5.2226,-5.4258,-5.543,-5.5742,-5.6328,-5.6601,-5.6601,-5.6601,-5.6601,-5.6601,-5.6601,-5.6601,-5.6601,-5.6601,-5.6601,-5.6601,-5.6601,-5.6601,-5.6601,-5.6601,-5.6601,-5.668,-5.7265,-5.7461,-5.7461,-5.7461,-5.7305,-5.6992,-5.6719,-5.6601,-5.6601,-5.6601,-5.6601,-5.6601,-5.6601,-5.6601,-5.6601,-5.6601,-5.6601,-5.6601,-5.6601,-5.6517,-5.6456,-5.6394,-5.6251,-5.6039,-5.5909,-5.5866,-5.5954,-5.6158,-5.6232,-5.6358,-5.6561,-5.6601,-5.6601,-5.6601,-5.6371,-5.6191,-5.6191,-5.5896,-5.5707,-5.576,-5.5769,-5.5798,-5.5852,-5.5817,-5.5769,-5.5769,-5.5769,-5.5758,-5.5714,-5.5703,-5.5703,-5.5703,-5.5808,-5.5963,-5.6197,-5.6383,-5.6357,-5.6943,-5.7203,-5.6683,-5.2944,-5.144,-4.9854,-4.5875,-4.5932,-4.6367,-4.4609,-4.5859,-4.6992,-4.6172,-4.4367,-4.2661,-4.1548,-3.9735,-3.7353,0.0,-3.2833,-3.2401,0.0,0.0,0.0,0.0,-3.6657,-3.7939,-4.1476,-4.0738,-4.2131,-4.6831,-4.8749,-5.0234,-5.1367,-5.3633,-5.5,-5.5312,-5.6172,-5.6601,-5.6601,-5.6601,-5.6601,-5.6601,-5.6601,-5.6601,-5.6601,-5.6601,-5.6601,-5.6601,-5.6601,-5.6601,-5.6601,-5.6601,-5.6601,-5.6601,-5.6601,-5.6601,-5.6601,-5.6601,-5.6601,-5.6601,-5.6601,-5.6601,-5.6601,-5.6601,-5.6601,-5.6601,-5.6601,-5.6601,-5.6601,-5.6601,-5.6601,-5.6601,-5.6601,-5.6508,-5.6383,-5.6354,-5.6102,-5.5899,-5.5852,-5.575,-5.5769,-5.6057,-5.611,-5.6227,-5.656,-5.6601,-5.6601,-5.6601,-5.6371,-5.6191,-5.6191,-5.5896,-5.5703,-5.5703,-5.5703,-5.5703,-5.5703,-5.5703,-5.5703,-5.5703,-5.5703,-5.5703,-5.5703,-5.5703,-5.5703,-5.5703,-5.5798,-5.5915,-5.611,-5.6256,-5.6377]},{"header":{"parameterUnit":"m.s-1","parameterCategory":1,"la1":30.6,"la2":29.2853,"lo1":-89.7004,"lo2":-87.6739,"dy":0.0162,"dx":0.0183,"nx":112,"ny":82,"refTime":"2024-06-04T06:00:00:Z","depth":0,"parameterNumber":3,"parameterNumberName":"V-component_of_WINDS"},"data":[0.0,0.0,0.0,0.0,0.0,0.0,0.0,0.0,0.0,0.0,0.0,0.0,0.0,0.0,0.0,0.0,0.0,0.0,0.0,0.0,0.0,0.0,0.0,0.0,0.0,0.0,0.0,0.0,0.0,0.0,0.0,0.0,0.0,0.0,0.0,0.0,0.0,0.0,0.0,0.0,0.0,0.0,0.0,0.0,0.0,0.0,0.0,0.0,0.0,0.0,0.0,0.0,0.0,0.0,0.0,0.0,0.0,0.0,0.0,0.0,0.0,0.0,0.0,0.0,0.0,0.0,0.0,0.0,0.0,0.0,0.0,0.0,0.0,0.0,0.0,0.0,0.0,0.0,0.0,0.0,0.0,0.0,0.0,0.0,0.0,0.0,0.0,0.0,0.0,0.0,-0.6105,-0.6797,-0.7523,-0.744,-0.6089,-0.4793,-0.2847,-0.0153,0.0,0.0,0.0,0.0,0.0,0.0,0.0,0.0,0.0,0.0,0.0,0.0,0.0,0.0,0.0,0.0,0.0,0.0,0.0,0.0,0.0,0.0,0.0,0.0,0.0,0.0,0.0,0.0,0.0,0.0,0.0,0.0,0.0,0.0,0.0,0.0,0.0,0.0,0.0,0.0,0.0,0.0,0.0,0.0,0.0,0.0,0.0,0.0,0.0,0.0,0.0,0.0,0.0,0.0,0.0,0.0,0.0,0.0,0.0,0.0,0.0,0.0,0.0,0.0,0.0,0.0,0.0,0.0,0.0,0.0,0.0,0.0,0.0,0.0,0.0,0.0,0.0,0.0,0.0,0.0,0.0,0.0,0.0,0.0,0.0,0.0,0.0,0.0,0.0,0.0,0.0,0.0,0.0,0.0,0.0,0.0,0.0,0.0,0.0,0.0,0.0,0.0,0.0,0.0,-0.6377,-0.7522,-0.7833,-0.7478,-0.6106,-0.4771,-0.3087,-0.0859,0.0,0.0,0.0,0.0,0.0,0.0,0.0,0.0,0.0,0.0,0.0,0.0,0.0,0.0,0.0,0.0,0.0,0.0,0.0,0.0,0.0,0.0,0.0,0.0,0.0,0.0,0.0,0.0,0.0,0.0,0.0,0.0,0.0,0.0,0.0,0.0,0.0,0.0,0.0,0.0,0.0,0.0,0.0,0.0,0.0,0.0,0.0,0.0,0.0,0.0,0.0,0.0,0.0,0.0,0.0,0.0,0.0,0.0,0.0,0.0,0.0,0.0,0.0,0.0,0.0,0.0,0.0,0.0,0.0,0.0,0.0,0.0,0.0,0.0,0.0,0.0,0.0,0.0,0.0,0.0,0.0,0.0,0.0,0.0,0.0,0.0,0.0,0.0,0.0,0.0,0.0,0.0,0.0,0.0,0.0,0.0,0.0,0.0,0.0,0.0,0.0,0.0,0.0,-0.6098,-0.679,-0.7779,-0.7948,-0.7739,-0.7135,-0.5197,-0.3431,-0.2081,0.0467,0.0,0.0,0.0,0.0,0.0,0.0,0.0,0.0,0.0,0.0,0.0,0.0,0.0,0.0,0.0,0.0,0.0,0.0,0.0,0.0,0.0,0.0,0.0,0.0,0.0,0.0,0.0,0.0,0.0,0.0,0.0,0.0,0.0,0.0,0.0,0.0,0.0,0.0,0.0,0.0,0.0,0.0,0.0,0.0,0.0,0.0,0.0,0.0,0.0,0.0,0.0,0.0,0.0,0.0,0.0,0.0,0.0,0.0,0.0,0.0,0.0,0.0,0.0,0.0,0.0,0.0,0.0,0.0,0.0,0.0,0.0,0.0,0.0,0.0,0.0,0.0,0.0,0.0,0.0,0.0,0.0,0.0,0.0,0.0,0.0,0.0,0.0,0.0,0.0,0.0,0.0,0.0,0.0,0.0,0.0,0.0,0.0,0.0,0.0,0.0,0.0,0.0,-0.6749,-0.7163,-0.7907,-0.7988,-0.7988,-0.7988,-0.5556,-0.3769,-0.3182,-0.0035,0.0,0.0,0.0,0.0,0.0,0.0,0.0,0.0,0.0,0.0,0.0,0.0,0.0,0.0,0.0,0.0,0.0,0.0,0.0,0.0,0.0,0.0,0.0,0.0,0.0,0.0,0.0,0.0,0.0,0.0,0.0,0.0,0.0,0.0,0.0,0.0,0.0,0.0,0.0,0.0,0.0,0.0,0.0,0.0,0.0,0.0,0.0,0.0,0.0,0.0,0.0,0.0,0.0,0.0,0.0,0.0,0.0,0.0,0.0,0.0,0.0,0.0,0.0,0.0,0.0,0.0,0.0,0.0,0.0,0.0,0.0,0.0,0.0,0.0,0.0,0.0,0.0,0.0,0.0,0.0,0.0,0.0,0.0,0.0,0.0,0.0,0.0,0.0,0.0,0.0,0.0,0.0,0.0,0.0,0.0,0.0,0.0,0.0,0.0,0.0,0.0,0.0,-0.6941,-0.7509,-0.7941,-0.7988,-0.7988,-0.7988,-0.5532,-0.3974,-0.3929,-0.0331,0.0,0.0,0.0,0.0,0.0,0.0,0.0,0.0,0.0,0.0,0.0,0.0,0.0,0.0,0.0,0.0,0.0,0.0,0.0,0.0,0.0,0.0,0.0,0.0,0.0,0.0,0.0,0.0,0.0,0.0,0.0,0.0,0.0,0.0,0.0,0.0,0.0,0.0,0.0,0.0,0.0,0.0,0.0,0.0,0.0,0.0,0.0,0.0,0.0,0.0,0.0,0.0,0.0,0.0,0.0,0.0,0.0,0.0,0.0,0.0,0.0,0.0,0.0,0.0,0.0,0.0,0.0,0.0,0.0,0.0,0.0,0.0,0.0,0.0,0.0,0.0,0.0,0.0,0.0,0.0,0.0,0.0,0.0,0.0,0.0,0.0,0.0,0.0,0.0,0.0,0.0,0.0,0.0,0.0,0.0,0.0,0.0,0.0,0.0,0.0,0.0,0.0,-0.6749,-0.7339,0.0,-0.7988,-0.7988,-0.7988,-0.6158,-0.4722,-0.4056,0.0,0.0,0.0,0.0,0.0,0.0,0.0,0.0,0.0,0.0,0.0,0.0,0.0,0.0,0.0,0.0,0.0,0.0,0.0,0.0,0.0,0.0,0.0,0.0,0.0,0.0,0.0,0.0,0.0,0.0,0.0,0.0,0.0,0.0,0.0,0.0,0.0,0.0,0.0,0.0,0.0,0.0,0.0,0.0,0.0,0.0,0.0,0.0,0.0,0.0,0.0,0.0,0.0,0.0,0.0,0.0,0.0,0.0,0.0,0.0,0.0,0.0,0.0,0.0,0.0,0.0,0.0,0.0,0.0,0.0,0.0,0.0,0.0,0.0,0.0,0.0,0.0,0.0,0.0,0.0,0.0,0.0,0.0,0.0,0.0,0.0,0.0,0.0,0.0,0.0,0.0,0.0,0.0,0.0,0.0,0.0,0.0,0.0,0.0,0.0,0.0,0.0,-0.6069,-0.6776,-0.7328,0.0,-0.7988,-0.7988,-0.7988,-0.6514,-0.5132,-0.4051,0.0,0.0,0.0,0.0,0.0,0.0,0.0,0.0,0.0,0.0,0.0,0.0,0.0,0.0,0.0,0.0,0.0,0.0,0.0,0.0,0.0,0.0,0.0,0.0,0.0,0.0,0.0,0.0,0.0,0.0,0.0,0.0,0.0,0.0,0.0,0.0,0.0,0.0,0.0,0.0,0.0,0.0,0.0,0.0,0.0,0.0,0.0,0.0,0.0,0.0,0.0,0.0,0.0,0.0,0.0,0.0,0.0,0.0,0.0,0.0,0.0,0.0,0.0,0.0,0.0,0.0,0.0,0.0,0.0,0.0,0.0,0.0,0.0,0.0,0.0,0.0,0.0,0.0,0.0,0.0,0.0,0.0,0.0,0.0,0.0,0.0,0.0,0.0,0.0,0.0,0.0,0.0,0.0,0.0,0.0,0.0,0.0,0.0,0.0,0.0,0.0,0.0,-0.6065,-0.7048,-0.7712,-0.7961,-0.7988,-0.7988,-0.7988,-0.654,-0.5135,0.0,0.0,0.0,0.0,0.0,0.0,0.0,0.0,0.0,0.0,0.0,0.0,0.0,0.0,0.0,0.0,0.0,0.0,0.0,0.0,0.0,0.0,0.0,0.0,0.0,0.0,0.0,0.0,0.0,0.0,0.0,0.0,0.0,0.0,0.0,0.0,0.0,0.0,0.0,0.0,0.0,0.0,0.0,0.0,0.0,0.0,0.0,0.0,0.0,0.0,0.0,0.0,0.0,0.0,0.0,0.0,0.0,0.0,0.0,0.0,0.0,0.0,0.0,0.0,0.0,0.0,0.0,0.0,0.0,0.0,0.0,0.0,0.0,0.0,0.0,0.0,0.0,0.0,0.0,0.0,0.0,0.0,0.0,0.0,0.0,0.0,0.0,0.0,0.0,0.0,0.0,0.0,0.0,0.0,0.0,0.0,0.0,0.0,0.0,0.0,0.0,0.0,0.0,-0.5292,-0.6692,-0.7712,-0.7961,-0.7988,-0.7948,-0.7889,-0.7112,-0.5859,-0.3989,0.0,0.0,0.0,0.0,0.0,0.0,0.0,0.0,0.0,0.0,0.0,0.0,0.0,0.0,0.0,0.0,0.0,0.0,0.0,0.0,0.0,0.0,0.0,0.0,0.0,0.0,0.0,0.0,0.0,0.0,0.0,0.0,0.0,0.0,0.0,0.0,0.0,0.0,0.0,0.0,0.0,0.0,0.0,0.0,0.0,0.0,0.0,0.0,0.0,0.0,0.0,0.0,0.0,0.0,0.0,0.0,0.0,0.0,0.0,0.0,0.0,0.0,0.0,0.0,0.0,0.0,0.0,0.0,0.0,0.0,0.0,0.0,0.0,0.0,0.0,0.0,0.0,0.0,0.0,0.0,0.0,0.0,0.0,0.0,0.0,0.0,0.0,0.0,0.0,0.0,0.0,0.0,0.0,0.0,0.0,0.0,0.0,0.0,0.0,0.0,0.0,0.0,-0.5407,-0.6779,-0.7712,-0.7961,-0.7988,-0.7955,-0.7909,-0.7489,-0.6392,-0.4433,0.0,0.0,0.0,0.0,0.0,0.0,0.0,0.0,0.0,0.0,0.0,0.0,0.0,0.0,0.0,0.0,0.0,0.0,0.0,0.0,0.0,0.0,0.0,0.0,0.0,0.0,0.0,0.0,0.0,0.0,0.0,0.0,0.0,0.0,0.0,0.0,0.0,0.0,0.0,0.0,0.0,0.0,0.0,0.0,0.0,0.0,0.0,0.0,0.0,0.0,0.0,0.0,0.0,0.0,0.0,0.0,0.0,0.0,0.0,0.0,0.0,0.0,0.0,0.0,0.0,0.0,0.0,0.0,0.0,0.0,0.0,0.0,0.0,0.0,0.0,0.0,0.0,0.0,0.0,0.0,0.0,0.0,0.0,0.0,0.0,0.0,0.0,0.0,0.0,0.0,0.0,0.0,0.0,0.0,0.0,0.0,0.0,0.0,0.0,0.0,0.0,0.0,-0.6008,-0.7018,-0.7726,-0.7961,-0.7988,-0.7982,-0.7968,-0.7624,-0.6749,-0.5213,0.0,0.0,0.0,0.0,0.0,0.0,0.0,0.0,0.0,0.0,0.0,0.0,0.0,0.0,0.0,0.0,0.0,0.0,0.0,0.0,0.0,0.0,0.0,0.0,0.0,0.0,0.0,0.0,0.0,0.0,0.0,0.0,0.0,0.0,0.0,0.0,0.0,0.0,0.0,0.0,0.0,0.0,0.0,0.0,0.0,0.0,0.0,0.0,0.0,0.0,0.0,0.0,0.0,0.0,0.0,0.0,0.0,0.0,0.0,0.0,-0.1045,0.0,0.0,0.0,0.0,0.0,0.0,0.0,0.0,0.0,0.0,0.0,0.0,0.0,0.0,0.0,0.0,0.0,0.0,0.0,0.0,0.0,0.0,0.0,0.0,0.0,0.0,0.0,0.0,0.0,0.0,0.0,0.0,0.0,0.0,0.0,0.0,0.0,0.0,0.0,0.0,0.0,-0.5528,-0.6847,-0.7834,-0.7968,-0.7988,-0.7941,-0.7868,-0.7556,-0.6788,-0.5411,-0.4654,0.0,0.0,0.0,0.0,0.0,0.0,0.0,0.0,0.0,0.0,0.0,0.0,0.0,0.0,0.0,0.0,0.0,0.0,0.0,0.0,0.0,0.0,0.0,0.0,0.0,0.0,0.0,0.0,0.0,0.0,0.0,0.0,0.0,0.0,0.0,0.0,0.0,0.0,0.0,0.0,0.0,0.0,0.0,0.0,0.0,0.0,0.0,0.0,0.0,0.0,0.0,0.0,0.0,0.0,0.0,0.0,0.0,0.0,0.0,-0.2889,-0.2091,0.0,0.0,0.0,0.0,0.0,0.0,0.0,0.0,0.0,0.0,0.0,0.0,0.0,0.0,0.0,0.0,0.0,0.0,0.0,0.0,0.0,0.0,0.0,0.0,0.0,0.0,0.0,0.0,0.0,0.0,0.0,0.0,0.0,0.0,0.0,0.0,0.0,0.0,0.0,0.0,-0.5854,-0.7027,-0.7868,-0.7975,-0.7988,-0.7961,-0.788,-0.7651,-0.7117,-0.6175,-0.5301,0.0,0.0,0.0,0.0,0.0,0.0,0.0,0.0,0.0,0.0,0.0,0.0,0.0,0.0,0.0,0.0,0.0,0.0,0.0,0.0,0.0,0.0,0.0,0.0,0.0,0.0,0.0,0.0,0.0,0.0,0.0,0.0,0.0,0.0,0.0,0.0,0.0,0.0,0.0,0.0,0.0,0.0,0.0,0.0,0.0,0.0,0.0,0.0,0.0,0.0,0.0,0.0,0.0,-0.7216,-0.693,-0.701,-0.6147,-0.5778,-0.5737,-0.5509,-0.4995,-0.4251,-0.4041,0.0,0.0,0.0,0.0,0.0,0.0,0.0,0.0,0.0,0.0,0.0,0.0,0.0,0.0,0.0,0.0,0.0,0.0,0.0,0.0,0.0,0.0,-0.7352,-0.8531,-0.9164,-0.9017,-0.7188,0.0,0.0,0.0,0.0,0.0,0.0,0.0,0.0,0.0,0.0,0.0,-0.6492,-0.7326,-0.7896,-0.7975,-0.7988,-0.7988,-0.7988,-0.7767,-0.7428,-0.7034,-0.5934,-0.5057,0.0,0.0,0.0,0.0,0.0,0.0,0.0,0.0,0.0,0.0,0.0,0.0,0.0,0.0,0.0,0.0,0.0,0.0,0.0,0.0,0.0,0.0,0.0,0.0,0.0,0.0,0.0,0.0,0.0,0.0,0.0,0.0,-0.3954,-0.4351,0.0,0.0,0.0,0.0,0.0,0.0,0.0,0.0,0.0,0.0,0.0,0.0,0.0,-0.8004,-0.8248,-0.8825,-0.9062,-0.9009,-0.9245,-0.9261,-0.9169,-0.917,-0.9129,-0.9155,-0.9144,0.0,-0.4618,-0.4458,0.0,0.0,0.0,0.0,0.0,0.0,0.0,0.0,0.0,0.0,0.0,0.0,0.0,0.0,0.0,0.0,0.0,0.0,0.0,0.0,0.0,0.0,-0.9409,-0.9622,-1.0408,-1.1086,-1.0825,-1.0039,-0.93,-0.9055,-0.8624,-0.8122,0.0,0.0,0.0,0.0,0.0,0.0,-0.7037,-0.7564,-0.7968,-0.7988,-0.7988,-0.7988,-0.7988,-0.7767,-0.7516,-0.7326,-0.6586,-0.6011,-0.5778,-0.4511,0.0,0.0,0.0,0.0,0.0,0.0,0.0,0.0,0.0,0.0,0.0,0.0,0.0,0.0,0.0,0.0,0.0,0.0,0.0,0.0,0.0,0.0,0.0,0.0,0.0,0.0,0.0,0.0,0.0,-0.3558,-0.4806,-0.5359,-0.519,-0.4752,0.0,0.0,0.0,0.0,0.0,0.0,0.0,0.0,0.0,-0.8208,-0.8594,-0.8899,-0.911,-0.9544,-0.972,-0.9659,-0.9944,-1.0046,-0.9992,-1.0053,-1.008,-1.008,-1.008,-0.9156,-0.7663,-0.7152,-0.672,-0.6246,0.0,0.0,0.0,0.0,-0.6257,-0.6932,-0.6905,-0.5951,-0.4647,-0.431,0.0,0.0,0.0,0.0,0.0,0.0,0.0,-0.7048,-0.8226,-0.9208,-1.0359,-1.217,-1.2867,-1.3267,-1.4052,-1.3542,-1.2539,-1.1038,-1.1214,-1.1094,-0.9306,-0.9244,0.0,0.0,0.0,-0.9108,-0.8412,-0.8799,-0.8825,-0.8088,-0.7988,-0.7988,-0.7988,-0.7767,-0.757,-0.7502,-0.6959,-0.6525,-0.6288,-0.5548,-0.4584,0.0,0.0,0.0,0.0,0.0,0.0,0.0,0.0,0.0,0.0,0.0,0.0,0.0,0.0,0.0,0.0,0.0,0.0,0.0,0.0,0.0,0.0,0.0,0.0,0.0,0.0,0.0,0.0,-0.4703,-0.5659,-0.6284,-0.6135,-0.5889,0.0,0.0,0.0,0.0,0.0,0.0,-0.7026,-0.8073,-0.875,-0.9042,-0.9415,-0.9686,-0.9836,-1.0031,-1.0159,-1.0159,-1.0337,-1.0392,-1.0392,-1.0392,-1.0392,-1.0392,-1.0392,-1.0304,-1.0051,-0.9384,-0.8804,-0.8253,-0.7384,-0.7246,-0.753,-0.7119,-0.7326,-0.7834,-0.8289,-0.7452,-0.6073,-0.5557,-0.4454,-0.3019,-0.1121,0.0,0.0,0.0,0.0,-0.8004,-0.9609,-1.0635,-1.1824,-1.4256,-1.4858,-1.5208,-1.6183,-1.6218,-1.5413,-1.3104,-1.3474,-1.3478,-1.1349,-1.1265,0.0,-1.0088,-1.061,-1.0832,-1.0021,-1.0231,-1.0092,-0.9114,-0.8726,-0.8528,-0.8528,-0.7959,-0.7597,-0.7597,-0.7177,-0.681,-0.6539,-0.6247,-0.5337,-0.3787,0.0,0.0,0.0,0.0,0.0,0.0,0.0,0.0,0.0,0.0,0.0,0.0,0.0,0.0,0.0,0.0,0.0,0.0,0.0,0.0,0.0,0.0,0.0,0.0,0.0,0.0,0.0,0.0,0.0,-0.7272,-0.7516,0.0,0.0,0.0,0.0,-0.7589,-0.8186,-0.8696,-0.9055,-0.9374,-0.968,-0.9909,-1.0148,-1.0304,-1.0446,-1.0609,-1.0683,-1.0683,-1.0697,-1.0697,-1.0697,-1.0697,-1.0697,-1.0697,-1.0697,-1.0609,-1.0432,-0.9964,-0.9591,-0.93,-0.9137,-0.8981,-0.8797,-0.8756,-0.8811,-0.8811,-0.8838,-0.7926,-0.6899,-0.8211,-0.7673,-0.5941,-0.2987,-0.3974,0.0,0.0,-0.8287,-1.0272,-1.0587,-1.2588,-1.4601,-1.4737,-1.572,-1.6587,-1.6687,-1.7351,-1.7403,-1.5589,-1.4812,-1.4376,-1.3946,0.0,-1.3177,-1.2265,-1.2357,-1.2294,-1.1656,-1.1692,-1.1804,-1.1707,-1.0632,-0.9903,-0.9903,-0.8479,-0.7597,-0.7597,-0.7177,-0.6858,-0.6695,-0.6443,-0.5308,-0.3197,-0.2989,0.0,0.0,0.0,0.0,0.0,0.0,0.0,0.0,0.0,0.0,0.0,0.0,0.0,0.0,0.0,0.0,0.0,0.0,0.0,0.0,0.0,0.0,0.0,0.0,0.0,0.0,0.0,0.0,-0.7965,-0.8208,0.0,-0.8031,-0.8282,-0.852,-0.8662,-0.9055,-0.9415,-0.9713,-0.993,-1.0134,-1.0324,-1.048,-1.0588,-1.0636,-1.069,-1.0717,-1.0717,-1.0717,-1.0717,-1.0717,-1.0717,-1.0717,-1.0717,-1.0717,-1.069,-1.0629,-1.0466,-1.0168,-0.9802,-0.9747,-0.9639,-0.9496,-0.9401,-0.9374,-0.9354,-0.9259,-0.89,-0.832,-0.7794,-0.6591,-0.5383,-0.5062,-0.5672,-0.6799,-0.867,-0.9871,-1.105,-1.307,-1.4326,-1.5315,-1.638,-1.6806,-1.7045,-1.7045,-1.7105,-1.7015,-1.637,-1.6411,-1.6086,-1.4613,-1.4589,-1.4537,-1.3814,-1.4129,-1.4093,-1.3222,-1.3143,-1.2861,-1.1999,-1.0779,-1.0002,-1.0002,-0.8527,-0.7556,-0.7461,-0.7122,-0.6817,-0.6566,-0.6402,-0.5513,-0.3844,-0.3201,-0.2161,0.0,0.0,0.0,0.0,0.0,0.0,0.0,0.0,0.0,0.0,0.0,0.0,0.0,0.0,0.0,0.0,0.0,0.0,0.0,0.0,0.0,0.0,0.0,0.0,0.0,-0.7315,-0.8153,-0.8459,-0.8804,-0.8954,-0.8798,-0.9103,-0.9354,-0.9449,-0.9734,-0.9992,-1.0188,-1.0344,-1.0473,-1.0568,-1.067,-1.0717,-1.0717,-1.0717,-1.0717,-1.0717,-1.0717,-1.0717,-1.0717,-1.0717,-1.0717,-1.0717,-1.0717,-1.0717,-1.0717,-1.0717,-1.0548,-1.0206,-1.0222,-1.0107,-0.9964,-0.9869,-0.9802,-0.9727,-0.953,-0.9456,-0.9182,-0.7499,-0.6644,-0.6448,-0.7148,-0.7708,-0.8608,-1.0896,-1.193,-1.2745,-1.4751,-1.5648,-1.6285,-1.7371,-1.7435,-1.734,-1.734,-1.7112,-1.686,-1.686,-1.7051,-1.6767,-1.534,-1.5351,-1.5404,-1.5017,-1.5297,-1.5277,-1.4626,-1.4555,-1.422,-1.3307,-1.2086,-1.1112,-1.0681,-0.9131,-0.7959,-0.7494,-0.7075,-0.6736,-0.6525,-0.6375,-0.5632,-0.4231,-0.3301,-0.253,-0.1946,0.0,0.0,0.0,0.0,0.0,0.0,0.0,0.0,0.0,0.0,0.0,0.0,0.0,0.0,0.0,0.0,0.0,0.0,0.0,0.0,0.0,0.0,0.0,-0.753,-0.814,-0.8628,-0.8871,-0.9361,-0.9571,-0.9422,-0.9802,-1.0004,-1.0004,-1.0331,-1.05,-1.05,-1.0636,-1.0717,-1.0717,-1.0717,-1.0717,-1.0717,-1.0717,-1.0717,-1.0717,-1.0717,-1.0717,-1.0717,-1.0717,-1.0717,-1.0784,-1.0784,-1.0784,-1.085,-1.085,-1.085,-1.0836,-1.062,-1.0412,-1.029,-1.0354,-1.0314,-1.0136,-0.984,-0.9737,-0.9473,-0.7838,-0.8323,-0.9521,-0.932,-1.0227,-1.1672,-1.3019,-1.4363,-1.5435,-1.5476,-1.6552,-1.7582,-1.7582,-1.7582,-1.7582,-1.7582,-1.742,-1.7219,-1.7219,-1.675,-1.6348,-1.6273,-1.6019,-1.5784,-1.5784,-1.5784,0.0,-1.5784,-1.5784,-1.5784,-1.5784,-1.4651,-1.3343,-1.1999,-1.0324,-0.8794,-0.767,-0.7027,-0.6634,-0.6518,-0.6368,-0.5626,-0.4231,-0.3223,-0.3006,-0.3616,0.0,0.0,0.0,0.0,0.0,0.0,0.0,0.0,0.0,0.0,0.0,0.0,0.0,0.0,0.0,0.0,0.0,0.0,0.0,0.0,0.0,-0.7098,-0.8031,-0.8241,-0.8852,-0.9367,-0.9557,-0.9883,-1.008,-1.0039,-1.0236,-1.0371,-1.0371,-1.0548,-1.0656,-1.0656,-1.0697,-1.0717,-1.0717,-1.0717,-1.0717,-1.0717,-1.0717,-1.0717,-1.0717,-1.0717,-1.0717,-1.0717,-1.0717,-1.1372,-1.261,-1.261,-1.3325,-1.4493,-1.4493,-1.4493,-1.4223,-1.1644,-1.0636,-1.0713,-1.1872,-1.3041,-1.3961,-1.3639,-1.3546,-1.337,-1.2651,-1.266,-1.2971,-1.2805,-1.3022,-1.3652,-1.5044,-1.5626,-1.5976,-1.7029,-1.7423,-1.7582,-1.7582,-1.7582,-1.7582,-1.7582,-1.7515,-1.7514,-1.7514,-1.7219,-1.6817,-1.6402,-1.6019,-1.5784,-1.5784,-1.5784,-1.5784,-1.5784,-1.5784,-1.5784,-1.5784,-1.4651,-1.3343,-1.1999,-1.0397,-0.881,-0.7323,-0.6912,-0.6634,-0.6518,-0.6227,-0.5488,-0.4226,-0.3415,-0.3226,0.0,0.0,0.0,0.0,0.0,0.0,0.0,0.0,0.0,0.0,0.0,0.0,0.0,0.0,0.0,0.0,0.0,0.0,0.0,0.0,0.0,0.0,-0.8164,-0.8974,-0.9035,-0.9422,-0.9795,-1.0073,-1.0263,-1.0392,-1.046,-1.0541,-1.0588,-1.0588,-1.067,-1.0717,-1.0717,-1.0778,-1.0745,-1.0745,-1.0873,-1.0907,-1.0907,-1.0907,-1.0907,-1.0907,-1.0846,-1.0745,-1.0812,-1.1468,-1.2347,-1.3325,-1.4101,-1.4939,-1.5913,-1.5913,-1.5913,-1.5719,0.0,0.0,0.0,0.0,-1.4804,-1.5555,-1.533,-1.5126,-1.4943,-1.4748,-1.4595,-1.4542,-1.4995,-1.5091,-1.541,-1.6794,-1.7104,-1.7131,-1.7805,-1.7862,-1.7742,-1.7609,-1.7582,-1.7582,-1.7582,-1.7582,-1.7582,-1.7582,-1.7393,0.0,-1.675,-1.6299,-1.5979,-1.5798,-1.5784,-1.5784,-1.5784,-1.5784,-1.5784,-1.5784,-1.4651,-1.3343,-1.1999,-1.0443,0.0,0.0,0.0,-0.6675,-0.6436,-0.6152,0.0,0.0,0.0,0.0,0.0,-0.5015,0.0,0.0,-0.5291,-0.5318,0.0,0.0,0.0,0.0,0.0,0.0,0.0,0.0,0.0,0.0,0.0,0.0,0.0,0.0,0.0,0.0,-0.9083,-0.9693,-0.9869,-0.9897,-1.0046,-1.0446,-1.0507,-1.0568,-1.0704,-1.0717,-1.0717,-1.0717,-1.0717,-1.0724,-1.0744,-1.0806,0.0,0.0,0.0,-1.1234,-1.1234,-1.1234,-1.1234,-1.1227,-1.1036,-1.1029,-1.1212,-1.2648,-1.3538,-1.397,-1.5524,-1.6302,-1.6496,-1.6496,-1.6496,-1.6431,-1.6043,-1.6043,-1.6152,-1.6074,-1.6118,-1.6287,-1.6127,0.0,0.0,-1.554,-1.5382,-1.5338,-1.646,-1.6863,-1.7101,-1.8259,-1.8571,-1.8477,-1.8155,-1.8062,-1.7969,-1.7702,-1.7635,-1.7622,-1.7595,-1.7582,-1.7582,-1.7582,-1.742,-1.7246,-1.7206,-1.671,-1.6179,-1.5912,-1.5798,-1.5784,-1.5784,-1.5784,-1.5784,-1.5784,-1.4651,0.0,-1.1999,-1.047,-0.8995,-0.7691,-0.719,-0.6763,-0.6368,-0.6193,-0.6074,-0.604,-0.606,-0.6227,-0.6511,-0.6532,-0.6545,-0.6545,-0.5863,-0.5829,0.0,0.0,0.0,0.0,0.0,0.0,0.0,0.0,0.0,0.0,0.0,0.0,0.0,0.0,0.0,-0.8886,-0.9429,-0.9917,-1.0304,-1.0365,-1.0392,-1.048,-1.0602,-1.0683,-1.0717,-1.0717,-1.0717,-1.0717,-1.0717,-1.0772,-1.0833,-1.0867,-1.1002,-1.1118,-1.1151,-1.1234,-1.1234,-1.1234,-1.1234,-1.1234,-1.1131,0.0,-1.3009,-1.3303,-1.4913,-1.7538,-1.7859,-1.8768,-2.0068,-2.0068,-2.0068,-1.9801,-1.7012,-1.6754,-1.7976,-1.7995,-1.8824,-2.0004,-1.9799,-1.9456,-1.9175,-1.8958,-1.8703,-1.8519,-1.8758,-1.8861,0.0,-1.9154,-1.9025,-1.8824,-1.8715,-1.8584,-1.833,-1.7969,-1.7902,-1.7836,-1.7635,-1.7582,-1.7582,-1.7582,-1.7542,-1.7474,-1.7246,-1.671,-1.6308,-1.6192,-1.5979,-1.5784,-1.5784,-1.5784,-1.5784,-1.5784,-1.4651,-1.3343,-1.1999,-1.0551,-0.9131,-0.7698,-0.724,-0.691,-0.6627,-0.6709,-0.6641,-0.639,-0.6505,-0.6539,-0.6511,-0.66,-0.6722,-0.6831,-0.6566,-0.6437,0.0,0.0,0.0,0.0,0.0,0.0,0.0,0.0,0.0,0.0,0.0,-0.5481,0.0,0.0,-0.8974,-0.9415,-0.9863,-1.0236,-1.046,-1.0561,-1.0609,-1.0609,-1.067,-1.0717,-1.0717,-1.0717,-1.0717,-1.0717,-1.0792,-1.0799,-1.088,-1.109,-1.1206,-1.1274,-1.1348,-1.1389,-1.1389,-1.1389,-1.1389,-1.1389,-1.2278,-1.308,-1.3874,-1.5558,-1.7183,-1.8765,-1.948,-2.0322,-2.1109,-2.1109,-2.1109,-2.0919,-1.9164,-1.9024,-1.9801,-1.9801,-2.0322,-2.1082,-2.0949,-2.0695,-2.0401,-2.0107,-1.9826,-1.9559,-1.947,-1.943,-1.943,-1.943,-1.9265,-1.9118,-1.8958,-1.8811,-1.8637,-1.8343,-1.7585,-1.6888,-1.6791,-1.6599,-1.6287,-1.5583,-1.6605,-1.7318,-1.6428,-1.6535,-1.6656,-1.6362,-1.6152,-1.6005,-1.5798,-1.5784,-1.5784,-1.5784,-1.4076,-1.2619,-1.195,-1.0018,-0.8494,-0.776,-0.7495,-0.7272,-0.7048,-0.7109,-0.7075,-0.6968,-0.6919,-0.6919,-0.6962,-0.7,-0.7075,-0.7149,-0.7149,-0.7068,0.0,0.0,0.0,0.0,0.0,0.0,0.0,0.0,-0.268,-0.4127,-0.559,-0.7059,-0.8421,-0.9103,-0.9564,-0.9863,-1.0236,-1.05,-1.0534,-1.0643,-1.0717,-1.0717,-1.0717,-1.0717,-1.0717,-1.0717,-1.0717,-1.0717,-1.0793,-1.0894,-1.0989,-1.1246,-1.1402,-1.1436,-1.1552,-1.1619,-1.1619,-1.1619,-1.1619,-1.1619,-1.3373,-1.4388,-1.4822,-1.7705,-1.9209,-1.954,-2.0643,-2.1109,-2.1109,-2.1109,-2.1109,-2.1109,-2.1109,-2.1109,-2.1109,-2.1109,-2.1109,-2.1109,-2.1109,-2.0922,-2.0641,-2.0401,-2.008,-1.976,-1.9519,-1.947,-1.943,-1.943,-1.943,-1.9319,-1.9078,-1.877,-1.8464,-1.8177,-1.6796,-1.5542,-1.5439,-1.5201,-1.4773,-1.3868,-1.5583,-1.6869,-1.5956,-1.6637,-1.7085,-1.6446,-1.6313,-1.6166,-1.5824,-1.5784,-1.5784,-1.5784,-1.3451,-1.1707,-1.117,-0.9137,-0.7841,-0.7814,-0.7706,-0.7577,-0.7421,-0.746,-0.746,-0.746,-0.7292,-0.7292,-0.746,-0.746,-0.746,-0.7421,-0.7543,-0.7536,0.0,0.0,0.0,0.0,0.0,-0.0391,0.0,0.0,-0.3221,-0.6008,-0.6809,-0.7472,-0.9017,-0.9551,-0.9869,-1.0181,-1.0378,-1.0541,-1.0677,-1.0711,-1.0717,-1.0717,-1.0717,-1.0717,-1.0717,-1.0717,-1.0717,-1.0717,-1.0793,-1.1002,-1.1131,-1.1301,-1.145,-1.1592,-1.1613,-1.1619,-1.1619,-1.1619,-1.1619,-1.1619,-1.35,-1.5149,-1.655,-1.8351,-1.9981,-2.1265,-2.1166,-2.1109,-2.1109,-2.1109,-2.1109,-2.1109,-2.1109,-2.1109,-2.1109,-2.1109,-2.1109,-2.1109,-2.1109,-2.0922,-2.0668,-2.0641,-2.0254,-1.9786,-1.976,-1.9573,-1.943,-1.943,-1.943,-1.9417,-1.9332,-1.8293,-1.7159,-1.677,-1.553,-1.4302,-1.3856,-1.3754,-1.4001,-1.4976,-1.5411,-1.6009,-1.7147,-1.745,-1.7328,-1.674,-1.6433,-1.6166,-1.5824,-1.5784,-1.5784,-1.5784,-1.3451,-1.0974,-0.8627,-0.8173,-0.7907,-0.7821,-0.7794,-0.7726,-0.7584,-0.7577,-0.7577,-0.7577,-0.7556,-0.7556,-0.7577,-0.7577,-0.7577,-0.7577,-0.759,-0.759,0.0,0.0,0.0,0.0,-0.0729,-0.1653,-0.2341,-0.3895,-0.5528,-0.6751,-0.7858,-0.8728,-0.9386,-0.9829,-1.0127,0.0,-1.0473,-1.0649,-1.0711,-1.0717,-1.0683,-1.0595,-1.0663,-1.0717,-1.0717,-1.0717,-1.0717,-1.0717,-1.0941,-1.1097,-1.1227,-1.1396,-1.1552,-1.1619,-1.1619,-1.1619,-1.1619,-1.2674,-1.3238,-1.3238,-1.6263,-1.8106,-1.8761,-2.0374,-2.1251,-2.1601,-2.1243,-2.1109,-2.1109,-2.1109,-2.1109,-2.0982,-2.0005,-1.961,-1.9737,-2.0716,-2.1109,-2.1109,-2.1109,-2.1029,-2.0895,-2.0735,-2.0508,-2.0241,-1.9907,-1.972,-1.9586,-1.9412,-1.8706,-1.7981,-1.7981,-1.6797,-1.5585,-1.5429,-1.4122,-1.287,-1.2648,-1.2429,-1.2126,-1.1824,-1.3073,-1.4126,-1.3857,-1.5198,-1.6203,-1.5766,-1.6199,-1.642,-1.6126,-1.5939,-1.5201,-1.3692,-1.1891,-1.0043,-0.8137,-0.7988,-0.7961,-0.7901,-0.7894,-0.7867,-0.7855,-0.7855,-0.7855,-0.7855,-0.7767,-0.7726,-0.7726,-0.7726,-0.7726,-0.7726,-0.7814,-0.7855,0.0,0.0,0.0,0.0,-0.1286,-0.26,-0.3057,-0.5225,-0.7311,-0.7754,-0.8797,-0.968,-0.9727,-0.9998,-1.0243,-1.0324,-1.0521,-1.067,-1.0717,-1.0683,-1.0629,-1.0561,-1.0616,-1.0677,-1.0717,-1.0717,-1.0717,-1.0717,-1.0995,-1.1234,-1.1234,-1.145,-1.1619,-1.1619,-1.1619,-1.1619,-1.1619,-1.3452,-1.4432,-1.4432,-1.8299,-2.0132,-2.012,-2.1636,-2.2031,-2.1601,-2.1243,-2.1109,-2.1109,-2.1109,-2.1109,-2.0919,-1.9164,-1.8512,-1.8576,-1.9355,-2.0005,-2.0449,-2.0906,-2.1109,-2.1069,-2.0869,-2.0735,-2.0601,-2.0174,-1.9621,-1.9081,-1.8874,-1.762,-1.6315,-1.6315,-1.5133,-1.3944,-1.3944,-1.2643,-1.1406,-1.1366,-1.1091,-1.0599,-0.9893,-1.1381,-1.2628,-1.2354,-1.4019,-1.5459,-1.57,-1.6381,-1.67,-1.6375,-1.5717,-1.4424,-1.2145,-1.0779,-0.946,-0.8137,-0.7988,-0.7988,-0.7988,-0.7988,-0.7988,-0.7988,-0.7988,-0.7988,-0.7988,-0.788,-0.7875,-0.7875,-0.7875,-0.7875,-0.7875,-0.7941,-0.7988,0.0,0.0,0.0,0.0,-0.1255,-0.293,-0.449,-0.616,-0.7823,-0.9405,-0.9748,-0.9863,-0.995,-0.9984,-1.0148,-1.0439,-1.0493,-1.0548,-1.0697,-1.0595,-1.0555,-1.0697,-1.0588,-1.0555,-1.0704,-1.0717,-1.0717,-1.0717,-1.0995,-1.1234,-1.1234,-1.145,-1.1619,-1.1619,-1.1619,-1.1619,-1.1619,-1.3452,-1.4432,-1.4432,-1.8299,-2.0132,-2.0108,-2.1443,-2.183,-2.1601,-2.1243,-2.1109,-2.1109,-2.1109,-2.1109,-2.0919,-1.9164,-1.8512,-1.8308,-1.6689,-1.7141,-1.8832,-2.0526,-2.1109,-2.1109,-2.1096,-2.0909,-2.0668,-2.0655,-1.9181,-1.7469,-1.7457,-1.6078,-1.4658,-1.4658,-1.3467,-1.2277,-1.2277,-1.1012,-0.9835,-0.9698,-0.9657,-0.9966,-1.1053,-1.1307,-1.2183,-1.4804,-1.5358,-1.5902,-1.7292,-1.7328,-1.6978,-1.6402,-1.4921,-1.344,-1.2047,-1.0779,-0.946,-0.8137,-0.7988,-0.7988,-0.7988,-0.7988,-0.7988,-0.7988,-0.7988,-0.7988,-0.7988,-0.7982,-0.7982,-0.7982,-0.7982,-0.7982,-0.7982,-0.7988,-0.7988,0.0,0.0,0.0,0.0,-0.2081,-0.4216,-0.4764,-0.704,-0.9125,-0.9566,-0.9598,-0.951,-0.9462,-0.9618,-0.9822,-1.0012,-1.0297,-1.0548,-1.0697,-1.0677,-1.0622,-1.0575,-1.0616,0.0,0.0,-1.0663,-1.0717,-1.0717,-1.0995,-1.1234,-1.1234,-1.145,-1.1619,-1.1619,-1.1619,-1.1619,-1.1619,-1.3452,-1.5062,-1.6333,-2.012,-2.1953,-2.1941,-2.2176,-2.2111,-2.1817,-2.1537,-2.1296,-2.1109,-2.1109,-2.0386,-1.9215,-1.7474,-1.6043,-1.5005,-1.4362,-1.4558,-1.5329,-1.7076,-1.7667,-1.7667,-1.7667,-1.761,-1.7446,-1.7289,-1.6746,-1.6043,-1.5735,-1.4448,-1.3098,-1.3024,-1.1796,-1.0604,-1.0604,-1.0179,-0.9808,-0.9761,-0.968,-0.9696,-1.0106,-1.0752,-1.1569,-1.2496,-1.4169,-1.5902,-1.7371,-1.7168,-1.6714,-1.6375,-1.4146,-1.2377,-1.195,-0.9944,-0.8478,-0.8038,-0.7988,-0.7988,-0.7988,-0.7988,-0.7988,-0.7988,-0.7988,-0.7988,-0.7988,-0.7988,-0.7988,-0.7988,-0.7988,-0.7988,-0.7988,-0.7988,-0.7988,0.0,0.0,0.0,0.0,-0.2457,-0.4919,-0.4906,-0.7398,-0.9707,-0.9557,-0.9408,-0.9252,-0.9103,-0.9239,-0.9469,-0.9774,-1.0059,-1.0358,-1.0677,-1.067,-1.0622,-1.0575,-1.0609,-1.0622,0.0,0.0,0.0,-1.0717,-1.0995,-1.1234,-1.1234,-1.145,-1.1619,-1.1619,-1.1619,-1.1619,-1.1619,-1.3452,-1.5345,-1.7248,-1.9704,-2.1239,-2.1872,-2.1577,-2.1644,-2.1977,-2.1748,-2.139,-2.1046,-2.0462,-1.9483,-1.8244,-1.5913,-1.4297,-1.3193,-1.261,-1.2347,-1.2742,-1.507,-1.5913,-1.5913,-1.5913,-1.5913,-1.5893,-1.5687,-1.514,-1.456,-1.4218,-1.2908,-1.1541,-1.1361,-1.0604,-0.9822,-0.9822,-0.9822,-0.9822,-0.9822,-1.0162,-1.0495,-1.0495,-1.1405,-1.2403,-1.2877,-1.4765,-1.6499,-1.7477,-1.7168,-1.6754,-1.646,-1.4276,-1.252,-1.196,-0.9993,-0.8528,-0.8038,-0.7988,-0.7988,-0.7988,-0.7988,-0.7988,-0.7988,-0.7988,-0.7988,-0.7988,-0.7988,-0.7988,-0.7988,-0.7988,-0.7988,-0.7988,-0.7988,-0.7988,0.0,0.0,0.0,0.0,-0.2497,-0.4855,-0.479,-0.7216,-0.9432,-0.9207,-0.9047,-0.8887,0.0,0.0,-0.899,-0.962,-0.9808,-1.0039,-1.0636,-1.0595,-1.0555,0.0,0.0,0.0,0.0,0.0,0.0,-1.0744,-1.1002,-1.1165,-1.1241,-1.1457,-1.1619,-1.1619,-1.1619,-1.1619,-1.1619,-1.3452,-1.5274,-1.7037,-1.7178,-1.8229,-2.012,-1.9804,-2.0503,-2.1977,-2.1762,-2.1403,-2.0982,-1.9228,-1.8436,-1.8052,-1.4623,-1.3259,-1.2997,-1.1306,-1.0717,-1.1174,-1.4493,-1.5654,-1.5654,-1.5654,-1.5654,-1.5654,-1.5654,-1.4419,-1.2956,-1.2843,-1.1416,-0.9963,-0.9869,-0.9829,-0.9822,-0.9822,-0.9822,-0.9822,-0.9883,-1.114,-1.2158,-1.2157,-1.3173,-1.4424,-1.5681,-1.6848,-1.7582,-1.7477,-1.7341,-1.7112,-1.6767,-1.5283,-1.3675,-1.2088,-1.0788,-0.946,-0.8137,-0.7988,-0.7988,-0.7988,-0.7988,-0.7988,-0.7988,-0.7988,-0.7988,-0.7988,-0.7988,-0.7988,-0.7988,-0.7988,-0.7988,-0.7988,-0.7988,-0.7988,0.0,0.0,0.0,0.0,-0.2455,-0.4597,-0.3396,-0.561,-0.758,-0.6209,-0.5795,-0.586,0.0,0.0,0.0,-0.8934,-0.9572,0.0,-1.0649,-1.0683,0.0,-1.0717,0.0,-1.0724,-1.0806,-1.0826,0.0,-1.1043,-1.1118,-1.1212,-1.1328,-1.1518,-1.1619,-1.1619,-1.1619,-1.1619,-1.1619,-1.3452,-1.4645,-1.5132,-1.6545,-1.8229,-2.012,-1.9992,-2.0675,-2.1977,-2.1911,-2.159,-2.0982,-1.9228,-1.7731,-1.6366,-1.4166,-1.2479,-1.1306,-1.085,-1.0717,-1.085,-1.1696,-1.2025,-1.2025,-1.2025,-1.2025,-1.2025,-1.2025,-1.1666,-1.1279,-1.112,-1.0714,-1.0188,-0.997,-0.9849,-0.9822,-0.9822,-0.9822,-1.0119,-1.1322,-1.1916,-1.256,-1.3699,-1.4772,-1.5602,-1.5846,-1.6848,-1.7252,-1.6115,-1.6818,-1.7368,-1.7125,-1.5457,-1.3793,-1.2401,-1.0919,-0.946,-0.8137,-0.7988,-0.7988,-0.7988,-0.7988,-0.7988,-0.7988,-0.7988,-0.7988,-0.7988,-0.7988,-0.7988,-0.7988,-0.7988,-0.7988,-0.7988,-0.7988,-0.7988,0.0,0.0,0.0,0.0,-0.191,-0.3633,-0.2723,-0.4447,-0.5917,-0.4841,-0.447,0.0,-0.5552,-0.6166,0.0,0.0,0.0,0.0,-1.0548,-1.0677,-1.0717,0.0,-1.0778,0.0,-1.0873,-1.1002,-1.1104,-1.1253,-1.126,-1.1301,-1.1389,-1.1538,-1.1619,-1.1619,-1.1619,-1.1619,-1.1619,-1.2674,-1.3167,-1.3167,-1.4227,-1.6202,-1.8868,-1.8868,-1.9986,-2.1991,-2.1991,-2.1254,-1.9801,-1.8052,-1.6302,-1.4623,-1.2865,-1.1571,-1.0717,-1.0717,-1.0717,-1.0717,-1.0717,-1.0717,-1.0717,-1.0717,-1.0717,-1.0717,-1.0717,-1.0717,-1.069,-1.0534,-1.0432,-1.0324,-1.0044,-0.9923,-0.9903,-0.9836,-1.0361,-1.108,-1.2037,-1.3287,-1.4499,-1.529,-1.5873,-1.5964,-1.4988,-1.591,-1.6476,-1.5541,-1.6658,-1.7528,-1.7407,-1.6304,-1.5018,-1.3596,-1.2024,-1.0509,-0.918,-0.8421,-0.7988,-0.7988,-0.7988,-0.7988,-0.7988,-0.7988,-0.7988,-0.7988,-0.7988,-0.7988,-0.7988,-0.7988,-0.7988,-0.7988,-0.7988,-0.7988,0.0,0.0,0.0,0.0,-0.1233,-0.2445,-0.2246,-0.3319,-0.4316,-0.3971,0.0,-0.3924,-0.4872,-0.5583,-0.6531,-0.8183,0.0,-0.9546,-1.0405,-1.0405,-1.0432,-1.0678,-1.0799,-1.0894,-1.0934,-1.1118,-1.1253,-1.1409,-1.1423,-1.1423,-1.1423,-1.1545,-1.1619,-1.1619,-1.1619,-1.1619,-1.1619,-1.1619,-1.1619,-1.1619,-1.1619,-1.3452,-1.6826,-1.6826,-1.8592,-2.1648,-2.1371,-2.0251,-1.8372,-1.6366,-1.4679,-1.3128,-1.1372,-1.0717,-1.0717,-1.0717,-1.0717,-1.0717,-1.0717,-1.0717,-1.0717,-1.0717,-1.0717,-1.0717,-1.0717,-1.0717,-1.069,-1.0561,-1.0507,-1.0432,-1.0112,-1.0017,-0.9957,-0.9883,-1.0853,-1.1916,-1.2157,-1.4529,-1.661,-1.6322,-1.6195,-1.5567,-1.3608,-1.4624,-1.5565,-1.519,-1.6552,-1.7582,-1.7582,-1.738,-1.6523,-1.4769,-1.3254,-1.1802,-1.0222,-0.8836,-0.8008,-0.7988,-0.7988,-0.7988,-0.7988,-0.7988,-0.7988,-0.7988,-0.7988,-0.7988,-0.7988,-0.7988,-0.7988,-0.7988,-0.7988,-0.7988,0.0,0.0,0.0,0.0,-0.1233,-0.2141,-0.0739,-0.1695,0.0,0.0,-0.0752,-0.1061,-0.2106,-0.3541,-0.5112,-0.6765,0.0,0.0,0.0,0.0,-0.909,0.0,0.0,-1.1043,-1.1287,-1.1335,0.0,-1.1565,-1.1579,-1.1579,-1.1579,-1.1606,-1.1619,-1.1619,-1.1619,-1.1619,-1.1619,-1.1619,-1.1619,-1.1619,-1.1619,-1.2745,-1.4929,-1.4929,-1.6659,-1.9621,-1.8139,-1.7928,-1.8244,-1.507,-1.3587,-1.3128,-1.1372,-1.0717,-1.0717,-1.0717,-1.0717,-1.0717,-1.0717,-1.0717,-1.0717,-1.0717,-1.0717,-1.0717,-1.0717,-1.0717,-1.0717,-1.069,-1.0588,-1.048,-1.0426,-1.0236,-0.9977,-0.9957,-1.0094,-1.0596,-1.1916,-1.3706,-1.5004,-1.4963,-1.4738,-1.4059,-1.2395,-1.412,-1.5238,-1.39,-1.5902,-1.7582,-1.7582,-1.738,-1.6175,-1.3602,-1.2874,-1.1508,-0.8882,-0.8394,-0.8174,-0.7995,-0.7988,-0.7988,-0.7988,-0.7988,-0.7988,-0.7988,-0.7988,-0.7988,-0.7988,-0.7988,-0.7988,-0.7988,-0.7988,-0.7988,0.0,0.0,0.0,0.0,-0.0617,-0.0995,-0.0164,0.0,0.0,0.0,0.0,-0.0317,-0.1391,0.0,0.0,0.0,0.0,0.0,0.0,0.0,0.0,0.0,0.0,0.0,0.0,-1.1463,-1.1538,-1.1613,-1.1619,-1.1619,-1.1619,-1.1619,-1.1619,-1.1619,-1.1619,-1.1619,-1.1619,-1.1619,-1.1619,-1.1619,-1.1619,-1.2602,-1.4432,-1.4432,-1.5686,-1.7803,-1.6996,-1.6261,-1.5654,-1.397,-1.2734,-1.1828,-1.1049,-1.0717,-1.0717,-1.0717,-1.0717,-1.0717,-1.0717,-1.0717,-1.0717,-1.0717,-1.0717,-1.0717,-1.0717,-1.0717,-1.0717,-1.0717,-1.067,-1.0595,-1.0514,-1.0331,-1.0148,-1.0004,-1.0537,-1.1495,-1.3108,-1.4063,-1.4361,-1.3526,-1.3264,-1.2604,-1.0918,-1.2899,-1.4357,-1.3532,-1.5785,-1.7582,-1.7582,-1.6819,-1.5761,-1.4378,-1.2743,-1.1176,-0.9795,-0.8815,-0.8241,-0.8167,-0.8035,-0.7988,-0.7988,-0.7988,-0.7988,-0.7988,-0.7988,-0.7988,-0.7988,-0.7988,-0.7988,-0.7988,-0.7988,-0.7988,0.0,0.0,0.0,0.0,0.0,0.0,0.0,0.0,0.0,0.0,0.0,-0.0261,-0.1086,0.0,-0.2495,0.0,-0.4018,0.0,0.0,0.0,0.0,0.0,0.0,0.0,-1.1423,-1.1552,0.0,-1.1619,-1.1619,-1.1619,-1.1619,-1.1619,-1.1619,-1.1619,-1.1619,-1.1619,-1.1619,-1.1619,-1.1619,-1.1619,-1.1619,-1.2395,-1.38,-1.38,-1.4579,-1.5982,-1.5643,-1.4602,-1.3259,-1.2865,-1.196,-1.0717,-1.0717,-1.0717,-1.0717,-1.0717,-1.0717,-1.0717,-1.0717,-1.0717,-1.0717,-1.0717,-1.0717,-1.0717,-1.0717,-1.0717,-1.0717,-1.0717,-1.0717,-1.069,-1.0575,-1.0432,-1.0276,-1.0031,-1.0843,-1.2037,-1.3287,-1.3586,-1.3228,-1.1916,-1.1675,-1.1267,-0.987,-1.1645,-1.3335,-1.3472,-1.558,-1.7172,-1.716,-1.5849,-1.4824,-1.4502,-1.2354,-1.0819,-1.0457,-0.9167,-0.8336,-0.8327,-0.816,-0.8022,-0.7988,-0.7988,-0.7988,-0.7988,-0.7988,-0.7988,-0.7988,-0.7988,-0.7988,-0.7988,-0.7988,-0.7988,0.0,0.0,0.0,0.0,0.0,0.0,0.0,0.0,0.0,0.0,0.0,-0.0036,-0.0146,-0.1166,-0.2155,0.0,0.0,-0.2925,0.0,0.0,0.0,0.0,0.0,0.0,0.0,-1.1613,-1.1619,-1.1619,-1.1619,-1.1619,-1.1619,-1.1619,-1.1619,-1.1619,-1.1619,-1.1619,-1.1619,-1.1619,-1.1619,-1.1619,-1.1619,-1.1691,-1.1828,-1.1828,-1.2637,-1.3942,-1.2383,-1.233,-1.3193,-1.1563,-1.085,-1.0717,-1.0717,-1.0717,-1.0717,-1.0717,-1.0717,-1.0717,-1.0717,-1.0717,-1.0717,-1.0717,-1.0717,-1.0717,-1.0717,-1.0717,-1.0717,-1.0717,-1.0717,-1.0717,-1.0704,-1.0588,-1.0399,-1.0051,-0.9992,-1.0058,-1.0179,-1.024,-1.0179,-1.0058,-0.9997,-0.9956,-0.9632,-1.0937,-1.2307,-1.3335,-1.4856,-1.5802,-1.5607,-1.4395,-1.2994,-1.1647,-1.1256,-1.0474,-0.904,-0.8736,-0.8554,-0.834,-0.8306,-0.8187,-0.7995,-0.7988,-0.7988,-0.7988,-0.7988,-0.7988,-0.7988,-0.7988,-0.7988,-0.7988,-0.7988,-0.7988,0.0,0.0,0.0,0.0,0.0,0.0,0.0,0.0,0.0,0.0,0.0,0.0,0.0,-0.0454,-0.0846,-0.0977,-0.0878,-0.1085,-0.189,0.0,0.0,0.0,0.0,0.0,0.0,0.0,-1.1619,-1.1619,-1.1619,-1.1619,-1.1619,-1.1619,-1.1619,-1.1619,-1.1619,-1.1619,-1.1619,-1.1619,-1.1619,-1.1619,-1.1619,-1.1619,-1.1619,-1.1619,-1.1804,-1.2185,-1.1503,-1.1396,-1.1696,-1.0982,-1.0717,-1.0717,-1.0717,-1.0717,-1.0717,-1.0717,-1.0717,-1.0717,-1.0717,-1.0717,-1.0717,-1.0717,-1.0717,-1.0717,-1.0717,-1.0717,-1.0717,-1.0717,-1.0717,-1.0717,-1.0717,-1.0609,-1.0419,-1.0058,-0.9936,-0.9869,-0.9842,-0.9822,-0.9822,-0.9822,-0.9822,-0.9802,-0.9747,-1.0896,-1.1946,-1.2427,-1.3546,-1.435,-1.4243,-1.292,-1.1755,-1.1156,-1.0296,-0.9512,-0.8852,-0.8764,-0.8662,-0.854,-0.8445,-0.833,-0.8187,-0.818,-0.8133,-0.7988,-0.7988,-0.7988,-0.7988,-0.7988,-0.7988,-0.7988,-0.7988,-0.7988,0.0,0.0,0.0,0.0,0.0,0.0,0.0,0.0,0.0,0.0,0.0,0.0,0.0,0.0,0.0,0.0,0.0,0.0,0.0,0.0,0.0,0.0,0.0,-0.8979,-1.0581,-1.1252,-1.1619,-1.1619,-1.1619,-1.1619,-1.1619,-1.1619,-1.1619,-1.1619,-1.1619,-1.1619,-1.1619,-1.1619,-1.1619,-1.1619,-1.1619,-1.1619,-1.1619,-1.1572,-1.1409,-1.1227,-1.1118,-1.0955,-1.0717,-1.0717,-1.0717,-1.0717,-1.0717,-1.0717,-1.0717,-1.0717,-1.0717,-1.0717,-1.0717,-1.0717,-1.0717,-1.0717,-1.0717,-1.0717,-1.0717,-1.0717,-1.0717,-1.0717,-1.0717,-1.0717,-1.0717,-1.0609,-1.0426,-1.0175,-1.0017,-0.9943,-0.9856,-0.9822,-0.9822,-0.9822,-0.9822,-0.9822,-0.9822,-1.0568,-1.1355,-1.1711,-1.2458,-1.2964,-1.2841,-1.187,-1.1004,-1.0515,-0.9533,-0.8885,-0.8885,-0.8838,-0.8757,-0.8716,-0.8608,-0.8486,-0.8336,-0.8381,-0.8282,-0.8174,-0.8133,-0.8106,-0.8106,-0.8015,-0.7988,-0.7988,-0.7988,-0.7988,0.0,0.0,0.0,0.0,0.0,0.0,0.0,0.0,0.0,0.0,0.0,0.0,0.0,0.0,0.0,0.0,0.0,0.0,0.0,-0.1551,0.0,0.0,0.0,-0.8167,-0.8658,-1.0505,-1.1619,-1.1619,-1.1619,-1.1619,-1.1619,-1.1619,-1.1619,-1.1619,-1.1619,-1.1619,-1.1619,-1.1619,-1.1619,-1.1619,-1.1619,-1.1619,-1.1613,-1.1463,-1.1307,-1.1158,-1.1016,-1.086,-1.0717,-1.0717,-1.0717,-1.0717,-1.0717,-1.0717,-1.0717,-1.0717,-1.0717,-1.0717,-1.0717,-1.0717,-1.0717,-1.0717,-1.0717,-1.0717,-1.0717,-1.0717,-1.0717,-1.0717,-1.0717,-1.0717,-1.0717,-1.0609,-1.0453,-1.031,-1.0161,-0.9943,-0.9856,-0.9822,-0.9822,-0.9822,-0.9822,-0.9822,-0.9822,-0.9822,-1.0244,-1.1618,-1.182,-1.1678,-1.1366,-1.1316,-1.0691,-0.912,-0.8885,-0.8885,-0.8885,-0.8885,-0.8817,-0.8716,-0.871,-0.8642,-0.8486,-0.8479,-0.8479,-0.8479,-0.8336,-0.832,-0.832,-0.8113,-0.7988,-0.7988,-0.7988,-0.7988,0.0,0.0,0.0,0.0,0.0,0.0,0.0,0.0,0.0,0.0,0.0,0.0,0.0,0.0,0.0,0.0,0.0,0.0,0.0,0.0,0.0,0.0,-0.6231,-0.8568,0.0,-1.0447,-1.1619,-1.1619,-1.1619,-1.1619,-1.1619,-1.1619,-1.1619,-1.1619,-1.1619,-1.1619,-1.1619,-1.1619,-1.1619,-1.1619,-1.1619,-1.1619,-1.1613,-1.1463,-1.1307,-1.1158,-1.1009,-1.0793,-1.0717,-1.0717,-1.0717,-1.0717,-1.0717,-1.0717,-1.0717,-1.0717,-1.0717,-1.0717,-1.0717,-1.0717,-1.0717,-1.0717,-1.0717,-1.0717,-1.0717,-1.0717,-1.0717,-1.0717,-1.0717,-1.0717,-1.0717,-1.0683,-1.0609,-1.046,-1.031,-1.0168,-0.995,-0.9897,-0.9822,-0.9822,-0.9822,-0.9822,-0.9822,-0.9822,-0.9923,-1.0357,-1.0375,-1.0273,-1.0171,-0.996,-0.9687,-0.9146,-0.8994,-0.8885,-0.8885,-0.8885,-0.8865,-0.8817,-0.8811,-0.8798,-0.8642,-0.8635,-0.8587,-0.8486,-0.8438,-0.8418,-0.8418,-0.8269,-0.814,-0.7988,-0.7988,-0.7988,0.0,0.09,0.0609,0.0587,0.029,0.0,0.0,0.0,0.0,0.0,0.0,0.0,0.0,0.0,0.0,0.0,0.0,0.0,0.0,0.0,0.0,0.0,0.0,0.0,-0.7425,-0.8658,-0.9723,-1.0449,-0.9795,-1.0017,-1.1548,-1.0887,-1.0815,-1.1548,-1.1619,-1.1619,-1.1619,-1.1619,-1.1619,-1.1619,-1.1619,-1.1592,-1.1531,-1.1375,-1.1226,-1.1077,-1.0928,-1.0806,0.0,-1.0717,-1.0717,-1.0717,-1.0717,-1.0717,-1.0717,-1.0717,-1.0717,-1.0717,-1.0717,-1.0717,-1.0717,-1.0717,-1.0717,-1.0717,-1.0717,-1.0717,-1.0717,-1.0717,-1.0717,-1.0717,-1.0717,-1.0717,-1.0683,-1.0527,-1.0426,-1.0304,-1.0031,-0.9909,-0.989,-0.9829,-0.9822,-0.9822,-0.9822,-0.9822,-0.9822,-0.9822,-0.9747,-0.9673,-0.9618,-0.9395,-0.9275,-0.9214,-0.9022,-0.8885,-0.8885,-0.8885,-0.8885,-0.8885,-0.8885,-0.8844,-0.8798,-0.8798,-0.875,-0.8655,-0.8601,-0.8567,-0.8567,-0.8425,-0.8303,-0.8208,-0.8208,-0.8208,0.0,0.2447,0.0,0.1688,0.088,0.0091,0.0131,0.0041,0.0,0.0,0.0,0.0,0.0,0.0,0.0,0.0,0.0,0.0,0.0,0.0,0.0,0.0,-0.2653,0.0,-0.5096,-0.5584,-0.6532,-0.8343,-0.6821,-0.7404,-1.1181,-0.9646,-0.9574,-1.1548,-1.1619,-1.1619,-1.1619,-1.1619,-1.1619,-1.1619,-1.1606,-1.1531,-1.1389,-1.1219,-1.1077,-1.0873,-1.0785,-1.0717,-1.0717,-1.0717,-1.0717,-1.0717,-1.0717,-1.0717,-1.0717,-1.0717,-1.0717,-1.0717,-1.0717,-1.0717,-1.0717,-1.0717,-1.0717,-1.0717,-1.0717,-1.0717,-1.0717,-1.0717,-1.0717,-1.0717,-1.0717,-1.0717,-1.0683,-1.0541,-1.05,-1.0412,-1.0065,-0.9997,-0.9943,-0.9849,-0.9822,-0.9822,-0.9822,-0.9822,-0.9822,-0.9822,-0.9822,-0.9774,-0.9639,-0.949,-0.934,-0.9241,-0.9042,-0.8892,-0.8885,-0.8885,-0.8885,-0.8885,-0.8885,-0.8885,-0.8885,-0.8885,-0.8885,-0.8885,-0.8798,-0.8723,-0.871,-0.8567,-0.8492,-0.8479,-0.8479,-0.8479,0.3882,0.0,0.2455,0.2575,0.1779,0.1053,0.0,0.0588,0.0,0.0,0.0,0.0,0.0,0.0,0.0,0.0,0.0,0.0,0.0,0.0,0.0,-0.0546,-0.195,-0.3042,-0.3451,-0.4921,-0.5953,-0.646,-0.6025,-0.6821,-0.9285,-0.892,-0.9574,-1.1548,-1.1619,-1.1619,-1.1619,-1.1619,-1.1619,-1.1619,-1.1497,-1.1423,-1.1382,-1.1118,-1.0914,-1.0873,-1.0785,-1.0717,-1.0717,-1.0717,-1.0717,-1.0717,-1.0717,-1.0717,-1.0717,-1.0717,-1.0717,-1.0717,-1.0717,-1.0717,-1.0717,-1.0717,-1.0717,-1.0717,-1.0717,-1.0717,-1.0717,-1.0717,-1.0717,-1.0717,-1.0717,-1.0717,-1.0711,-1.0677,-1.0575,-1.0439,-1.0263,-1.0134,-0.9943,-0.9849,-0.9822,-0.9822,-0.9822,-0.9822,-0.9822,-0.9822,-0.9822,-0.9808,-0.9774,-0.9646,-0.9496,-0.9347,-0.9191,-0.9055,-0.8892,-0.8885,-0.8885,-0.8885,-0.8885,-0.8885,-0.8885,-0.8885,-0.8885,-0.8885,-0.8851,-0.8825,-0.871,-0.8676,-0.8594,-0.8479,-0.8479,-0.8479,0.3899,0.3989,0.3565,0.3051,0.2262,0.1491,0.0997,0.0,0.0,0.0,0.0,0.0,0.0,0.0,0.0,0.0,0.0,0.0,0.0,0.0,0.0,0.0,-0.0913,-0.1564,-0.1586,-0.2538,-0.349,-0.4431,-0.3635,-0.4794,-0.8487,-0.7833,-0.8631,-1.1476,-1.1552,-1.1552,-1.1619,-1.1552,-1.1511,-1.1511,-1.1362,-1.1253,-1.1179,-1.0954,-1.084,-1.0772,-1.0758,-1.0717,-1.0717,-1.0717,-1.0717,-1.0717,-1.0717,-1.0717,-1.0717,-1.0717,-1.0717,-1.0717,-1.0717,-1.0717,-1.0717,-1.0717,-1.0717,-1.0717,-1.0717,-1.0717,-1.0717,-1.0717,-1.0717,-1.0717,-1.0717,-1.0717,-1.0717,-1.0717,-1.0656,-1.0555,-1.0412,-1.0263,-1.0107,-0.9896,-0.9869,-0.9822,-0.9822,-0.9822,-0.9822,-0.9822,-0.914,-0.8958,-0.97,-0.9026,-0.8735,-0.9431,-0.9347,-0.9198,-0.9049,-0.9035,-0.9008,-0.8885,-0.8885,-0.8885,-0.8885,-0.8885,-0.8885,-0.8885,-0.8885,-0.8844,-0.8818,-0.8818,-0.8771,-0.8689,-0.8689,-0.8689,0.3161,0.4105,0.4465,0.3571,0.2621,0.1635,0.0711,0.0,0.0,0.0,0.0,0.0,0.0,0.0,0.0,0.0,0.0,0.0,0.0,0.0,0.0,0.0,0.0,0.0,0.0,0.0,-0.0652,-0.2313,-0.0942,-0.2387,-0.793,-0.6637,-0.7576,-1.1402,-1.1423,-1.1416,-1.1552,-1.1423,-1.1355,-1.1355,-1.1206,-1.1063,-1.088,-1.0853,-1.0846,-1.0717,-1.0717,-1.0717,-1.0717,-1.0717,-1.0717,-1.0717,-1.0717,-1.0717,-1.0717,-1.0717,-1.0717,-1.0717,-1.0717,-1.0717,-1.0717,-1.0717,-1.0717,-1.0717,-1.0717,-1.0717,-1.0717,-1.0717,-1.0717,-1.0717,-1.0717,-1.0717,-1.0717,-1.0717,-1.0717,-1.0677,-1.0527,-1.0378,-1.0236,-1.0017,-0.9862,-0.9822,-0.9822,-0.9822,-0.97,-0.9451,-0.8282,-0.7911,-0.9268,-0.807,-0.7758,-0.9433,-0.9496,-0.9354,-0.9255,-0.9248,-0.9123,-0.8981,-0.8898,-0.8885,-0.8885,-0.8885,-0.8885,-0.8885,-0.8885,-0.8885,-0.8885,-0.8885,-0.8885,-0.8885,-0.8885,-0.8885,0.1639,0.2596,0.3862,0.5183,0.344,0.1672,0.2659,0.0,0.0,0.0,0.0,0.0,0.0,0.0,0.0,0.0,0.0,0.0,0.0,0.0,0.0,0.0,0.0,0.0,0.0,0.0,-0.0141,-0.0423,-0.0141,-0.1761,-0.5828,-0.5828,-0.7366,-1.1163,-1.1212,-1.1206,-1.1233,-1.1212,-1.1199,-1.1199,-1.105,-1.09,-1.0873,-1.0745,-1.0744,-1.0717,-1.0717,-1.0717,-1.0717,-1.0717,-1.0717,-1.0717,-1.0717,-1.0717,-1.0717,-1.0717,-1.0717,-1.0717,-1.0717,-1.0717,-1.0717,-1.0717,-1.0717,-1.0717,-1.0717,-1.0717,-1.0717,-1.0717,-1.0717,-1.0717,-1.0717,-1.0717,-1.0717,-1.0717,-1.0717,-1.0677,-1.0527,-1.0378,-1.0236,-1.0017,-0.9862,-0.9822,-0.9822,-0.9822,-0.9329,-0.7972,-0.7545,-0.7484,-0.7728,-0.753,-0.7911,-0.944,-0.9591,-0.951,-0.9361,-0.9347,-0.9279,-0.9187,-0.9008,-0.8885,-0.8885,-0.8885,-0.8885,-0.8885,-0.8885,-0.8885,-0.8885,-0.8885,-0.8885,-0.8885,-0.8885,-0.8885,0.116,0.1417,0.2003,0.3951,0.3577,0.2556,0.1733,0.1307,0.0,0.0,0.0,0.0,0.0,0.0,0.0,0.0,0.0,0.0,0.0,0.0,0.0,0.0,0.0,0.0,0.0,0.0,0.0,0.0,0.0,-0.161,-0.5375,-0.5583,-0.7321,-1.1089,-1.109,-1.0564,-0.9662,-0.9517,-0.9517,-0.9656,-0.9458,-0.9332,-0.9326,-0.9267,-0.9775,-1.0717,-1.0717,-1.0717,-1.0717,-1.0717,-1.0717,-1.0717,-1.0717,-1.0717,-1.0717,-1.0717,-1.0717,-1.0717,-1.0717,-1.0717,-1.0717,-1.0717,-1.0717,-1.0717,-1.0717,-1.0717,-1.0717,-1.0717,-1.0717,-1.0717,-1.0717,-1.0717,-1.0717,-1.0717,-1.0717,-1.0704,-1.0629,-1.05,-1.0351,-1.0202,-1.0053,-0.9856,-0.9836,-0.9079,-0.8282,-0.7484,-0.5892,-0.5403,-0.7174,-0.6625,-0.6977,-0.9426,-0.9727,-0.9666,-0.9517,-0.9503,-0.9401,-0.9221,-0.9015,-0.8885,-0.8885,-0.8885,-0.8885,-0.8885,-0.8885,-0.8885,-0.8885,-0.8885,-0.8885,-0.8885,-0.8885,-0.8885,0.0799,0.0526,0.0364,0.1969,0.0,0.2604,0.0818,0.0987,0.1241,0.0,0.0,0.0,0.0,0.0,0.0,0.0,0.0,0.0,0.0,0.0,0.0,0.0,0.0,0.0,0.0,0.0,0.0,0.0,-0.0417,-0.2079,-0.5394,-0.5529,-0.7255,-1.0988,-1.0128,-0.9188,-0.8231,-0.7675,-0.7474,-0.7622,-0.7469,-0.7365,-0.7365,-0.7365,-0.8368,-1.0047,-1.0047,-1.0313,-1.0717,-1.0717,-1.0717,-1.0717,-1.0717,-1.0717,-1.0717,-1.0717,-1.0452,-1.0047,-1.0047,-0.9782,-0.9443,-0.9443,-0.9715,-1.0047,-1.0047,-1.0379,-1.0717,-1.0717,-1.0717,-1.0717,-1.0717,-1.0717,-1.0717,-1.0717,-1.0717,-1.0717,-1.0717,-1.0602,-1.0453,-1.031,-1.0154,-0.9936,-0.9849,-0.8465,-0.724,-0.6869,-0.4364,-0.3566,-0.6442,-0.5712,-0.6141,-0.9451,-0.9822,-0.9774,-0.9666,-0.9632,-0.9496,-0.9282,-0.9069,-0.8974,-0.8885,-0.8885,-0.8885,-0.8885,-0.8885,-0.8885,-0.8885,-0.8885,-0.8885,-0.8885,-0.8885,-0.8885,0.0076,0.0039,0.004,0.0171,0.0269,0.0517,0.1437,0.089,0.0,0.0,0.0,0.0,0.0,0.0,0.0,0.0,0.0,0.0,0.0,0.0,0.0,0.0,0.0,0.0,0.0,0.0,0.0,0.0,-0.155,-0.3365,-0.5312,-0.5446,-0.7054,-1.0618,-0.7517,-0.6506,-0.7979,-0.6435,-0.5566,-0.564,-0.5566,-0.5563,-0.5563,-0.5563,-0.6564,-0.8163,-0.8163,-0.9172,-1.0717,-1.0717,-1.0717,-1.0717,-1.0717,-1.0717,-1.0717,-1.0717,-0.9643,-0.8163,-0.8163,-0.7165,-0.5763,-0.5763,-0.6898,-0.8163,-0.8163,-0.9371,-1.0717,-1.0717,-1.0717,-1.0717,-1.0717,-1.0717,-1.0717,-1.0717,-1.0717,-1.0717,-1.0717,-1.0602,-1.0453,-1.031,-1.0154,-0.9936,-0.9849,-0.8465,-0.6869,-0.5345,-0.3628,-0.3139,-0.4855,-0.4977,-0.6141,-0.9451,-0.9822,-0.9815,-0.9808,-0.9686,-0.9537,-0.9374,-0.9275,-0.9076,-0.8892,-0.8885,-0.8885,-0.8885,-0.8885,-0.8885,-0.8885,-0.8885,-0.8885,-0.8885,-0.8885,-0.8885,0.098,0.0504,0.0,0.0,0.0,0.0,0.0,0.0979,0.1009,0.0166,0.0,0.0,0.0,0.0,0.0,0.0,0.0,0.0,0.0,0.0,0.0,0.0,0.0,0.0,0.0,0.0,0.0,0.0,-0.0605,-0.1814,-0.3622,-0.3689,-0.4827,-0.7303,-0.6097,-0.5162,-0.469,-0.4024,-0.3155,-0.2083,-0.3153,-0.3689,-0.3689,-0.3689,-0.4693,-0.6364,-0.6364,-0.7365,-0.9039,-0.9039,-0.9709,-1.0717,-1.0717,-1.0717,-1.0585,-0.9437,-0.8568,-0.7831,-0.6765,-0.5964,-0.5429,-0.5429,-0.6564,-0.803,-0.803,-0.8501,-0.9039,-0.9039,-0.9039,-0.9305,-1.0386,-1.0717,-1.0717,-1.0717,-1.0717,-1.0717,-1.0717,-1.0677,-1.0561,-1.0324,-1.0236,-1.0114,-0.9863,-0.7606,-0.5651,-0.4977,-0.3505,-0.3077,-0.4671,-0.5835,-0.7301,-0.9572,-0.9822,-0.9822,-0.9822,-0.9774,-0.968,-0.953,-0.935,-0.9089,-0.8892,-0.8885,-0.8885,-0.8885,-0.8885,-0.8885,-0.8885,-0.8885,-0.8885,-0.8885,-0.8885,-0.8885,0.1528,0.0782,0.0,0.0,0.0,0.0,0.0,0.0698,0.1117,0.0176,0.0,0.0,0.0,0.0,0.0,0.0,0.0,0.0,0.0,0.0,0.0,0.0,0.0,0.0,0.0,0.0,0.0,0.0,-0.0538,-0.1411,-0.2618,-0.2685,-0.3555,-0.5362,-0.4292,-0.3354,-0.2685,-0.2148,-0.121,0.0,-0.1277,-0.1881,-0.1881,-0.1881,-0.2819,-0.4559,-0.4559,-0.5826,-0.803,-0.803,-0.8701,-0.9842,-0.9842,-0.951,-0.8906,-0.7631,-0.6827,-0.616,-0.4961,-0.4158,-0.3689,-0.3689,-0.4891,-0.6293,-0.6293,-0.6694,-0.7165,-0.7165,-0.7165,-0.7564,-0.9371,-1.0246,-1.0717,-1.0717,-1.0717,-1.0717,-1.0717,-1.0717,-1.0629,-1.0337,-1.0283,-1.0055,-0.9191,-0.6752,-0.4732,-0.4242,-0.32,-0.3077,-0.4671,-0.6381,-0.8033,-0.9633,-0.9822,-0.9822,-0.9822,-0.9822,-0.9761,-0.9618,-0.8942,-0.8457,-0.8276,-0.827,-0.8029,-0.7537,-0.7482,-0.7482,-0.7482,-0.7482,-0.7482,-0.7537,-0.7986,-0.8208,0.1381,0.069,0.0,0.0,0.0,0.0,0.0,0.0,0.0,0.0,0.0,0.0,0.0,0.0,0.0,0.0,0.0,0.0,0.0,0.0,0.0,0.0,0.0,0.0,0.0,0.0,0.0,0.0,-0.168,-0.2685,-0.2685,-0.2685,-0.3488,-0.5295,-0.1881,-0.0874,-0.2685,-0.0874,0.0,0.0,0.0,0.0,0.0,0.0,-0.1009,-0.2685,-0.2685,-0.469,-0.7964,-0.7964,-0.7964,-0.7964,-0.7964,-0.6898,-0.5429,-0.5362,-0.4225,-0.2685,-0.2685,-0.1478,0.0,0.0,-0.121,-0.2685,-0.2685,-0.3957,-0.5362,-0.5362,-0.5362,-0.5763,-0.7498,-0.9305,-1.0651,-1.0717,-1.0717,-1.0717,-1.0717,-1.0717,-1.0629,-1.0337,-1.0283,-0.9671,-0.771,-0.6018,-0.4364,-0.277,-0.2524,-0.3077,-0.4671,-0.6324,-0.7972,-0.9572,-0.9761,-0.9761,-0.9822,-0.9822,-0.9761,-0.9618,-0.8045,-0.7039,-0.6925,-0.6858,-0.6129,-0.4529,-0.4526,-0.4526,-0.4526,-0.4526,-0.4526,-0.4526,-0.5977,-0.67,0.2738,0.1803,0.0,0.0185,0.0,0.0,0.0,0.0,0.0,0.0,0.0,0.0,0.0,0.0,0.0,0.0,0.0,0.0,0.0,0.0,0.0,0.0,0.0,0.0,0.0,0.0,0.0,0.0,-0.0471,-0.0807,-0.0807,-0.0807,-0.1076,-0.1613,-0.0538,-0.0269,-0.0807,-0.0269,0.0,0.0,0.0,0.0,0.0,0.0,-0.0269,-0.0874,-0.2148,-0.4024,-0.6297,-0.7498,-0.7298,-0.6164,-0.6164,-0.583,-0.5228,-0.3957,-0.3155,-0.2551,-0.121,-0.0471,0.0,0.0,-0.121,-0.2685,-0.2685,-0.3088,-0.3488,-0.3488,-0.3488,-0.389,-0.5696,-0.7498,-0.9105,-1.0386,-1.0717,-1.0717,-1.0717,-1.0717,-1.0629,-1.0337,-0.9379,-0.8265,-0.7521,-0.5096,-0.3077,-0.2585,-0.2524,-0.3077,-0.4671,-0.5345,-0.6263,-0.7911,-0.8099,-0.8587,-0.97,-0.9822,-0.9802,-0.9761,-0.8231,-0.7179,-0.693,-0.5829,-0.4994,-0.4526,-0.4526,-0.4526,-0.4526,-0.4526,-0.4526,-0.4526,-0.4972,-0.5139,0.2621,0.1617,0.0,0.0149,0.0,0.0,0.0,0.0,0.0,0.0,0.0,0.0,0.0,0.0,0.0,0.0,0.0,0.0,0.0,0.0,0.0,0.0,0.0,0.0,0.0,0.0,0.0,0.0,0.0,0.0,0.0,0.0,0.0,0.0,0.0,0.0,0.0,0.0,0.0,0.0,0.0,0.0,0.0,0.0,0.0,-0.0135,-0.2685,-0.4359,-0.5563,-0.7298,-0.656,-0.4359,-0.4359,-0.389,-0.3155,-0.2016,-0.1613,-0.1478,-0.0404,0.0,0.0,0.0,-0.074,-0.1613,-0.1613,-0.1613,-0.1613,-0.1613,-0.1613,-0.2216,-0.476,-0.6164,-0.7564,-1.0114,-1.0717,-1.0717,-1.0717,-1.0114,-0.9563,-0.9365,-0.7896,-0.6484,-0.5617,-0.3812,-0.2279,-0.1602,-0.2094,-0.3077,-0.4671,-0.4916,-0.5529,-0.7235,-0.7423,-0.8039,-0.9633,-0.9822,-0.9822,-0.9822,-0.7667,-0.6288,-0.613,-0.4579,-0.3387,-0.2713,-0.2694,-0.2684,-0.2684,-0.2684,-0.2684,-0.274,-0.3296,-0.3575,0.161,0.0,0.0,0.0,0.0,0.0,0.0,0.0,0.0,0.0,0.0,0.0,0.0,0.0,0.0,0.0,0.0,0.0,0.0,0.0,0.0,0.0,0.0,0.0,0.0,0.0,0.0,0.0,0.0,0.0,0.0,0.0,0.0,0.0,0.0,0.0,0.0,0.0,0.0,0.0,0.0,0.0,0.0,0.0,-0.0202,-0.0672,-0.3823,-0.5228,-0.5496,-0.6965,-0.5492,-0.2484,-0.2484,-0.1478,0.0,0.0,0.0,0.0,0.0,0.0,0.0,0.0,0.0,0.0,0.0,0.0,0.0,0.0,0.0,-0.0807,-0.4225,-0.5295,-0.6231,-0.9443,-1.0319,-1.0452,-1.0452,-0.9027,-0.7756,-0.7552,-0.6089,-0.4383,-0.2783,-0.2401,-0.1725,-0.0247,-0.1295,-0.2831,-0.4242,-0.4426,-0.51,-0.6747,-0.7113,-0.785,-0.9451,-0.97,-0.9761,-0.9572,-0.663,-0.4825,-0.4697,-0.3144,-0.1577,-0.0058,0.0,0.0,0.0,0.0,0.0,-0.0056,-0.1399,-0.2012,0.1827,0.1269,0.0,0.0,0.0,0.0,0.0,0.0,0.0,0.0,0.0,0.0,0.0,0.0,0.0,0.0,0.0,0.0,0.0,0.0,0.0,0.0,0.0,0.0,0.0,0.0,0.0,0.0,0.0,0.0,0.0,0.0,0.0,0.0,0.0,0.0,0.0,0.0,0.0,0.0,0.0,0.0,0.0,0.0,-0.1545,-0.4225,-0.3557,-0.4091,-0.5295,-0.4292,-0.2551,-0.0606,-0.0606,-0.0336,0.0,0.0,0.0,0.0,0.0,0.0,0.0,0.0,0.0,0.0,0.0,0.0,0.0,0.0,0.0,-0.0538,-0.2685,-0.4359,-0.5563,-0.6364,-0.7564,-0.8568,-0.8568,-0.7172,-0.59,-0.5733,-0.4325,-0.3078,-0.2594,-0.1418,-0.0432,-0.0062,-0.0308,-0.0679,-0.0986,-0.1048,-0.1725,-0.3382,-0.4671,-0.6141,-0.7789,-0.9079,-0.9268,-0.7972,-0.6018,-0.4358,-0.3062,-0.145,-0.0355,0.0,0.0,0.0,0.0,0.0,0.0,0.0,-0.0336,-0.0448,0.0,0.0,0.0,0.0,0.0,0.0,0.0,0.0,0.0,0.0,0.0,0.0,0.0,0.0,0.0,0.0,0.0,0.0,0.0,0.0,0.0,0.0,0.0,0.0,0.0,0.0,0.0,0.0,0.0,0.0,0.0,0.0,0.0,0.0,0.0,0.0,0.0,0.0,0.0,0.0,0.0,0.0,0.0,0.0,-0.1478,-0.4024,-0.3088,-0.3222,-0.4024,-0.3088,-0.1613,0.0,0.0,0.0,0.0,0.0,0.0,0.0,0.0,0.0,0.0,0.0,0.0,0.0,0.0,0.0,0.0,0.0,0.0,-0.0404,-0.2216,-0.3423,-0.4359,-0.5162,-0.6765,-0.7764,-0.6965,-0.5367,-0.4052,-0.3994,-0.2542,-0.138,-0.1297,-0.0555,0.0,0.0,0.0,0.0,0.0,0.0,-0.0617,-0.2339,-0.3262,-0.4426,-0.608,-0.6996,-0.7118,-0.6263,-0.4671,-0.3384,-0.2524,-0.0918,0.0,0.0,0.0,0.0,0.0,0.0,0.0,0.0,0.0,0.0,0.0,0.0,0.0,0.0,0.0,0.0,0.0,0.0,0.0,0.0,0.0,0.0,0.0,0.0,0.0,0.0,0.0,0.0,0.0,0.0,0.0,0.0,0.0,0.0,0.0,0.0,0.0,0.0,0.0,0.0,0.0,0.0,0.0,0.0,0.0,0.0,0.0,0.0,0.0,0.0,0.0,0.0,0.0,0.0,-0.1009,-0.2685,-0.235,-0.2417,-0.2685,-0.235,-0.1344,0.0,0.0,0.0,0.0,0.0,0.0,0.0,0.0,0.0,0.0,0.0,0.0,0.0,0.0,0.0,0.0,0.0,0.0,-0.0336,-0.1814,-0.2484,-0.3021,-0.4158,-0.5826,-0.6689,-0.5212,-0.3503,-0.2218,-0.225,-0.1015,0.0,0.0,0.0,0.0,0.0,0.0,0.0,0.0,0.0,-0.0555,-0.191,-0.2339,-0.3016,-0.4364,-0.4732,-0.4794,-0.4487,-0.3262,-0.2339,-0.2094,-0.074,0.0,0.0,0.0,0.0,0.0,0.0,0.0,0.0,0.0,0.0,0.0,0.0,0.0,0.0,0.0,0.0,0.0,0.0,0.0,0.0,0.0,0.0,0.0,0.0,0.0,0.0,0.0,0.0,0.0,0.0,0.0,0.0,0.0,0.0,0.0,0.0,0.0,0.0,0.0,0.0,0.0,0.0,0.0,0.0,0.0,0.0,0.0,0.0,0.0,0.0,0.0,0.0,0.0,0.0,-0.1009,-0.2618,-0.1076,-0.1277,-0.2551,-0.1009,-0.0202,0.0,0.0,0.0,0.0,0.0,0.0,0.0,0.0,0.0,0.0,0.0,0.0,0.0,0.0,0.0,0.0,0.0,0.0,-0.0067,-0.0269,-0.1545,-0.235,-0.1009,-0.2081,-0.3343,-0.3105,-0.1632,-0.0387,-0.0381,-0.0188,0.0,0.0,0.0,0.0,0.0,0.0,0.0,0.0,0.0,-0.0062,-0.0308,-0.1663,-0.2585,-0.2831,-0.4119,-0.4303,-0.2893,-0.2647,-0.1848,-0.037,-0.0123,0.0,0.0,0.0,0.0,0.0,0.0,0.0,0.0,0.0,0.0,0.0384,0.0,0.0,0.0,0.0,0.0,0.0,0.0,0.0,0.0,0.0,0.0,0.0,0.0,0.0,0.0,0.0,0.0,0.0,0.0,0.0,0.0,0.0,0.0,0.0,0.0,0.0,0.0,0.0,0.0,0.0,0.0,0.0,0.0,0.0,0.0,0.0,0.0,0.0,0.0,0.0,0.0,0.0,0.0,-0.0404,-0.1143,-0.0336,-0.0471,-0.1143,-0.0336,0.0,0.0,0.0,0.0,0.0,0.0,0.0,0.0,0.0,0.0,0.0,0.0,0.0,0.0,0.0,0.0,0.0,0.0,0.0,0.0,0.0,-0.0606,-0.1009,-0.0202,-0.0605,-0.1203,-0.1177,-0.0583,0.0,0.0,0.0,0.0,0.0,0.0,0.0,0.0,0.0,0.0,0.0,0.0,0.0,0.0,-0.0679,-0.111,-0.111,-0.1725,-0.1848,-0.1171,-0.111,-0.074,0.0,0.0,0.0,0.0,0.0,0.0,0.0,0.0,0.0,0.0,0.0,0.0,0.0,0.0,0.0,0.0,0.0,0.0,0.0,0.0,0.0,0.0,0.0,0.0,0.0,0.0,0.0,0.0,0.0,0.0,0.0,0.0,0.0,0.0,0.0,0.0,0.0,0.0,0.0,0.0,0.0,0.0,0.0,0.0,0.0,0.0,0.0,0.0,0.0,0.0,0.0,0.0,0.0,0.0,0.0,0.0,0.0,0.0,0.0,0.0,0.0,0.0,0.0,0.0,0.0,0.0,0.0,0.0,0.0,0.0,0.0,0.0,0.0,0.0,0.0,0.0,0.0,0.0,0.0,0.0,0.0,0.0,0.0,0.0,0.0,0.0,0.0,0.0,0.0,0.0,0.0,0.0,0.0,0.0,0.0,0.0,0.0,0.0,0.0,0.0,0.0,0.0,0.0,0.0,0.0,0.0,0.0,0.0,0.0,0.0,0.0,0.0,0.0,0.0,0.0,0.0,0.0,0.0,0.0,0.0,0.0,0.0,0.0,0.0,0.0,0.0,0.0,0.0,0.0,0.0,0.0,0.0,0.0,0.0,0.0,0.0,0.0,0.0,0.0,0.0,0.0,0.0,0.0,0.0,0.0,0.0,0.0,0.0,0.0,0.0,0.0,0.0,0.0,0.0,0.0,0.0,0.0,0.0,0.0,0.0,0.0,0.0,0.0,0.0,0.0,0.0,0.0,0.0,0.0,0.0,0.0,0.0,0.0,0.0,0.0,0.0,0.0,0.0,0.0,0.0,0.0,0.0,0.0,0.0,0.0,0.0,0.0,0.0,0.0,0.0,0.0,0.0,0.0,0.0,0.0,0.0,0.0,0.0,0.0,0.0,0.0,0.0,0.0,0.0,0.0,0.0,0.0,0.0,0.0,0.0,0.0,0.0,0.0,0.0,0.0,0.0,0.0,0.0,0.0,0.0,0.0,0.0,0.0,0.0,0.0,0.0,0.0,0.0,0.0,0.0,0.0,0.0,0.0,0.0,0.0,0.0,0.0,0.0,0.0,0.0,0.0,0.0,0.0,0.0,0.0,0.0,0.0,0.0,0.0,0.0,0.0,0.0,0.0,0.0,0.0,0.0,0.0,0.0,0.0,0.0,0.0,0.0,0.0,0.0,0.0,0.0,0.0,0.0,0.0,0.0,0.0,0.0,0.0,0.0,0.0,0.0,0.0,0.0,0.0,0.0,0.0,0.0,0.0,0.0,0.0,0.0,0.0,0.0,0.0,0.0,0.0,0.0,0.0,0.0,0.0,0.0,0.0,0.0,0.0,0.0,0.0,0.0,0.0,0.0,0.0,0.0,0.0,0.0,0.0,0.0,0.0,0.0,0.0,0.0,0.0,0.0,0.0,0.0,0.0,0.0,0.0,0.0,0.0,0.0,0.0,0.0,0.0,0.0,0.0,0.0,0.0,0.0,0.0,0.0,0.0,0.0,0.0,0.0,0.0,0.0,0.0,0.0,0.0,0.0,0.0,0.0,0.0,0.0,0.1495,0.0,0.0,0.0,0.0,0.0943,0.1273,0.0,0.0499,0.0624,0.0698,0.0713,0.0716,0.1221,0.1248,0.019,0.0,0.0,0.0,0.0,0.0,0.0,0.0,0.0,0.0,0.0,0.0,0.0,0.0,0.0,0.0,0.0,0.0,0.0,0.0,0.0,0.0,0.0,0.0,0.0,0.0,0.0,0.0,0.0,0.0,0.0,0.0,0.0,0.0,0.0,0.0,0.0,0.0,0.0,0.0,0.0,0.0,0.0,0.0,0.0,0.0,0.0,0.0,0.0,0.0,0.0,0.0,0.0,0.0,0.0,0.0,0.0,0.0,0.0,0.0,0.0,0.0,0.0,0.0,0.0,0.0,0.0,0.0,0.0,0.0,0.0,0.0,0.0,0.0,0.0,0.0,0.0,0.0,0.0,0.0,0.0,0.0,0.0,0.0,0.0,0.0,0.0,0.0,0.0,0.0,0.0,0.0,0.0,0.0,0.0,0.0,0.0,0.0,0.0,0.0,0.0,0.0,0.0,0.3722,0.0,0.1435,0.187,0.209,0.2182,0.2221,0.3561,0.3678,0.0614,0.0125,0.0063,0.0,0.0,0.0,0.0,0.0,0.0,0.0,0.0,0.0,0.0,0.0,0.0,0.0,0.0,0.0,0.0,0.0,0.0,0.0,0.0,0.0,0.0,0.0,0.0,0.0,0.0,0.0,0.0,0.0,0.0,0.0,0.0,0.0,0.0,0.0,0.0,0.0,0.0,0.0,0.0,0.0,0.0,0.0,0.0,0.0,0.0,0.0,0.0,0.0,0.0,0.0,0.0,0.0,0.0,0.0,0.0,0.0,0.0,0.0,0.0,0.0,0.0,0.0,0.0,0.0,0.0,0.0,0.0,0.0,0.0,0.0,0.0,0.0,0.0,0.0,0.0,0.0,0.0,0.0,0.0,0.0,0.0,0.0,0.0,0.0,0.0,0.0,0.0,0.0,0.0,0.0,0.0,0.0,0.0,0.3407,0.0,0.0,0.0,0.0,0.0,0.0,0.0,0.1393,0.1656,0.191,0.2073,0.219,0.3387,0.4085,0.3379,0.2435,0.1365,0.0186,0.0,0.0,0.0,0.0,0.0,0.0,0.0,0.0,0.0,0.0,0.0,0.0,0.0,0.0,0.0,0.0,0.0,0.0,0.0,0.0,0.0,0.0,0.0,0.0,0.0,0.0,0.0,0.0,0.0,0.0,0.0,0.0,0.0,0.0,0.0,0.0,0.0,0.0,0.0,0.0,0.0,0.0,0.0,0.0,0.0,0.0,0.0,0.0,0.0,0.0,0.0,0.0,0.0,0.0,0.0,0.0,0.0,0.0,0.0,0.0,0.0,0.0,0.0,0.0,0.0,0.0,0.0,0.0,0.0,0.0,0.0,0.0,0.0,0.0,0.0,0.0,0.0,0.0,0.0,0.0,0.0,0.0,0.0,0.0,0.0,0.0,0.0,0.0,0.0,0.0,0.0,0.0,0.0,0.4635,0.4382,0.0,0.0,0.0,0.0,0.393,0.2592,0.1524,0.2352,0.2731,0.3114,0.3698,0.5021,0.592,0.5443,0.4226,0.2763,0.1158,0.0367,0.0,0.0,0.0,0.0,0.0,0.0,0.0,0.0,0.0,0.0,0.0,0.0,0.0,0.0,0.0,0.0,0.0,0.0,0.0,0.0,0.0,0.0,0.0,0.0,0.0,0.0,0.0,0.0,0.0,0.0,0.0,0.0,0.0,0.0,0.0,0.0,0.0,0.0,0.0,0.0,0.0,0.0,0.0,0.0,0.0,0.0,0.0,0.0,0.0,0.0,0.0,0.0,0.0,0.0,0.0,0.0,0.0,0.0,0.0,0.0,0.0,0.0,0.0,0.0,0.0,0.0,0.0,0.0,0.0,0.0,0.0,0.0,0.0,0.0,0.0,0.0,0.0,0.0,0.0,0.0,0.0,0.0,0.0,0.0,0.0673,0.1394,0.2045,0.0642,0.0,0.0,0.0,0.0,0.5797,0.5805,0.0,0.0,0.5173,0.0,0.5101,0.333,0.189,0.3424,0.403,0.4654,0.5739,0.7397,0.8147,0.686,0.5532,0.4074,0.2445,0.0901,0.0,0.0,0.0,0.0,0.0,0.0,0.0,0.0,0.0,0.0,0.0,0.0,0.0,0.0,0.0,0.0,0.0,0.0,0.0,0.0,0.0,0.0,0.0,0.0,0.0,0.0,0.0,0.0,0.0,0.0,0.0,0.0,0.0,0.0,0.0,0.0,0.0,0.0,0.0,0.0,0.0,0.0,0.0,0.0,0.0,0.0,0.0,0.0,0.0,0.0,0.0,0.0,0.0,0.0,0.0,0.0,0.0,0.0,0.0,0.0,0.0,0.0,0.0,0.0,0.0,0.0,0.0,0.0,0.0,0.0,0.0,0.0,0.0,0.0,0.0,0.0,0.0,0.0,0.0,0.0,0.0,0.0,0.0062,0.0247,0.191,0.3481,0.4864,0.1809,0.0286,0.0281,0.0112,0.0,0.6241,0.5823,0.5085,0.5054,0.4008,0.0,0.3368,0.2992,0.2692,0.3141,0.4135,0.5066,0.5449,0.678,0.7764,0.7558,0.6503,0.4878,0.2511,0.0946,0.0,0.0,0.0,0.0,0.0,0.0,0.0,0.0,0.0,0.0,0.0,0.0,0.0,0.0,0.0,0.0,0.0,0.0,0.0,0.0,0.0,0.0,0.0,0.0,0.0,0.0,0.0,0.0,0.0,0.0,0.0,0.0,0.0,0.0,0.0,0.0,0.0,0.0,0.0,0.0,0.0,0.0,0.0,0.0,0.0,0.0,0.0,0.0,0.0,0.0,0.0,0.0,0.0,0.0,0.0,0.0,0.0,0.0,0.0,0.0,0.0,0.0,0.0,0.0,0.0,0.0,0.0,0.0,0.0,0.0,0.0,0.0,0.0,0.0,0.0,0.0,0.0,0.0,0.0,0.0,0.0,0.0,0.0617,0.1971,0.3628,0.4574,0.4924,0.2949,0.2029,0.1998,0.0629,0.0,0.4914,0.4683,0.4226,0.4051,0.3114,0.0,0.0,0.1838,0.1643,0.2318,0.337,0.4466,0.5275,0.6447,0.7441,0.7665,0.6712,0.5433,0.4165,0.2286,0.074,0.0057,0.0,0.0,0.0,0.0,0.0,0.0,0.0,0.0,0.0,0.0,0.0,0.0,0.0,0.0,0.0,0.0,0.0,0.0,0.0,0.0,0.0,0.0,0.0,0.0,0.0,0.0,0.0,0.0,0.0,0.0,0.0,0.0,0.0,0.0,0.0,0.0,0.0,0.0,0.0,0.0,0.0,0.0,0.0,0.0,0.0,0.0,0.0,0.0,0.0,0.0,0.0,0.0,0.0,0.0,0.0,0.0,0.0,0.0,0.0,0.0,0.0,0.0,0.0,0.0,0.0,0.0,0.0,0.0,0.0308,0.1171,0.0494,0.0308,0.1171,0.0494,0.0,0.0,0.0,0.0,0.0,0.0,0.1171,0.3628,0.5284,0.6541,0.7341,0.4881,0.3265,0.2437,0.0756,0.0,0.3527,0.3415,0.3255,0.3099,0.2224,0.1448,0.0,0.0,0.0,0.1563,0.256,0.0,0.0,0.0,0.6782,0.7015,0.6519,0.5938,0.5674,0.3891,0.2192,0.088,0.0505,0.0396,0.0396,0.0172,0.0,0.0,0.0,0.0,0.0,0.0,0.0,0.0,0.0,0.0,0.0,0.0,0.0,0.0,0.0,0.0,0.0,0.0,0.0,0.0,0.0,0.0,0.0,0.0,0.0,0.0,0.0,0.0,0.0,0.0,0.0,0.0,0.0,0.0,0.0,0.0,0.0,0.0,0.0,0.0,0.0,0.0,0.0,0.0,0.0,0.0,0.0,0.0,0.0,0.0,0.0,0.0,0.0123,0.0432,0.0247,0.0,0.0,0.0,0.0,0.0,0.0,0.0,0.0,0.0308,0.0986,0.2339,0.154,0.1356,0.2401,0.1233,0.0494,0.0494,0.0185,0.0123,0.0494,0.0802,0.2339,0.5345,0.6996,0.8526,0.9822,0.6813,0.4543,0.289,0.0946,0.0,0.3593,0.3072,0.2164,0.2138,0.1148,0.0201,0.0172,0.0,0.1476,0.159,0.0,0.3189,0.0,0.0,0.0,0.5183,0.6168,0.6471,0.5205,0.5031,0.459,0.352,0.2439,0.177,0.177,0.069,0.0,0.0,0.0,0.0,0.0,0.0,0.0,0.0,0.0,0.0,0.0,0.0,0.0,0.0,0.0,0.0,0.0,0.0,0.0,0.0,0.0,0.0,0.0,0.0,0.0,0.0,0.0,0.0,0.0,0.0,0.0,0.0,0.0,0.0,0.0,0.0,0.0,0.0,0.0,0.0,0.0,0.0,0.0,0.0,0.0,0.0,0.0,0.0,0.0,0.0,0.0,0.0,0.0432,0.191,0.0986,0.0,0.0,0.0,0.0,0.0,0.0,0.0,0.0,0.1295,0.2279,0.2462,0.3628,0.3812,0.2585,0.2339,0.2216,0.2216,0.0802,0.0679,0.2156,0.3566,0.5223,0.7052,0.8714,0.964,0.9822,0.7978,0.6267,0.4551,0.1441,0.0,0.1503,0.1294,0.0863,0.0865,0.0407,0.0,0.0,0.0358,0.0667,0.066,0.0,0.0,0.0,0.0,0.0,0.0,0.6062,0.6718,0.5936,0.6098,0.5565,0.36,0.2425,0.1543,0.0875,0.0308,0.0,0.0,0.0,0.0,0.0,0.0,0.0,0.0,0.0,0.0,0.0,0.0,0.0,0.0,0.0,0.0,0.0,0.0,0.0,0.0,0.0,0.0,0.0,0.0,0.0,0.0,0.0,0.0,0.0,0.0,0.0,0.0,0.0,0.0,0.0,0.0,0.0,0.0,0.0,0.0,0.0,0.0,0.0,0.0,0.0,0.0,0.0,0.0,0.0,0.0,0.0,0.074,0.1663,0.2339,0.2708,0.2524,0.1602,0.0617,0.0,0.0,0.0,0.0,0.0,0.1479,0.2831,0.3812,0.4487,0.5039,0.5341,0.4426,0.3873,0.3873,0.3262,0.3139,0.3873,0.5464,0.6691,0.7357,0.8958,0.9822,0.9822,0.7179,0.5571,0.4868,0.2499,0.0905,0.0,0.0,0.0,0.0,0.0,0.0,0.0,0.0,0.0,0.0,0.0492,0.0,0.0,0.0,0.4415,0.4395,0.0,0.681,0.6504,0.6607,0.596,0.3892,0.2521,0.1398,0.0536,0.0194,0.0099,0.0416,0.0153,0.0,0.0,0.0,0.0,0.0,0.0,0.0,0.0,0.0,0.0,0.0,0.0,0.0,0.0,0.0,0.0,0.0,0.0,0.0,0.0,0.0,0.0,0.0,0.0,0.0,0.0,0.0,0.0,0.0,0.0,0.0,0.0,0.0,0.0,0.0,0.0,0.0,0.0,0.0,0.0,0.0,0.0,0.0,0.0,0.0,0.0,0.0123,0.0555,0.1663,0.277,0.3689,0.4426,0.4548,0.3384,0.1787,0.0555,0.0062,0.0,0.0,0.0,0.1848,0.3628,0.4794,0.5712,0.6569,0.7362,0.6259,0.5406,0.4916,0.5345,0.559,0.559,0.6747,0.7606,0.8039,0.9207,0.9822,0.9822,0.7429,0.5774,0.4855,0.277,0.1162,0.0,0.0,0.0,0.0,0.0,0.0,0.0,0.0,0.0,0.0,0.0,0.005,0.0048,0.2004,0.3532,0.3219,0.5276,0.0,0.0,0.6313,0.5988,0.5126,0.3225,0.1884,0.1572,0.0607,0.0443,0.1463,0.057,0.0,0.0,0.0,0.0,0.0,0.0,0.0,0.0,0.0,0.0,0.0,0.0,0.0,0.0,0.0,0.0,0.0,0.0,0.0,0.0,0.0,0.0,0.0,0.0,0.0,0.0,0.0,0.0,0.0,0.0,0.0,0.0,0.0,0.0,0.0,0.0,0.0,0.0,0.0,0.0,0.0,0.0,0.0,0.0,0.0,0.0,0.0432,0.2094,0.2462,0.3444,0.6625,0.5957,0.4855,0.4855,0.3507,0.1848,0.0247,0.0,0.0,0.0,0.2831,0.4855,0.4916,0.7734,0.9019,0.7545,0.7362,0.6625,0.4977,0.6446,0.7301,0.7301,0.7357,0.816,0.97,0.9761,0.9822,0.9822,0.97,0.7978,0.4794,0.1602,0.0061,0.1449,0.1764,0.2051,0.2983,0.2528,0.1729,0.1525,0.0718,0.0,0.0,0.0,0.0,0.0,0.1963,0.3513,0.3333,0.5266,0.662,0.0,0.5341,0.4708,0.0,0.0,0.0,0.2556,0.2221,0.1865,0.1453,0.1195,0.0759,0.0053,0.0,0.0,0.0,0.0,0.0,0.0,0.0,0.0,0.0,0.0,0.0,0.0,0.0,0.0,0.0,0.0,0.0,0.0,0.0,0.0,0.0,0.0,0.0,0.0,0.0,0.0,0.0,0.0,0.0,0.0,0.0,0.0,0.0,0.0,0.0,0.0,0.0,0.0,0.0,0.0,0.0,0.0,0.0,0.0863,0.1787,0.2401,0.418,0.6075,0.7174,0.7789,0.7429,0.5284,0.4426,0.3139,0.0432,0.0,0.0,0.0,0.2893,0.4916,0.4916,0.7856,0.9572,0.9019,0.8958,0.8775,0.816,0.8653,0.8958,0.8958,0.8958,0.9268,0.9761,0.9822,0.9822,0.9822,0.8714,0.7057,0.4855,0.2647,0.1045,0.2362,0.2685,0.2909,0.3876,0.2921,0.1686,0.1452,0.0702,0.0,0.0,0.0,0.0,0.0,0.2034,0.3592,0.3315,0.5231,0.6586,0.0,0.52,0.4662,0.0,0.0,0.0,0.0,0.3207,0.2861,0.2673,0.1868,0.1195,0.0664,0.0213,0.0,0.0,0.0,0.0,0.0,0.0,0.0,0.0,0.0,0.0,0.0,0.0,0.0,0.0,0.0,0.0,0.0,0.0,0.0,0.0,0.0,0.0,0.0,0.0,0.0,0.0,0.0,0.0,0.0,0.0,0.0,0.0,0.0,0.0,0.0,0.0,0.0,0.0,0.0,0.0,0.0,0.0,0.1295,0.2647,0.32,0.5464,0.7545,0.816,0.9079,0.8958,0.6263,0.5774,0.4487,0.0555,0.0,0.0,0.0,0.2893,0.4916,0.4916,0.7856,0.9822,0.9822,0.9822,0.9822,0.9822,0.9822,0.9822,0.9822,0.9822,0.9822,0.9822,0.9822,0.9822,0.9822,0.8775,0.7423,0.5774,0.4119,0.277]}]]